[[{"header":{"parameterUnit":"m.s-1","parameterCategory":1,"la1":30.6,"la2":28.766,"lo1":-90.7593,"lo2":-88.6598,"dy":0.0162,"dx":0.0183,"nx":116,"ny":114,"refTime":"2024-03-31T12:00:00:Z","depth":0,"parameterNumber":2,"parameterNumberName":"U-component_of_WINDS"},"data":[0.0,0.0,0.0,0.0,0.0,0.0,0.0,0.0,0.0,0.0,0.0,0.0,0.0,0.0,0.0,0.0,0.0,0.0,0.0,0.0,0.0,0.0,0.0,0.0,0.0,0.0,0.0,0.0,0.0,0.0,0.0,0.0,0.0,0.0,0.0,0.0,0.0,0.0,0.0,0.0,0.0,0.0,0.0,0.0,0.0,0.0,0.0,0.0,0.0,0.0,0.0,0.0,0.0,0.0,0.0,0.0,0.0,0.0,0.0,0.0,0.0,0.0,0.0,0.0,0.0,0.0,0.0,0.0,0.0,0.0,0.0,0.0,0.0,0.0,0.0,0.0,0.0,0.0,0.0,0.0,0.0,0.0,0.0,0.0,0.0,0.0,0.0,0.0,0.0,0.0,0.0,0.0,0.0,0.0,0.0,0.0,0.0,0.0,0.0,0.0,0.0,0.0,0.0,0.0,0.0,0.0,0.0,0.0,0.0,0.0,0.0,0.0,0.0,0.0,0.0,0.0,0.0,0.0,0.0,0.0,0.0,0.0,0.0,0.0,0.0,0.0,0.0,0.0,0.0,0.0,0.0,0.0,0.0,0.0,0.0,0.0,0.0,0.0,0.0,0.0,0.0,0.0,0.0,0.0,0.0,0.0,0.0,0.0,0.0,0.0,0.0,0.0,0.0,0.0,0.0,0.0,0.0,0.0,0.0,0.0,0.0,0.0,0.0,0.0,0.0,0.0,0.0,0.0,0.0,0.0,0.0,0.0,0.0,0.0,0.0,0.0,0.0,0.0,0.0,0.0,0.0,0.0,0.0,0.0,0.0,0.0,0.0,0.0,0.0,0.0,0.0,0.0,0.0,0.0,0.0,0.0,0.0,0.0,0.0,0.0,0.0,0.0,0.0,0.0,0.0,0.0,0.0,0.0,0.0,0.0,0.0,0.0,0.0,0.0,0.0,0.0,0.0,0.0,0.0,0.0,0.0,0.0,0.0,0.0,0.0,0.0,0.0,0.0,0.0,0.0,0.0,0.0,0.0,0.0,0.0,0.0,0.0,0.0,0.0,0.0,0.0,0.0,0.0,0.0,0.0,0.0,0.0,0.0,0.0,0.0,0.0,0.0,0.0,0.0,0.0,0.0,0.0,0.0,0.0,0.0,0.0,0.0,0.0,0.0,0.0,0.0,0.0,0.0,0.0,0.0,0.0,0.0,0.0,0.0,0.0,0.0,0.0,0.0,0.0,0.0,0.0,0.0,0.0,0.0,0.0,0.0,0.0,0.0,0.0,0.0,0.0,0.0,0.0,0.0,0.0,0.0,0.0,0.0,0.0,0.0,0.0,0.0,0.0,0.0,0.0,0.0,0.0,0.0,0.0,0.0,0.0,0.0,0.0,0.0,0.0,0.0,0.0,0.0,0.0,0.0,0.0,0.0,0.0,0.0,0.0,0.0,0.0,0.0,0.0,0.0,0.0,0.0,0.0,0.0,0.0,0.0,0.0,0.0,0.0,0.0,0.0,0.0,0.0,0.0,0.0,0.0,0.0,0.0,0.0,0.0,0.0,0.0,0.0,0.0,0.0,0.0,0.0,0.0,0.0,0.0,0.0,0.0,0.0,0.0,0.0,0.0,0.0,0.0,0.0,0.0,0.0,0.0,0.0,0.0,0.0,0.0,0.0,0.0,0.0,0.0,0.0,0.0,0.0,0.0,0.0,0.0,0.0,0.0,0.0,0.0,0.0,0.0,0.0,0.0,0.0,0.0,0.0,0.0,0.0,0.0,0.0,0.0,0.0,0.0,0.0,0.0,0.0,0.0,0.0,0.0,0.0,0.0,0.0,0.0,0.0,0.0,0.0,0.0,0.0,0.0,0.0,0.0,0.0,0.0,0.0,0.0,0.0,0.0,0.0,0.0,0.0,0.0,0.0,0.0,0.0,0.0,0.0,0.0,0.0,0.0,0.0,0.0,0.0,0.0,0.0,0.0,0.0,0.0,0.0,0.0,0.0,0.0,0.0,0.0,0.0,0.0,0.0,0.0,0.0,0.0,0.0,0.0,0.0,0.0,0.0,0.0,0.0,0.0,0.0,0.0,0.0,0.0,0.0,0.0,0.0,0.0,0.0,0.0,0.0,0.0,0.0,0.0,0.0,0.0,0.0,0.0,0.0,0.0,0.0,0.0,0.0,0.0,0.0,0.0,0.0,0.0,0.0,0.0,0.0,0.0,0.0,0.0,0.0,0.0,0.0,0.0,0.0,0.0,0.0,0.0,0.0,0.0,0.0,0.0,0.0,0.0,0.0,0.0,0.0,0.0,0.0,0.0,0.0,0.0,0.0,0.0,0.0,0.0,0.0,0.0,0.0,0.0,0.0,0.0,0.0,0.0,0.0,0.0,0.0,0.0,0.0,0.0,0.0,0.0,0.0,0.0,0.0,0.0,0.0,0.0,0.0,0.0,0.0,0.0,0.0,0.0,0.0,0.0,0.0,0.0,0.0,0.0,0.0,0.0,0.0,0.0,0.0,0.0,0.0,0.0,0.0,0.0,0.0,0.0,0.0,0.0,0.0,0.0,0.0,0.0,0.0,0.0,0.0,0.0,0.0,0.0,0.0,0.0,0.0,0.0,0.0,0.0,0.0,0.0,0.0,0.0,0.0,0.0,0.0,0.0,0.0,0.0,0.0,0.0,0.0,0.0,0.0,0.0,0.0,0.0,0.0,0.0,0.0,0.0,0.0,0.0,0.0,0.0,0.0,0.0,0.0,0.0,0.0,0.0,0.0,0.0,0.0,0.0,0.0,0.0,0.0,0.0,0.0,0.0,0.0,0.0,0.0,0.0,0.0,0.0,0.0,0.0,0.0,0.0,0.0,0.0,0.0,0.0,0.0,0.0,0.0,0.0,0.0,0.0,0.0,0.0,0.0,0.0,0.0,0.0,0.0,0.0,0.0,0.0,0.0,0.0,0.0,0.0,0.0,0.0,0.0,0.0,0.0,0.0,0.0,0.0,0.0,0.0,0.0,0.0,0.0,0.0,0.0,0.0,0.0,0.0,0.0,0.0,0.0,0.0,0.0,0.0,0.0,0.0,0.0,0.0,0.0,0.0,0.0,0.0,0.0,0.0,0.0,0.0,0.0,0.0,0.0,0.0,0.0,0.0,0.0,0.0,0.0,0.0,0.0,0.0,0.0,0.0,0.0,0.0,0.0,0.0,0.0,0.0,0.0,0.0,0.0,0.0,0.0,0.0,0.0,0.0,0.0,0.0,0.0,0.0,0.0,0.0,0.0,0.0,0.0,0.0,0.0,0.0,0.0,0.0,0.0,0.0,0.0,0.0,0.0,0.0,0.0,0.0,0.0,0.0,0.0,0.0,0.0,0.0,0.0,0.0,0.0,0.0,0.0,0.0,0.0,0.0,0.0,0.0,0.0,0.0,0.0,0.0,0.0,0.0,0.0,0.0,0.0,0.0,0.0,0.0,0.0,0.0,0.0,0.0,0.0,0.0,0.0,0.0,0.0,0.0,0.0,0.0,0.0,0.0,0.0,0.0,0.0,0.0,0.0,0.0,0.0,0.0,0.0,0.0,0.0,0.0,0.0,0.0,0.0,0.0,0.0,0.0,0.0,0.0,0.0,0.0,0.0,0.0,0.0,0.0,0.0,0.0,0.0,0.0,0.0,0.0,0.0,0.0,0.0,0.0,0.0,0.0,0.0,0.0,0.0,0.0,0.0,0.0,0.0,0.0,0.0,0.0,0.0,0.0,0.0,0.0,0.0,0.0,0.0,0.0,0.0,0.0,0.0,0.0,0.0,0.0,0.0,0.0,0.0,0.0,0.0,0.0,0.0,0.0,0.0,0.0,0.0,0.0,0.0,0.0,0.0,0.0,0.0,0.0,0.0,0.0,0.0,0.0,0.0,0.0,0.0,0.0,0.0,0.0,0.0,0.0,0.0,0.0,0.0,0.0,0.0,0.0,0.0,0.0,0.0,0.0,0.0,0.0,0.0,0.0,0.0,0.0,0.0,0.0,0.0,0.0,0.0,0.0,0.0,0.0,0.0,0.0,0.0,0.0,0.0,0.0,0.0,0.0,0.0,0.0,0.0,0.0,0.0,0.0,0.0,0.0,0.0,0.0,0.0,0.0,0.0,0.0,0.0,0.0,0.0,0.0,0.0,0.0,0.0,0.0,0.0,0.0,0.0,0.0,0.0,0.0,0.0,0.0,0.0,0.0,0.0,0.0,0.0,0.0,0.0,0.0,0.0,0.0,0.0,0.0,0.0,0.0,0.0,0.0,0.0,0.0,0.0,0.0,0.0,0.0,0.0,0.0,0.0,0.0,0.0,0.0,0.0,0.0,0.0,0.0,0.0,0.0,0.0,0.0,0.0,0.0,0.0,0.0,0.0,0.0,0.0,0.0,0.0,0.0,0.0,0.0,0.0,0.0,0.0,0.0,0.0,0.0,0.0,0.0,0.0,0.0,0.0,0.0,0.0,0.0,0.0,0.0,0.0,0.0,0.0,0.0,0.0,0.0,0.0,0.0,0.0,0.0,0.0,0.0,0.0,0.0,0.0,0.0,0.0,0.0,0.0,0.0,0.0,0.0,0.0,0.0,0.0,0.0,0.0,0.0,0.0,0.0,0.0,0.0,0.0,0.0,0.0,0.0,0.0,0.0,0.0,0.0,0.0,0.0,0.0,0.0,0.0,0.0,0.0,0.0,0.0,0.0,0.0,0.0,0.0,0.0,0.0,0.0,0.0,0.0,0.0,0.0,0.0,0.0,0.0,0.0,0.0,0.0,0.0,0.0,0.0,0.0,0.0,0.0,0.0,0.0,0.0,0.0,0.0,0.0,0.0,0.0,0.0,0.0,0.0,0.0,0.0,0.0,0.0,0.0,0.0,0.0,0.0,0.0,0.0,0.0,0.0,0.0,0.0,0.0,0.0,0.0,0.0,0.0,0.0,0.0,0.0,0.0,0.0,0.0,0.0,0.0,0.0,0.0,0.0,0.0,0.0,0.0,0.0,0.0,0.0,0.0,0.0,0.0,0.0,0.0,0.0,0.0,0.0,0.0,0.0,0.0,0.0,0.0,0.0,0.0,0.0,0.0,0.0,0.0,0.0,0.0,0.0,0.0,0.0,0.0,0.0,0.0,0.0,0.0,0.0,0.0,0.0,0.0,0.0,0.0,0.0,0.0,0.0,0.0,0.0,0.0,0.0,0.0,0.0,0.0,0.0,0.0,0.0,0.0,0.0,0.0,0.0,0.0,0.0,0.0,0.0,0.0,0.0,0.0,0.0,0.0,0.0,0.0,0.0,0.0,0.0,0.0,0.0,0.0,0.0,0.0,0.0,0.0,0.0,0.0,0.0,0.0,0.0,0.0,0.0,0.0,0.0,0.0,0.0,0.0,0.0,0.0,0.0,0.0,0.0,0.0,0.0,0.0,0.0,0.0,0.0,0.0,0.0,0.0,0.0,0.0,0.0,0.0,0.0,0.0,0.0,0.0,0.0,0.0,0.0,0.0,0.0,0.0,0.0,0.0,0.0,0.0,0.0,0.0,0.0,0.0,0.0,0.0,0.0,0.0,0.0,0.0,0.0,0.0,0.0,0.0,0.0,0.0,0.0,0.0,0.0,0.0,0.0,0.0,0.0,0.0,0.0,0.0,0.0,0.0,0.0,0.0,0.0,0.0,0.0,0.0,0.0,0.0,0.0,0.0,0.0,0.0,0.0,0.0,0.0,0.0,0.0,0.0,0.0,0.0,0.0,0.0,0.0,0.0,0.0,0.0,0.0,0.0,0.0,0.0,0.0,0.0,0.0,0.0,0.0,0.0,0.0,0.0,0.0,0.0,0.0,0.0,0.0,0.0,0.0,0.0,0.0,0.0,0.0,0.0,0.0,0.0,0.0,0.0,0.0,0.0,0.0,0.0,0.0,0.0,0.0,0.0,0.0,0.0,0.0,0.0,0.0,0.0,0.0,0.0,0.0,0.0,0.0,0.0,0.0,0.0,0.0,0.0,0.0,0.0,0.0,0.0,0.0,0.0,0.0,0.0,0.0,0.0,0.0,0.0,0.0,0.0,0.0,0.0,0.0,0.0,0.0,0.0,0.0,0.0,0.0,0.0,-5.212,-5.3569,0.0,0.0,0.0,0.0,0.0,0.0,0.0,0.0,0.0,0.0,0.0,0.0,0.0,0.0,0.0,0.0,0.0,0.0,0.0,0.0,0.0,0.0,0.0,-5.4787,-5.5425,-5.6129,-5.6191,-5.5902,-5.5168,0.0,0.0,0.0,0.0,0.0,-5.2972,-5.3258,-5.4023,-5.5351,-5.4449,-5.3733,-5.3242,-5.4567,-5.5207,-5.5305,0.0,0.0,0.0,0.0,0.0,0.0,0.0,0.0,0.0,0.0,0.0,0.0,0.0,0.0,0.0,0.0,0.0,0.0,0.0,0.0,0.0,0.0,0.0,0.0,0.0,0.0,0.0,0.0,0.0,0.0,0.0,0.0,0.0,0.0,0.0,0.0,0.0,0.0,0.0,0.0,0.0,0.0,0.0,0.0,0.0,0.0,0.0,0.0,0.0,0.0,0.0,0.0,0.0,0.0,0.0,0.0,0.0,0.0,0.0,0.0,0.0,0.0,0.0,0.0,0.0,0.0,0.0,0.0,0.0,0.0,-5.0913,-5.2085,0.0,0.0,0.0,0.0,0.0,0.0,0.0,0.0,0.0,0.0,0.0,0.0,0.0,0.0,0.0,0.0,0.0,0.0,0.0,0.0,0.0,-5.1781,-5.3434,-5.3868,-5.4624,-5.6052,-5.6191,-5.5708,-5.459,-5.3664,0.0,0.0,-5.1509,-5.1677,-5.2505,-5.2789,-5.3281,-5.3983,-5.2706,-5.1977,-5.1711,-5.2699,-5.3295,-5.3562,-5.5341,0.0,0.0,0.0,0.0,0.0,0.0,0.0,0.0,0.0,0.0,0.0,0.0,0.0,0.0,0.0,0.0,0.0,0.0,0.0,0.0,0.0,0.0,0.0,0.0,0.0,0.0,0.0,0.0,0.0,0.0,0.0,0.0,0.0,0.0,0.0,0.0,0.0,0.0,0.0,0.0,0.0,0.0,0.0,0.0,0.0,0.0,0.0,0.0,0.0,0.0,0.0,0.0,0.0,0.0,0.0,0.0,0.0,0.0,0.0,0.0,0.0,0.0,0.0,-4.9168,-4.9151,-4.9539,-4.8872,-4.8565,-4.8643,-5.0063,-5.0733,-5.0824,-5.0528,0.0,0.0,0.0,0.0,0.0,0.0,0.0,0.0,0.0,0.0,0.0,0.0,0.0,0.0,0.0,0.0,0.0,0.0,0.0,-5.2485,-5.3483,-5.4496,-5.5409,-5.614,-5.6191,-5.5708,-5.459,-5.3664,-5.2818,-5.1923,-5.2058,-5.2543,-5.3405,-5.3689,-5.3825,-5.3838,-5.1385,-4.9707,-4.8891,-5.0614,-5.1747,-5.2395,-5.3618,-5.458,-5.5256,0.0,0.0,0.0,0.0,0.0,0.0,0.0,0.0,0.0,0.0,0.0,0.0,0.0,0.0,0.0,0.0,0.0,0.0,0.0,0.0,0.0,0.0,0.0,0.0,0.0,0.0,0.0,0.0,0.0,0.0,0.0,0.0,0.0,0.0,0.0,0.0,0.0,0.0,0.0,0.0,0.0,-5.3716,-5.3472,0.0,0.0,0.0,0.0,0.0,0.0,0.0,0.0,0.0,0.0,0.0,0.0,0.0,-4.8307,-4.8788,-4.9497,-4.9529,-4.8972,-4.9528,-4.9252,-4.8167,-4.8035,-4.8001,-4.8031,-4.8236,0.0,-5.0438,-4.9039,0.0,0.0,0.0,0.0,0.0,0.0,0.0,0.0,0.0,0.0,0.0,0.0,0.0,0.0,0.0,0.0,0.0,0.0,0.0,0.0,0.0,-5.489,-5.5337,-5.5444,-5.5924,-5.5281,-5.3195,-5.3126,-5.2626,-5.1279,-5.1477,-5.2033,-5.2855,-5.2633,-5.2261,-5.1642,-5.0887,-5.0296,-4.9893,-5.0719,-5.1763,-5.2929,-5.3029,-5.3818,-5.5114,-5.5105,0.0,0.0,0.0,0.0,0.0,0.0,0.0,0.0,0.0,0.0,0.0,0.0,0.0,0.0,0.0,0.0,0.0,0.0,0.0,0.0,0.0,0.0,0.0,0.0,0.0,0.0,0.0,0.0,0.0,0.0,0.0,0.0,0.0,0.0,0.0,0.0,0.0,0.0,0.0,-5.1176,-5.1193,-5.0558,-5.1099,-5.1152,0.0,0.0,0.0,0.0,0.0,0.0,0.0,0.0,0.0,-4.7648,-4.8076,-4.8274,-4.8245,-4.9004,-4.924,-4.8924,-4.9295,-4.9116,-4.8545,-4.8545,-4.8545,-4.8545,-4.8545,-4.8944,-4.9567,-4.8361,-4.8116,-4.8421,0.0,0.0,0.0,0.0,-4.6672,-4.6505,0.0,0.0,0.0,0.0,0.0,0.0,0.0,0.0,0.0,0.0,0.0,0.0,-5.4455,-5.482,-5.4868,-5.4587,-5.538,-5.4737,-5.2078,-5.25,-5.2232,-5.0797,-5.1186,-5.1697,-5.2351,-5.1709,-5.0928,-4.9998,-5.0533,-5.0753,-5.0762,-5.0982,-5.1872,-5.3249,-5.2968,-5.3662,-5.5072,-5.4918,-5.4733,-5.4548,0.0,0.0,0.0,0.0,0.0,0.0,0.0,0.0,0.0,0.0,0.0,0.0,0.0,0.0,0.0,0.0,0.0,0.0,0.0,0.0,0.0,0.0,0.0,0.0,0.0,0.0,0.0,0.0,0.0,0.0,0.0,0.0,0.0,0.0,0.0,0.0,0.0,-4.9862,-4.967,-4.8256,-4.9816,-5.0371,0.0,0.0,0.0,0.0,0.0,0.0,-4.902,-4.8872,-4.8657,-4.8311,-4.8661,-4.8709,-4.8477,-4.8815,-4.9018,-4.9018,-4.9018,-4.9018,-4.8984,-4.8815,-4.8714,-4.8714,-4.8511,-4.8443,-4.8372,-4.774,-4.7411,-4.7241,-4.6575,-4.6297,-4.6227,-4.6096,-4.5908,-4.5628,0.0,0.0,0.0,0.0,0.0,0.0,0.0,0.0,0.0,0.0,0.0,-5.2693,-5.373,-5.3976,-5.3969,-5.3687,-5.4446,-5.4084,-5.204,-5.1923,-5.1654,-5.0905,-5.1758,-5.2321,-5.2486,-5.1717,-5.0861,-4.9998,-4.9917,-4.9863,-4.9863,-5.0709,-5.1556,-5.2412,-5.3316,-5.4253,-5.5038,-5.4333,-5.3973,-5.3835,-5.3662,0.0,0.0,0.0,0.0,0.0,0.0,0.0,0.0,0.0,0.0,0.0,0.0,0.0,0.0,0.0,0.0,0.0,0.0,0.0,0.0,0.0,0.0,0.0,0.0,0.0,0.0,0.0,0.0,0.0,0.0,0.0,0.0,0.0,0.0,0.0,0.0,0.0,0.0,-4.8145,-5.0962,0.0,0.0,0.0,0.0,-4.9761,-4.9125,-4.9097,-4.9872,-4.9334,-4.928,-4.9961,-4.9351,-4.9286,-4.9965,-4.9323,-4.9018,-4.9018,-4.9018,-4.9018,-4.8984,-4.8274,-4.7939,-4.7906,-4.7225,-4.6921,-4.6887,-4.6878,-4.6737,-4.6411,-4.5,-4.4327,-4.4105,-4.3578,-4.2968,-4.2343,0.0,0.0,0.0,0.0,0.0,-5.1625,-5.0827,-5.1395,-5.2117,-5.2713,-5.2989,-5.3716,-5.5169,-5.4942,-5.4399,-5.3648,-5.4322,-5.3724,-5.1308,-5.1625,-5.1615,-5.092,-5.1292,-5.1612,-5.179,-5.1433,-5.1144,-5.0893,-5.0772,-5.1035,-5.1657,-5.1421,-5.2044,-5.3412,-5.3779,-5.4408,-5.523,-5.496,-5.4392,-5.3567,-5.2446,-5.1994,0.0,0.0,0.0,0.0,0.0,0.0,0.0,0.0,0.0,0.0,0.0,0.0,0.0,0.0,0.0,0.0,0.0,0.0,0.0,0.0,0.0,0.0,0.0,0.0,0.0,0.0,0.0,0.0,0.0,0.0,0.0,0.0,0.0,0.0,0.0,0.0,0.0,-4.8812,-5.0956,0.0,-4.9776,-4.9791,-5.0112,-5.06,-5.0037,-4.996,-5.0714,-5.0532,-5.0338,-5.0101,-4.983,-4.9593,-4.939,-4.912,-4.8781,-4.8308,-4.8308,-4.8037,-4.7564,-4.7293,-4.7192,-4.7192,-4.6921,-4.6786,-4.6752,-4.6278,-4.605,-4.5902,-4.4879,-4.446,-4.4345,-4.4168,-4.3617,-4.2935,0.0,0.0,0.0,0.0,-5.1885,-5.1625,-5.0827,-5.1395,-5.2117,-5.2752,-5.3243,-5.3996,-5.5174,-5.5134,-5.4628,-5.3608,-5.3998,-5.3365,-5.1222,-5.1395,-5.1391,-5.0972,-5.0854,-5.0701,-5.0547,-5.046,-5.0459,-5.0547,-5.0459,-5.0929,-5.1836,-5.1289,-5.1914,-5.3555,-5.3867,-5.4492,-5.5312,-5.5582,-5.4728,-5.3139,-5.1979,-5.149,-5.1345,0.0,0.0,0.0,0.0,0.0,0.0,0.0,0.0,0.0,0.0,0.0,0.0,0.0,0.0,0.0,0.0,0.0,0.0,0.0,0.0,0.0,0.0,0.0,0.0,0.0,0.0,0.0,0.0,0.0,0.0,0.0,0.0,0.0,0.0,-5.0122,-5.0587,-4.9178,-5.1151,-5.1943,-5.0189,-5.0498,-5.0982,-5.1463,-5.1097,-5.1183,-5.1961,-5.1725,-5.1352,-5.0845,-5.0338,-4.9864,-4.939,-4.912,-4.8646,-4.7906,-4.7906,-4.753,-4.6786,-4.6549,-4.6413,-4.6413,-4.6143,-4.5906,-4.5635,-4.5432,-4.5026,-4.4519,-4.4282,-4.4181,-4.4147,-4.3938,-4.347,-4.2963,0.0,0.0,0.0,-5.2182,-5.1885,-5.1615,-5.0808,-5.1385,-5.1943,-5.2074,-5.2864,-5.3473,-5.3602,-5.4391,-5.4484,-5.353,-5.3406,-5.297,-5.1982,-5.1275,-5.0933,-5.1055,-5.0443,-4.9766,-4.8945,-4.8906,-4.8906,-4.8945,-4.8906,-4.9336,-5.0195,-5.0195,-5.1094,-5.2734,-5.3594,-5.4492,-5.5351,-5.6103,-5.4906,-5.252,-5.2351,-5.1695,-5.0782,0.0,0.0,0.0,0.0,0.0,0.0,0.0,0.0,0.0,0.0,0.0,0.0,0.0,0.0,0.0,0.0,0.0,0.0,0.0,0.0,0.0,0.0,0.0,0.0,0.0,0.0,0.0,0.0,0.0,0.0,0.0,0.0,0.0,-4.7773,-4.9711,-5.0592,-4.9314,-5.1725,-5.2638,-5.0405,-5.1488,-5.2334,-5.2334,-5.2334,-5.2672,-5.3416,-5.2739,-5.2266,-5.2232,-5.0845,-5.0067,-5.0067,-4.9357,-4.8612,-4.7872,-4.7872,-4.7496,-4.6718,-4.6007,-4.5669,-4.5635,-4.4891,-4.4147,-4.3477,-4.4248,-4.3667,-4.2354,-4.3132,-4.3375,-4.3274,-4.2557,-4.2286,-4.2049,0.0,0.0,-5.3102,-5.1702,-5.1721,-5.1516,-5.0428,-5.1184,-5.1914,-5.1953,-5.2799,-5.3654,-5.4301,-5.4604,-5.4653,-5.4382,-5.3692,-5.2859,-5.1972,-5.1275,-5.0712,-5.0303,-4.9013,-4.8789,-4.9805,-4.8594,-4.8594,-4.9844,-4.9219,-4.9336,-5.0195,-5.0195,-5.1094,-5.2734,-5.3594,-5.4449,-5.5203,-5.6045,-5.5151,-5.31,-5.2434,-5.1777,-5.1064,0.0,0.0,0.0,0.0,0.0,0.0,0.0,0.0,0.0,0.0,0.0,0.0,0.0,0.0,0.0,0.0,0.0,0.0,0.0,0.0,0.0,0.0,0.0,0.0,0.0,0.0,0.0,0.0,0.0,0.0,0.0,-4.7826,-4.8771,-5.0017,-5.072,-5.1441,-5.2197,-5.301,-5.3247,-5.2638,-5.2942,-5.3179,-5.3179,-5.3179,-5.301,-5.2638,-5.2435,-5.1792,-5.0744,-5.0304,-4.983,-4.9323,-4.912,-4.8376,-4.709,-4.709,-4.6413,-4.5224,-4.4987,-4.4919,-4.4891,-4.4716,-4.4479,-4.4215,-4.3876,-4.3166,-4.2354,-4.3132,-4.3064,-4.2591,-4.2354,-4.1948,-4.1373,0.0,-5.4318,-5.3496,-5.2767,-5.2252,-5.1642,-5.0944,-5.1446,-5.1769,-5.1433,-5.2829,-5.3923,-5.4048,-5.4687,-5.5112,-5.513,-5.4294,-5.3549,-5.301,-5.2051,-5.1055,-5.0136,-4.9177,-4.8828,-4.9101,-4.8476,-4.8281,-4.8555,-4.8437,-4.8789,-4.9648,-4.9648,-5.0937,-5.3281,-5.3789,-5.4601,-5.5684,-5.6117,-5.5302,-5.3593,-5.2675,-5.1907,-5.1178,-5.0079,-5.0313,-5.1164,-5.1188,-5.2088,-5.3172,-5.2302,0.0,0.0,0.0,0.0,0.0,0.0,0.0,0.0,0.0,0.0,0.0,0.0,0.0,0.0,0.0,0.0,0.0,0.0,0.0,0.0,0.0,0.0,0.0,0.0,-4.8521,-4.9809,-5.1398,-5.1643,-5.2131,-5.3348,-5.3518,-5.3518,-5.3518,-5.3518,-5.3518,-5.3518,-5.3518,-5.3145,-5.2334,-5.2029,-5.1319,-5.0135,-4.9796,-4.9424,-4.9018,-4.8714,-4.797,-4.6786,-4.6481,-4.5737,-4.4615,-4.4615,-4.4615,-4.4615,-4.4615,-4.4412,-4.4079,-4.3944,-4.3098,-4.188,0.0,0.0,0.0,0.0,-4.1373,-4.0663,-5.5703,-5.5126,-5.4577,-5.4468,-5.3182,-5.2105,-5.1882,-5.1941,-5.1741,-5.0827,-5.2933,-5.4126,-5.3164,-5.4549,-5.5511,-5.5434,-5.478,-5.43,-5.4246,-5.2944,-5.1576,-5.0273,-5.0195,-4.9492,-4.793,-4.8476,-4.8047,-4.6601,-4.7266,-4.8086,-4.9062,-4.9141,-5.0976,-5.4141,-5.414,-5.4948,-5.6371,-5.6227,-5.535,-5.3979,-5.2931,-5.2044,-5.123,-5.0456,-5.1129,-5.2488,-5.2132,-5.2693,-5.3684,-5.3597,0.0,0.0,0.0,0.0,0.0,0.0,0.0,0.0,0.0,0.0,0.0,0.0,0.0,0.0,0.0,0.0,0.0,0.0,0.0,0.0,0.0,0.0,0.0,0.0,-4.9666,-5.0772,-5.2229,-5.2435,-5.2672,-5.3281,-5.345,-5.345,-5.3382,-5.345,-5.3518,-5.3518,-5.3416,-5.301,-5.2232,-5.1488,0.0,0.0,0.0,-4.9018,-4.9018,-4.8274,-4.753,-4.6786,-4.6041,-4.5297,-4.4615,-4.4615,-4.4615,-4.4615,-4.4615,-4.4181,-4.3606,-4.4215,-4.3166,-4.1204,-4.1102,-4.1068,-4.1068,-4.1068,-4.0663,-4.0113,-5.5703,-5.5549,-5.5176,-5.4204,-5.4012,-5.3398,-5.1667,-5.2286,-5.2395,-5.0904,-5.2933,-5.3895,-5.2308,-5.3703,-5.4434,-5.3741,-5.3549,-5.3252,-5.2764,-5.1836,-5.0995,-5.0234,-5.0195,-5.0039,-4.9687,-4.8476,-4.8047,-4.8398,-4.7851,-4.8398,-4.9961,-5.0625,-5.2383,-5.5039,-5.4942,-5.5393,-5.6222,-5.6025,-5.5142,-5.3773,-5.2603,-5.1797,-5.1324,-5.0794,-5.1229,-5.2134,-5.2399,-5.372,-5.5203,-5.3896,-5.4862,-5.6442,-5.5116,-5.4557,0.0,0.0,0.0,0.0,0.0,0.0,0.0,0.0,0.0,0.0,0.0,0.0,0.0,0.0,0.0,0.0,0.0,0.0,0.0,-5.0391,-5.1309,-5.2192,-5.3112,-5.3281,-5.3078,-5.2604,-5.3112,-5.3247,-5.2604,-5.3112,-5.3518,-5.3518,-5.2909,-5.2198,-5.1454,-5.071,-4.9965,-4.9255,-4.9086,-4.9018,-4.9018,-4.8274,-4.753,-4.6786,-4.6041,0.0,-4.4615,-4.4615,-4.4615,-4.4615,-4.4615,-4.4513,-4.4344,-4.3842,-4.2692,-4.1136,-4.0553,-4.0316,-4.0316,-4.0316,-4.0214,-4.0113,-5.5703,-5.5703,-5.5391,-5.4373,-5.4386,-5.4007,-5.2483,-5.2811,-5.2895,-5.2049,-5.3433,-5.4164,-5.3318,-5.4357,-5.4741,-5.3933,-5.3433,-5.3142,-5.2974,-5.2567,-5.2285,-5.2109,-5.2109,-5.168,-5.082,-5.0307,-4.9637,-4.8815,-4.8714,-4.9419,-5.0769,-5.1121,-5.273,-5.5273,-5.5168,-5.5521,-5.6181,-5.6008,-5.4955,-5.3462,-5.2832,-5.2244,-5.1583,-5.0729,-5.1055,-5.2107,-5.2916,-5.4426,-5.5903,-5.5078,-5.597,-5.7232,-5.6417,-5.6064,-5.5706,0.0,0.0,0.0,0.0,0.0,0.0,0.0,0.0,0.0,0.0,0.0,0.0,0.0,0.0,-4.9353,-4.904,0.0,-4.9569,-5.134,-5.2019,-5.257,-5.3382,-5.3518,-5.3348,-5.2942,-5.3281,-5.3348,-5.2942,-5.3281,-5.3518,-5.3518,-5.2739,-5.1995,-5.1251,-5.0507,-4.9763,-4.9018,-4.9018,-4.8815,-4.8477,-4.7733,-4.6989,-4.6244,-4.55,-4.4959,-4.4615,-4.4615,-4.4615,-4.4615,-4.4615,-4.435,-4.391,-4.2794,-4.188,-4.1136,-4.0383,-4.0113,-4.0113,-4.0113,-4.0113,-4.0113,-5.5703,-5.5703,-5.5511,-5.4857,-5.4741,-5.4395,-5.3356,-5.3356,-5.328,-5.2779,-5.3626,-5.4126,-5.378,-5.4626,-5.4934,-5.4318,-5.3433,-5.3202,-5.379,-5.3813,-5.3931,-5.4215,-5.4173,-5.3431,-5.1911,-5.2269,-5.1453,-4.9416,-4.9997,-5.0797,-5.1786,-5.2099,-5.3491,-5.5739,-5.5775,-5.6113,-5.664,-5.6178,-5.5113,-5.3648,-5.3267,-5.2656,-5.1891,-5.0953,-5.1366,-5.2613,-5.3608,-5.4813,-5.5963,-5.6106,-5.6718,-5.742,-5.7585,-5.7533,-5.7126,-5.528,-5.5037,0.0,0.0,0.0,0.0,0.0,0.0,0.0,0.0,-5.0854,-5.0447,-5.1045,-5.026,-4.9714,-5.0574,-5.0031,-5.0106,-5.2161,-5.2536,-5.2806,-5.3616,-5.3717,-5.3783,-5.3913,-5.3651,-5.345,-5.3281,-5.3416,-5.345,-5.3281,-5.2536,-5.1758,-5.1048,-5.0304,-4.9593,-4.9018,-4.9018,-4.8646,-4.7906,-4.7158,-4.6413,-4.5703,-4.4925,-4.4615,-4.4615,-4.4615,-4.4615,-4.4615,-4.4418,-4.4012,-4.3274,-4.1813,-4.1204,-4.1136,-4.0383,-4.0113,-4.0113,-4.0113,-4.0113,-4.0113,0.0,-5.5703,-5.5665,-5.5588,-5.5549,-5.5011,-5.3433,-5.3857,-5.3549,-5.1289,-5.2356,-5.2779,-5.1289,-5.251,-5.3433,-5.3356,-5.2538,-5.2781,-5.4491,-5.456,-5.4684,-5.4981,-5.4878,-5.4406,-5.3545,-5.2753,-5.2178,-5.1906,-5.1968,-5.2542,-5.3537,-5.5101,-5.6352,-5.737,-5.8022,-5.8266,-5.817,-5.6871,-5.5974,-5.5276,-5.3409,-5.2419,-5.2002,-5.2252,-5.3106,-5.4236,-5.4381,-5.4671,-5.5151,-5.5727,-5.6595,-5.7501,-5.8165,-5.8752,-5.8742,-5.628,-5.4608,-5.2935,-5.0288,-4.9806,-5.0479,-5.2473,-5.1905,-5.202,0.0,-5.4996,-5.3133,-5.4294,-5.367,-5.2786,-5.2472,-5.2118,-5.2226,-5.3211,-5.3382,-5.3615,-5.4356,-5.4482,-5.4695,-5.5379,-5.4296,-5.3213,-5.2503,-5.3078,-5.3213,-5.2503,-5.1758,-5.1014,-5.0236,-4.9526,-4.9086,-4.9018,-4.9018,-4.8646,-4.7906,-4.7158,-4.6413,-4.5703,-4.4925,-4.4615,-4.4615,-4.4615,-4.4615,-4.4581,-4.3842,-4.3477,-4.3274,-4.1813,-4.1204,-4.1136,-4.0383,-4.0113,-4.0113,-4.0113,-4.0113,-4.0113,0.0,-5.5011,-5.4857,-5.4318,-5.4664,-5.4434,-5.2692,-5.2731,-5.2779,-5.2241,-5.2318,-5.2356,-5.2164,-5.2318,-5.2856,-5.3857,-5.2702,-5.2887,-5.5241,-5.542,-5.5927,-5.7138,-5.7136,-5.6742,-5.5896,-5.541,-5.489,-5.4379,-5.4312,-5.4793,-5.5785,-5.6535,-5.7359,-5.8238,-5.8487,-5.8552,-5.8437,-5.7493,-5.6823,-5.6262,-5.4631,-5.3887,-5.3714,-5.3423,-5.3616,-5.4097,-5.4097,-5.4068,0.0,-5.4441,-5.5187,-5.6095,-5.6852,-5.7257,-5.7082,-5.5476,-5.4857,-5.4318,-5.2779,-5.201,-5.1856,-5.2933,-5.3395,-5.4216,-5.6463,-5.5448,-5.4455,-5.5827,-5.5301,-5.4547,-5.4264,-5.3774,-5.3568,-5.4058,-5.3783,-5.375,-5.4482,-5.4606,-5.4878,-5.5638,-5.5179,-5.4468,-5.3722,-5.3138,-5.2672,-5.2334,-5.1217,-5.0439,-5.0101,-4.939,-4.9018,-4.9018,-4.8578,-4.8003,-4.7259,-4.6549,-4.5771,-4.506,-4.475,-4.4615,-4.4615,-4.4615,-4.4615,-4.4547,-4.3301,-4.276,-4.2658,-4.117,-4.0561,-4.0553,-4.0214,-4.0113,-4.0113,-4.0113,-4.0113,-4.0113,0.0,-5.4318,-5.3933,-5.3318,-5.351,-5.3356,-5.2077,-5.1885,-5.2038,-5.2472,-5.1972,-5.1895,-5.2741,-5.2087,-5.2164,-5.3664,-5.2856,-5.3167,-5.535,-5.5947,-5.693,-5.859,-5.8627,-5.8309,-5.7729,-5.755,-5.7205,-5.6578,-5.6452,-5.6811,-5.7581,-5.7813,-5.832,-5.8972,-5.9118,-5.9097,-5.8883,-5.8102,-5.7472,-5.6978,-5.5809,-5.5211,-5.4932,-5.4383,-5.3883,-5.3493,-5.3721,-5.3332,-5.2746,-5.3108,-5.3657,-5.4288,-5.4921,-5.5469,-5.5634,-5.4236,-5.3715,-5.3472,-5.2895,-5.2433,-5.2318,-5.301,-5.4495,-5.5924,-5.6535,-5.6024,-5.579,-5.707,-5.6308,-5.5445,-5.5451,-5.4903,-5.4491,-5.4578,-5.4171,-5.4042,-5.4787,-5.4909,-5.5262,-5.6223,-5.6141,-5.5808,-5.5297,-5.3842,-5.2829,-5.2658,-5.1244,-5.0304,-5.0101,-4.939,-4.9018,-4.9018,-4.8277,-4.7564,-4.6786,-4.6075,-4.5331,-4.4615,-4.4615,-4.4615,-4.4615,-4.4615,-4.4615,-4.4513,-4.2963,-4.2286,-4.2185,-4.0722,-4.0113,-4.0113,-4.0113,-4.0113,-4.0113,-4.0113,-4.0113,-4.0113,0.0,0.0,-5.3241,-5.3203,-5.25,-5.1962,-5.1923,-5.1885,-5.1625,-5.0866,-5.075,-5.1048,-5.1846,-5.1202,-5.1048,-5.1923,-5.2692,-5.3549,-5.4483,-5.6071,-5.7418,-5.8471,-5.8364,-5.8353,-5.8471,-5.8353,-5.8253,-5.8215,-5.8204,-5.8305,-5.8471,-5.9332,-5.968,-5.971,-6.0532,-6.0597,-5.9965,-5.8716,-5.7917,-5.7411,-5.6591,-5.5752,-5.5007,-5.5049,-5.4051,-5.2755,-5.3531,-5.2581,-5.1111,-5.2014,-5.2372,-5.2414,-5.2564,-5.4108,-5.5426,-5.2903,-5.0336,-4.8317,-4.8317,-4.8894,-5.0125,-5.2587,-5.461,-5.6412,-5.807,-5.7871,-5.7559,-5.8448,-5.6867,-5.5437,-5.5821,-5.5444,-5.4979,-5.466,-5.4606,-5.4818,-5.5581,-5.5695,-5.6223,-5.775,-5.7302,-5.6861,-5.6835,-5.5437,-5.4229,-5.3502,-5.2036,-5.0845,-5.0135,-4.939,-4.9018,-4.9018,-4.8277,-4.7564,-4.6786,-4.6075,-4.5331,-4.4615,-4.4615,-4.4615,-4.4615,-4.4615,-4.4615,-4.4513,-4.2963,-4.2286,-4.2185,-4.0722,-4.0113,-4.0113,-4.0113,-4.0113,-4.0113,-4.0113,-4.0113,-4.0113,0.0,0.0,0.0,0.0,0.0,-5.1087,-5.1087,-5.1087,-5.1202,-5.1471,-5.201,0.0,0.0,0.0,0.0,0.0,-5.25,-5.2972,-5.4395,-5.6088,-5.7401,-5.8333,-5.9414,-6.025,-6.0888,-6.0299,-6.0242,-6.0819,-6.0819,-6.0839,-6.0927,-6.1737,-6.2122,-6.2111,-6.2392,-6.1939,-6.0889,-6.0177,-5.9432,-5.8595,-5.6911,-5.644,-5.6595,-5.5507,-5.4217,-5.3053,0.0,-5.2259,-5.0855,-5.1319,-5.1503,-5.1635,-5.2285,-5.2589,-5.2518,-5.1451,-5.0114,-4.9202,-5.0308,-5.1279,-5.2435,-5.4494,-5.5913,-5.7125,-5.8475,-5.8581,-5.8354,-5.8209,-5.7381,-5.6482,-5.5752,-5.5541,-5.5359,-5.4916,-5.4719,-5.4848,-5.561,-5.5291,-5.535,-5.6358,-5.625,-5.6313,-5.6861,-5.5072,-5.3563,-5.283,-5.135,-5.0135,-4.939,-4.912,-4.9018,-4.9018,-4.8277,-4.7564,-4.6786,-4.6458,-4.5733,-4.4615,-4.4615,-4.4615,-4.4615,-4.4615,-4.4615,-4.4513,-4.2963,-4.2286,-4.2185,-4.0722,-4.0113,-4.0113,-4.0113,-4.0113,-4.0113,-4.0113,-4.0113,-4.0113,0.0,0.0,0.0,0.0,0.0,0.0,0.0,0.0,0.0,0.0,0.0,0.0,0.0,0.0,0.0,0.0,0.0,-5.2385,-5.351,-5.5164,-5.6472,-5.7319,-5.8704,-5.9858,-6.0704,-6.0204,-6.0319,-6.1166,-6.1166,-6.132,-6.1639,-6.2166,-6.2397,-6.2385,-6.2235,-6.1597,-6.0653,-6.0375,-5.9641,-5.8557,-5.7261,-5.6711,-5.6505,-5.5008,-5.3721,0.0,-5.2395,-5.1625,-5.071,-5.0641,-5.0627,-5.0685,-5.1093,-5.093,-5.0564,-5.031,-5.0048,-5.024,-5.1933,-5.2779,-5.3609,-5.544,-5.6598,-5.747,-5.8308,-5.8514,-5.8421,-5.8007,-5.7169,-5.6308,-5.563,-5.549,-5.5174,-5.4274,-5.4056,-5.4169,-5.4755,-5.425,-5.4281,-5.5568,-5.5724,-5.5893,-5.6421,-5.4681,-5.3406,-5.3207,-5.1501,-5.0168,-4.9424,-4.9154,-4.9018,-4.9018,-4.8037,-4.7378,-4.7096,-4.6535,-4.5874,-4.5214,-4.5008,-4.4934,-4.4906,-4.4692,-4.4445,-4.4079,-4.2828,-4.2151,-4.1813,-4.062,-4.0113,-4.0113,-4.0113,-4.0113,-4.0113,-4.0113,-4.0113,-4.0113,0.0,0.0,0.0,0.0,0.0,0.0,0.0,0.0,0.0,0.0,0.0,0.0,0.0,0.0,0.0,0.0,0.0,0.0,-5.1846,-5.351,0.0,-5.5588,-5.656,-5.7473,-5.8357,-5.8319,-5.8704,-5.9511,-5.9511,-5.9935,-6.0742,-6.0781,-6.0781,-6.0769,-6.0338,-5.9832,-5.9386,-5.9386,-5.8576,-5.7358,-5.7437,-5.6453,-5.4867,-5.37,-5.2741,-5.1885,-5.1164,-5.0827,-5.0663,-5.013,-4.9975,-4.9917,-4.9332,-4.9482,-4.9859,-4.9646,-5.0164,-5.1164,-5.2818,-5.329,-5.3745,-5.5496,-5.6634,-5.7415,-5.759,-5.7762,-5.7851,-5.7773,-5.6233,-5.4986,-5.5296,-5.5138,-5.4504,-5.2954,-5.294,-5.3217,-5.3414,-5.2886,-5.327,-5.5347,-5.5574,-5.5539,-5.5596,-5.4231,-5.3659,-5.4358,-5.2364,-5.0845,-5.0067,-4.9357,-4.8951,-4.9018,-4.7564,-4.7101,-4.7699,-4.6256,-4.584,-4.6436,-4.579,-4.5494,-4.5468,-4.4845,-4.4113,-4.3341,-4.2591,-4.1847,-4.1136,-4.0417,-4.0113,-4.0113,-4.0113,-4.0113,-4.0113,-4.0113,-4.0113,-4.0113,0.0,0.0,0.0,0.0,0.0,0.0,0.0,0.0,0.0,0.0,0.0,0.0,0.0,0.0,0.0,0.0,0.0,0.0,-5.1048,0.0,0.0,0.0,0.0,0.0,0.0,0.0,0.0,-5.9511,-5.9511,-5.9627,-5.9858,-6.0512,-6.0781,-6.0781,-6.0659,-6.0007,-5.895,-5.895,-5.8038,-5.6543,0.0,-5.5237,-5.4594,0.0,-5.3626,0.0,-5.3356,-5.2702,-5.1587,-5.1656,-5.222,-5.2888,-5.2517,-5.2074,-5.1742,-5.2115,-5.2395,-5.2818,-5.3895,-5.4699,-5.5349,-5.5974,-5.6398,-5.6695,-5.6866,-5.7421,-5.7539,-5.6211,-5.5416,-5.4523,-5.3341,-5.4149,-5.4757,-5.4003,-5.5291,-5.6079,-5.5218,-5.4495,-5.4067,-5.4072,-5.3528,-5.3369,-5.4012,-5.2654,-5.1878,-5.212,-5.1028,-5.0067,-4.9323,-4.8578,-4.8443,-4.8984,-4.7564,-4.7101,-4.7699,-4.6685,-4.6519,-4.711,-4.6014,-4.5494,-4.5468,-4.4238,-4.3578,-4.3308,-4.2049,-4.1373,-4.1136,-4.0417,-4.0113,-4.0113,-4.0113,-4.0113,-4.0113,-4.0113,-4.0113,-4.0113,0.0,0.0,0.0,0.0,0.0,0.0,0.0,0.0,0.0,0.0,0.0,0.0,0.0,0.0,0.0,0.0,0.0,0.0,0.0,-5.3126,0.0,0.0,0.0,0.0,0.0,0.0,0.0,0.0,0.0,0.0,-5.8973,-5.9473,-5.9704,-5.9692,-5.9484,-5.8985,-5.8258,-5.8258,0.0,0.0,0.0,0.0,0.0,0.0,0.0,0.0,0.0,0.0,0.0,-5.4402,-5.4588,-5.453,-5.4303,-5.4184,-5.4061,-5.3917,-5.4128,-5.4466,-5.4564,-5.5243,-5.5877,-5.576,-5.6042,-5.6211,-5.5585,-5.6133,-5.625,-5.4531,-5.393,-5.3444,-5.2466,-5.3644,-5.4511,-5.3675,-5.5154,-5.614,-5.5541,-5.412,-5.3241,-5.3462,-5.2495,-5.1987,-5.2429,-5.1437,-5.0762,-5.0776,-5.0348,-4.9763,-4.9052,-4.8308,-4.8075,-4.8511,-4.709,-4.6589,-4.7133,-4.7581,-4.781,-4.7777,-4.6897,-4.609,-4.5366,-4.3997,-4.3037,-4.2388,-4.1576,-4.1035,-4.0696,-4.0282,-4.0113,-4.0113,-4.0113,-4.0113,-4.0113,-4.0113,-4.0113,-4.0113,0.0,0.0,0.0,0.0,0.0,0.0,0.0,0.0,0.0,0.0,-5.1702,-5.2077,0.0,0.0,0.0,0.0,0.0,0.0,0.0,0.0,0.0,0.0,0.0,0.0,0.0,-5.6445,-5.683,-5.683,-5.7588,0.0,0.0,0.0,0.0,0.0,0.0,0.0,0.0,0.0,0.0,0.0,0.0,0.0,0.0,0.0,0.0,0.0,0.0,0.0,0.0,0.0,-5.6815,-5.5937,-5.5835,-5.6287,-5.6647,-5.5404,-5.5574,-5.5986,-5.5141,-5.5428,-5.5845,-5.5376,-5.585,-5.6027,-5.453,-5.4765,-5.4805,-5.3047,-5.2491,-5.2324,-5.231,-5.3507,-5.4199,-5.3251,-5.4311,-5.5304,-5.5499,-5.3427,-5.2294,-5.347,-5.2221,-5.1208,-5.1208,-5.0435,-4.9932,-4.9932,-4.9864,-4.9526,-4.8883,-4.8173,-4.7733,-4.7601,-4.652,-4.6148,-4.6542,-4.8478,-4.904,-4.8287,-4.7779,-4.6708,-4.5244,-4.3872,-4.2502,-4.1204,-4.1102,-4.0696,-4.0113,-4.0113,-4.0113,-4.0113,-4.0113,-4.0113,-4.0113,-4.0113,-4.0113,-4.0113,0.0,0.0,0.0,0.0,0.0,0.0,0.0,0.0,0.0,0.0,-5.3356,-5.2972,0.0,0.0,0.0,0.0,0.0,0.0,0.0,0.0,0.0,0.0,0.0,0.0,-5.5703,-5.5857,-5.5934,-5.5934,-5.6088,-5.6165,0.0,0.0,0.0,0.0,0.0,0.0,0.0,0.0,0.0,0.0,0.0,0.0,0.0,0.0,0.0,0.0,0.0,0.0,0.0,0.0,-5.8418,-5.9491,-5.9345,-5.9405,-5.9189,-5.7463,-5.7025,-5.6981,-5.6152,-5.612,-5.6276,-5.6188,-5.6387,-5.6288,-5.5312,-5.5195,-5.4805,-5.3047,-5.256,-5.2412,-5.2315,-5.361,-5.4882,-5.5543,-5.6715,-5.7454,-5.7214,-5.5873,-5.4794,-5.4388,-5.248,-5.1183,-5.1183,-4.9994,-4.9187,-4.9187,-4.8646,-4.824,-4.8075,-4.7394,-4.6718,-4.6109,-4.6864,-4.7311,-4.7391,-4.8146,-4.8453,-4.8287,-4.7047,-4.606,-4.5232,-4.3238,-4.1918,-4.117,-4.0561,-4.0214,-4.0113,-4.0113,-4.0113,-4.0113,-4.0113,-4.0113,-4.0113,-4.0113,-4.0113,-4.0113,0.0,0.0,0.0,0.0,0.0,0.0,0.0,-5.3241,-5.4049,-5.6203,-5.6472,-5.5972,-5.4664,-5.4511,-5.4511,0.0,0.0,0.0,0.0,0.0,0.0,0.0,0.0,0.0,0.0,-5.6126,-5.6126,-5.5703,0.0,-5.6126,-5.5703,-5.5703,-5.5703,-5.5692,-5.5262,-5.53,-5.5692,-5.5262,-5.5121,-5.5126,-5.5126,-5.4857,0.0,0.0,0.0,0.0,0.0,0.0,0.0,0.0,-5.928,-6.0898,-6.0975,-6.0652,-6.002,-5.8584,-5.7892,-5.7268,-5.5974,-5.601,-5.6321,-5.592,-5.5895,-5.5469,-5.3672,-5.3633,-5.332,-5.1172,-5.1315,-5.1818,-5.1732,-5.3413,-5.4955,-5.5409,-5.6869,-5.7939,-5.7882,-5.611,-5.4737,-5.4568,-5.22,-5.0558,-5.0558,-4.9611,-4.8849,-4.8477,-4.8075,-4.7906,-4.7906,-4.6853,-4.6075,-4.5703,-4.6951,-4.7829,-4.8218,-4.9147,-4.9407,-4.8967,-4.7949,-4.6707,-4.5232,-4.3511,-4.2171,-4.117,-4.0417,-4.0113,-4.0113,-4.0113,-4.0113,-4.0113,-4.0113,-4.0113,-4.0113,-4.0113,-4.0113,-4.0113,0.0,0.0,0.0,0.0,0.0,0.0,-5.4241,-5.4664,-5.5742,-5.8473,-5.9396,-5.9011,-5.7011,-5.6049,-5.5665,0.0,0.0,0.0,0.0,0.0,0.0,0.0,0.0,0.0,0.0,0.0,0.0,-5.5972,-5.6868,0.0,0.0,0.0,0.0,0.0,-5.5262,-5.5237,-5.5682,-5.5186,-5.5237,0.0,0.0,-5.5972,0.0,0.0,0.0,0.0,0.0,0.0,0.0,0.0,-5.9357,-6.0456,-6.071,-6.0737,-6.0351,-5.8818,-5.8061,-5.7389,-5.5825,-5.5903,-5.6304,-5.5702,-5.5586,-5.4922,-5.25,-5.25,-5.2305,-4.9922,-5.0382,-5.1295,-5.1438,-5.321,-5.4741,-5.4953,-5.6416,-5.7684,-5.822,-5.5921,-5.4384,-5.4888,-5.2294,-5.039,-5.0223,-4.9639,-4.8863,-4.797,-4.7601,-4.7432,-4.7432,-4.6177,-4.5534,-4.5703,-4.6977,-4.8055,-4.881,-5.0127,-5.0398,-4.961,-4.8873,-4.7413,-4.5232,-4.3886,-4.2492,-4.117,-4.0417,-4.0113,-4.0113,-4.0113,-4.018,-4.0316,-4.018,-4.0214,-4.0316,-4.018,-4.0113,-4.0113,0.0,0.0,0.0,0.0,0.0,0.0,-5.4241,-5.5126,-5.678,-6.0127,-6.0627,-6.0589,-6.0358,-5.955,-5.8473,0.0,0.0,0.0,0.0,0.0,0.0,0.0,0.0,0.0,0.0,0.0,0.0,-5.6868,-5.7742,0.0,0.0,0.0,0.0,0.0,0.0,-5.496,-5.5632,-5.4876,0.0,0.0,0.0,0.0,0.0,0.0,0.0,0.0,0.0,-5.7726,-5.7289,0.0,-5.8086,-5.7606,-5.7803,-5.951,-6.0773,-5.7586,-5.7221,-5.7656,-5.6718,-5.6523,-5.6562,-5.6484,-5.6484,-5.6015,-5.418,-5.3828,-5.3359,-5.1523,-5.1289,-5.1597,-5.226,-5.3217,-5.4355,-5.5753,-5.6343,-5.7147,-5.8702,-5.6603,-5.5227,-5.6045,-5.3638,-5.1667,-5.106,-5.0335,-4.9354,-4.8,-4.6684,-4.5906,-4.5906,-4.5128,-4.4993,-4.5703,-4.6977,-4.8055,-4.881,-5.0127,-5.0398,-4.961,-4.8744,-4.7254,-4.5255,-4.3722,-4.237,-4.117,-4.0417,-4.0113,-4.0113,-4.0113,-4.0493,-4.1035,-4.0383,-4.0493,-4.1035,-4.035,-4.0113,-4.0113,0.0,0.0,0.0,0.0,0.0,0.0,-5.5665,-5.5818,-5.728,-6.1743,-6.1897,-6.1973,-6.2974,-6.232,-6.0704,-5.8011,0.0,0.0,0.0,0.0,0.0,0.0,0.0,0.0,0.0,0.0,-5.6983,-5.6983,-5.7857,0.0,0.0,0.0,0.0,0.0,0.0,-5.526,-5.5287,-5.4731,0.0,0.0,0.0,0.0,0.0,0.0,0.0,0.0,0.0,0.0,-5.7764,-5.7649,-5.7381,-5.6937,-5.6003,-5.6798,0.0,-5.6725,-5.669,-5.6942,-5.6679,-5.6992,-5.7265,-5.6719,-5.582,-5.4726,-5.3516,-5.2812,-5.2109,-5.0937,-5.1055,-5.164,-5.2454,-5.2881,-5.3648,-5.5255,-5.5513,-5.5827,-5.6599,-5.5113,-5.4156,-5.4746,-5.2782,-5.1311,-5.1128,-5.0823,-5.0048,-4.8598,-4.7127,-4.611,-4.5732,-4.4993,-4.532,-4.6893,-4.7898,-4.9197,-5.0785,-5.0809,-5.0655,-5.0288,-4.8967,-4.7493,-4.5917,-4.4865,-4.3463,-4.1847,-4.1542,-4.0925,-4.018,-4.106,-4.1339,-4.117,-4.0865,-4.0933,-4.1102,-4.0383,-4.0113,-4.0113,0.0,0.0,0.0,0.0,0.0,-5.3587,-5.5923,-5.6395,-5.7934,-6.205,-6.2512,-6.3012,-6.4436,-6.3628,-6.2089,-5.9973,-5.8511,0.0,0.0,0.0,0.0,0.0,0.0,0.0,0.0,0.0,-5.7742,-5.7742,-5.8627,-5.905,0.0,0.0,-5.7826,-5.6709,0.0,0.0,0.0,0.0,0.0,0.0,0.0,0.0,0.0,0.0,0.0,0.0,0.0,0.0,0.0,0.0,0.0,0.0,0.0,0.0,0.0,0.0,-5.5939,-5.6098,-5.6437,-5.703,-5.7383,-5.6758,-5.5469,-5.4141,-5.3281,-5.2422,-5.1562,-5.0703,-5.1016,-5.1601,-5.2187,-5.2539,-5.3162,-5.4548,-5.4872,-5.5069,-5.5466,-5.4302,-5.3482,-5.3599,-5.2069,-5.1017,-5.1041,-5.086,-5.0259,-4.9007,-4.7523,-4.6477,-4.6004,-4.5275,-4.5725,-4.7426,-4.8367,-4.971,-5.1391,-5.0988,-5.0692,-5.0435,-4.926,-4.7975,-4.6669,-4.5931,-4.4507,-4.2594,-4.2594,-4.175,-4.0519,-4.1779,-4.1982,-4.1508,-4.1305,-4.1204,-4.1102,-4.0383,-4.0113,-4.0113,0.0,0.0,0.0,0.0,0.0,-5.25,-5.4241,-5.6665,-5.8896,-6.0589,-6.2243,-6.3628,-6.4512,-6.3089,-6.2397,-6.3166,-6.0935,0.0,0.0,0.0,0.0,0.0,0.0,0.0,0.0,0.0,-5.9473,-5.9473,-6.0358,-6.0781,-6.0742,-5.9431,-5.8349,-5.7548,0.0,0.0,0.0,0.0,0.0,0.0,0.0,0.0,-6.0781,0.0,0.0,0.0,0.0,0.0,0.0,0.0,0.0,0.0,0.0,-5.4511,-5.4534,0.0,-5.4913,-5.5306,-5.6157,-5.651,-5.6601,-5.6601,-5.5937,-5.5078,-5.418,-5.332,-5.2422,-5.1562,-5.1406,-5.1406,-5.1406,-5.2109,-5.3008,-5.3867,-5.463,-5.5344,-5.609,-5.4907,-5.379,-5.3271,-5.2081,-5.1191,-5.0941,-5.0352,-4.9696,-4.8972,-4.7523,-4.6655,-4.6576,-4.6032,-4.6004,-4.669,-4.8061,-4.9126,-4.9812,-5.0462,-5.0398,-4.961,-4.961,-4.8819,-4.7349,-4.6633,-4.5205,-4.3291,-4.3291,-4.248,-4.1238,-4.1982,-4.2286,-4.2219,-4.1508,-4.1204,-4.1102,-4.0383,-4.0113,-4.0113,0.0,0.0,0.0,0.0,0.0,0.0,-5.5049,-5.6011,-5.755,-6.0435,-6.0742,-6.1704,-6.432,-6.3089,-6.2397,-6.3243,-6.0973,0.0,0.0,0.0,0.0,0.0,0.0,0.0,0.0,-5.9088,-5.9511,-5.9511,-6.0358,-6.0781,-6.0781,-6.0056,-5.9094,-5.798,-5.6965,-5.6134,0.0,0.0,0.0,0.0,0.0,-5.9319,-6.0781,0.0,0.0,0.0,0.0,0.0,0.0,0.0,0.0,0.0,0.0,0.0,0.0,-5.52,-5.511,-5.4814,-5.4651,-5.5083,-5.5454,-5.496,-5.418,-5.3437,-5.3164,-5.2422,-5.1719,-5.1445,-5.1406,-5.1562,-5.2187,-5.2031,-5.25,-5.4531,-5.4512,-5.4252,-5.4392,-5.4227,-5.3621,-5.2447,-5.1638,-5.1285,-5.1656,-5.1137,-5.0444,-4.9708,-4.9205,-4.8723,-4.8189,-4.8003,-4.8162,-4.8817,-4.8815,-4.9627,-5.1286,-5.0428,-4.9867,-4.961,-4.9003,-4.8011,-4.6692,-4.6466,-4.5291,-4.3413,-4.3958,-4.3042,-4.1305,-4.2557,-4.2455,-4.1542,-4.1305,-4.1204,-4.1102,-4.0383,-4.0113,-4.0113,0.0,0.0,0.0,0.0,0.0,0.0,-5.5049,-5.578,-5.6934,-5.9088,-5.9435,-6.055,-6.3358,-6.2435,-6.205,-6.3192,-6.1589,0.0,0.0,0.0,0.0,0.0,0.0,0.0,-5.9242,-5.9742,-6.0165,-6.0473,-6.132,-6.1743,-6.1731,-6.11,-6.0149,-5.8878,-5.7494,-5.6549,0.0,0.0,0.0,0.0,-5.8627,-5.9396,-6.0319,0.0,0.0,0.0,0.0,0.0,0.0,0.0,0.0,0.0,0.0,0.0,0.0,0.0,-5.495,-5.4622,-5.4591,-5.4826,-5.4999,-5.4518,-5.3787,-5.3203,-5.3203,-5.2539,-5.1875,-5.1875,-5.1641,-5.1562,-5.2109,-5.1758,-5.2148,-5.4453,-5.4289,-5.3938,-5.4086,-5.4283,-5.3792,-5.2151,-5.1373,-5.1167,-5.1584,-5.1537,-5.1086,-5.009,-4.9746,-4.9372,-4.8845,-4.8576,-4.886,-4.9676,-4.9336,-4.9748,-5.1059,-4.9774,-4.8967,-4.8636,-4.8416,-4.7733,-4.6679,-4.6744,-4.5775,-4.413,-4.4418,-4.3401,0.0,-4.2625,-4.2286,-4.1204,-4.1204,-4.1155,-4.1041,-4.0563,-4.0563,-4.0744,0.0,0.0,0.0,0.0,0.0,0.0,0.0,-5.5829,-5.683,-5.6907,-5.8357,-6.005,-6.1716,-6.1243,-6.1435,-6.3012,-6.2512,0.0,0.0,0.0,0.0,0.0,0.0,0.0,-6.0781,-6.0781,-6.1204,-6.2024,-6.2743,-6.3128,-6.3103,-6.2221,-6.1224,-6.0094,-5.7943,-5.6739,0.0,0.0,0.0,-5.8357,-5.9127,-5.9435,0.0,0.0,0.0,0.0,0.0,0.0,0.0,0.0,0.0,0.0,0.0,0.0,0.0,0.0,0.0,0.0,0.0,-5.5469,-5.5015,-5.502,-5.4439,-5.3906,-5.3906,-5.3242,0.0,-5.2617,-5.1953,-5.1406,-5.1484,-5.1445,-5.1953,-5.3711,-5.3984,-5.4207,-5.4718,-5.4725,-5.4017,-5.2224,-5.125,-5.0733,-5.0718,-5.1512,-5.1422,-5.0033,-4.9333,-4.8896,-4.8791,-4.8155,-4.8357,-4.9551,-4.9661,-4.9676,-4.961,-4.8673,-4.7846,-4.7113,-4.7773,-4.7681,-4.6889,-4.7104,-4.6404,-4.5058,-4.4495,-4.346,-4.2219,-4.2219,-4.1805,-4.118,-4.118,-4.1106,-4.0955,-4.0955,-4.1318,-4.181,0.0,0.0,0.0,0.0,0.0,0.0,0.0,0.0,0.0,0.0,-5.7511,-5.8973,-6.0012,-6.0512,-6.0973,0.0,0.0,0.0,0.0,0.0,0.0,0.0,0.0,0.0,-6.0781,-6.0781,-6.0896,-6.1089,-6.1281,-6.1396,-6.1346,-6.0814,-6.0372,-6.0041,-5.8234,-5.684,0.0,0.0,-5.7511,-5.8319,-5.8511,-5.8934,0.0,0.0,0.0,0.0,-5.6983,-5.6445,0.0,0.0,0.0,0.0,0.0,0.0,0.0,0.0,-5.5434,-5.5497,-5.5818,0.0,-5.4,-5.4069,-5.3541,-5.3008,0.0,-5.2344,0.0,0.0,0.0,0.0,-5.2266,-5.1836,-5.1953,-5.3711,-5.3984,-5.3973,-5.3896,-5.3186,-5.2498,-5.2046,-5.0802,-4.9771,-4.9279,-5.0402,-5.0642,-4.9308,-4.9562,-4.9729,-4.9619,-4.8927,-4.8865,-4.9571,-4.9618,-4.9618,-4.961,-4.8122,-4.7296,-4.7076,-4.6691,-4.587,-4.4793,-4.484,-4.4202,-4.3014,-4.2867,-4.2275,-4.1474,-4.1474,-4.1273,-4.0961,-4.0961,-4.1221,-4.1617,-4.1617,-4.1703,-4.181,0.0,0.0,0.0,0.0,0.0,0.0,0.0,0.0,0.0,0.0,-5.6973,-5.8473,-5.8896,-6.005,-6.0781,0.0,0.0,0.0,0.0,0.0,0.0,0.0,0.0,-6.0781,-6.0781,-6.0781,-6.1012,-6.1408,-6.1781,-6.1935,-6.1923,-6.1472,-6.1158,-6.0941,-5.9243,-5.7887,-5.6934,-5.778,-5.8434,-5.8858,-5.8858,0.0,0.0,0.0,0.0,0.0,-5.6406,-5.6088,0.0,-5.5703,-5.5703,-5.5703,0.0,0.0,0.0,0.0,-5.5164,-5.5073,-5.4813,-5.4472,-5.4232,-5.4375,-5.3853,-5.3281,-5.3281,0.0,0.0,0.0,0.0,0.0,0.0,-5.2031,-5.2305,-5.3242,-5.4019,-5.4406,-5.4152,-5.2253,-5.1171,-5.1911,-5.0269,-4.8959,-4.8788,-4.9698,-4.9714,-4.8116,-4.8592,-4.8924,-4.8876,-4.8477,-4.8468,-4.8984,-4.9003,-4.9003,-4.9003,-4.7736,-4.7113,-4.7076,-4.6372,-4.5522,-4.4564,-4.4341,-4.3725,-4.2715,-4.2072,-4.1576,-4.123,-4.1528,-4.1336,-4.0943,-4.1613,-4.2008,-4.2221,-4.2221,-4.2382,-4.2563,0.0,0.0,0.0,0.0,0.0,0.0,0.0,0.0,0.0,0.0,0.0,0.0,0.0,0.0,0.0,0.0,0.0,0.0,0.0,0.0,0.0,0.0,-6.0781,-6.0781,-6.0781,-6.0781,-6.1089,-6.1716,-6.2666,-6.2974,-6.2731,-6.2599,-6.2243,-6.1639,-6.0165,-5.905,-5.8357,-5.9165,-5.9511,-5.9473,-5.9358,0.0,0.0,0.0,0.0,0.0,0.0,0.0,0.0,-5.5703,-5.5703,-5.5703,-5.5703,0.0,0.0,0.0,0.0,0.0,-5.3731,-5.4336,-5.505,-5.4924,-5.4439,-5.3984,-5.3828,0.0,0.0,0.0,0.0,0.0,0.0,-5.2187,-5.2578,-5.2812,-5.3988,-5.4844,-5.4893,-5.2058,-5.043,-5.1684,-4.9743,-4.8384,-4.8556,-4.9251,-4.896,-4.7238,-4.7541,-4.7821,-4.776,-4.7606,-4.7747,-4.8121,-4.8233,-4.8196,-4.7939,-4.7259,-4.6856,-4.6746,-4.6085,-4.5369,-4.4577,-4.419,-4.3627,-4.2911,-4.1622,-4.1154,-4.1376,-4.1802,-4.1685,-4.1298,-4.2497,-4.2915,-4.2808,-4.2808,-4.3124,-4.3515,0.0,0.0,0.0,0.0,0.0,0.0,0.0,0.0,0.0,0.0,0.0,0.0,0.0,0.0,0.0,0.0,0.0,0.0,0.0,0.0,0.0,-6.0819,-6.0781,-6.0781,-6.0781,-6.0781,-6.0512,-5.9896,-6.1512,-6.1512,-6.0127,-6.1502,-6.1361,-5.9896,-5.9627,-5.905,-5.8357,-5.9165,-5.9511,-5.9435,-5.8781,0.0,0.0,0.0,0.0,0.0,0.0,0.0,0.0,-5.5703,-5.5703,-5.5703,-5.5703,0.0,0.0,0.0,0.0,0.0,-5.4453,-5.533,-5.5687,-5.4339,-5.4009,-5.3828,-5.3086,-5.2226,0.0,0.0,0.0,0.0,0.0,-5.25,-5.2069,-5.3412,-5.3648,-5.4125,-5.5505,-5.3374,-5.145,-5.1034,-4.9388,-4.8088,-4.7579,-4.8795,-4.9278,-4.8463,-4.8449,-4.8416,-4.8376,-4.7773,-4.7409,-4.7277,-4.792,-4.7645,-4.6287,-4.614,-4.5736,-4.5058,-4.4271,-4.3355,-4.2313,-4.2228,-4.1963,-4.146,-4.0612,-4.0923,-4.193,-4.1324,-4.1635,-4.2458,-4.2645,-4.2992,-4.3356,-4.3356,-4.3445,-4.3515,0.0,0.0,0.0,0.0,0.0,0.0,0.0,0.0,0.0,0.0,0.0,0.0,0.0,0.0,0.0,0.0,0.0,0.0,0.0,0.0,-6.1012,-6.1485,-6.105,-6.0781,-6.0781,-6.0781,-6.0685,-6.048,-6.1991,-6.2221,-6.1182,-6.1811,-6.1396,-6.0204,-6.0204,-6.0012,-5.9665,-6.005,-6.0204,-6.0127,0.0,0.0,0.0,0.0,0.0,0.0,0.0,0.0,0.0,0.0,-5.5703,-5.5703,-5.5703,0.0,0.0,0.0,0.0,0.0,-5.2768,-5.3473,-5.3953,-5.3331,-5.4258,-5.5062,-5.4202,-5.2893,-5.1901,0.0,0.0,0.0,-5.3046,-5.3398,-5.4017,-5.5489,-5.4439,-5.363,-5.4321,-5.2453,-5.0754,-5.0165,-4.8845,-4.7813,-4.7377,-4.798,-4.815,-4.7499,-4.7452,-4.7537,-4.7883,-4.7601,-4.7493,-4.7736,-4.77,-4.7095,-4.592,-4.548,-4.5296,-4.5333,-4.4199,-4.3248,-4.2434,-4.2118,-4.1449,-4.0587,-4.0554,-4.0879,-4.1522,-4.2238,-4.2578,-4.2749,-4.3504,-4.367,-4.3515,-4.3515,-4.3515,-4.3515,0.0,0.0,0.0,0.0,0.0,0.0,0.0,0.0,0.0,0.0,0.0,0.0,0.0,0.0,0.0,0.0,0.0,0.0,0.0,-6.0704,-6.1089,-6.1793,-6.1166,-6.0896,-6.1089,-6.1089,-6.1071,-6.1012,-6.2758,-6.3335,-6.2739,-6.2311,-6.1639,-6.0781,-6.0781,-6.0781,-6.0781,-6.0781,-6.0666,-6.0435,0.0,0.0,0.0,0.0,0.0,0.0,0.0,0.0,0.0,0.0,0.0,0.0,0.0,0.0,0.0,-5.3164,-5.2279,-5.1577,-5.1402,-5.1994,-5.2637,-5.269,-5.4132,-5.5394,-5.4909,-5.3525,-5.2429,-5.2714,-5.2239,-5.2034,-5.2806,-5.406,-5.5293,-5.6349,-5.4776,-5.3404,-5.3512,-5.171,-5.0177,-4.9599,-4.8443,-4.7529,-4.7098,-4.7032,-4.6865,-4.6315,-4.6271,-4.6599,-4.7301,-4.7322,-4.7563,-4.7993,-4.7406,-4.6599,-4.5626,-4.5002,-4.4929,-4.5333,-4.4233,-4.346,-4.291,-4.2309,-4.1566,-4.0754,-4.0849,-4.1151,-4.17,-4.3059,-4.3312,-4.2975,-4.4016,-4.4048,-4.3515,-4.3515,-4.3515,-4.3515,0.0,0.0,0.0,0.0,0.0,0.0,0.0,0.0,0.0,0.0,0.0,0.0,0.0,0.0,0.0,0.0,0.0,0.0,0.0,-6.0358,-6.0819,-6.0896,-6.0819,-6.1166,-6.1985,-6.2024,-6.139,-6.0097,-6.3065,-6.4077,-6.3245,-6.2462,-6.1639,-6.0781,-6.0781,-6.0781,-6.0781,-6.0781,-6.0319,-5.9511,-5.8704,0.0,0.0,0.0,0.0,0.0,0.0,0.0,0.0,0.0,0.0,0.0,0.0,0.0,-5.3126,-5.2231,-5.1433,-5.1017,-5.1958,-5.2855,-5.3381,-5.2846,-5.2812,-5.3122,-5.3745,-5.3181,-5.2685,-5.3371,-5.3557,-5.3654,-5.3699,-5.3823,-5.3919,-5.3867,-5.3605,-5.3652,-5.4321,-5.2541,-5.0812,-4.9731,-4.8474,-4.7242,-4.6104,-4.6012,-4.5993,-4.592,-4.5956,-4.6268,-4.7093,-4.7129,-4.7148,-4.7186,-4.7113,-4.6342,-4.4819,-4.4728,-4.4342,-4.3644,-4.3573,-4.3233,-4.2688,-4.2107,-4.2127,-4.2626,-4.1429,-4.1939,-4.3544,-4.3015,-4.305,-4.3463,-4.3571,-4.3551,-4.3515,-4.3515,-4.3515,-4.3515,0.0,0.0,0.0,0.0,0.0,0.0,0.0,0.0,0.0,0.0,0.0,0.0,0.0,0.0,0.0,0.0,0.0,0.0,0.0,-6.0319,-6.105,-6.1601,-6.1089,-6.1204,-6.2101,-6.2589,-6.2682,-6.2361,-6.3518,-6.4099,-6.4089,-6.2743,-6.1639,-6.0781,-6.0242,-5.9973,-5.9973,-5.9473,-5.905,-5.8742,-5.8434,-5.785,0.0,0.0,0.0,0.0,0.0,0.0,0.0,0.0,-5.4703,-5.4895,-5.4587,-5.3895,-5.3049,-5.2154,-5.1318,-5.0815,-5.1408,-5.1799,-5.2169,-5.2573,-5.2305,-5.2224,-5.3513,-5.3497,-5.3303,-5.3639,-5.3754,-5.3828,-5.3895,-5.3772,-5.3641,-5.3623,-5.3429,-5.3167,-5.2905,-5.1736,-5.0382,-4.895,-4.7895,-4.6919,-4.5993,-4.5567,-4.551,-4.5865,-4.5548,-4.5656,-4.6342,-4.6819,-4.6856,-4.6361,-4.6361,-4.581,-4.4709,-4.4195,-4.3791,-4.3515,-4.3515,-4.3214,-4.2674,-4.2442,-4.2302,-4.22,-4.21,-4.2461,-4.3126,-4.3178,-4.3303,-4.3515,-4.3515,-4.3515,-4.3515,-4.3515,-4.3515,-4.3515,0.0,0.0,0.0,0.0,0.0,0.0,0.0,0.0,0.0,0.0,0.0,0.0,0.0,0.0,0.0,0.0,0.0,0.0,-5.9511,-6.0319,-6.105,-6.1678,-6.1127,-6.1204,-6.2101,-6.2897,-6.3334,-6.3406,-6.3672,-6.3824,-6.3846,-6.269,-6.1698,-6.0811,-5.9963,-5.9567,-5.9528,-5.8718,-5.8229,-5.8027,-5.8027,-5.7547,0.0,0.0,0.0,0.0,0.0,0.0,0.0,0.0,-5.3857,-5.4049,-5.378,-5.328,-5.2626,-5.1779,-5.1125,-5.0776,-5.1014,-5.1089,-5.123,-5.1752,0.0,-5.1679,-5.2793,-5.3358,-5.3766,-5.4075,-5.3757,-5.3524,-5.3905,-5.3355,-5.2927,-5.3161,-5.2802,-5.2261,-5.1597,-5.0587,-4.9311,-4.7846,-4.7057,-4.6269,-4.5409,-4.4821,-4.4707,-4.5095,-4.4745,-4.4816,-4.5498,-4.6049,-4.6195,-4.592,-4.5663,-4.5259,-4.4709,-4.3901,-4.3515,-4.3515,-4.3515,-4.3303,-4.2957,-4.277,-4.2596,-4.2346,-4.258,-4.2789,-4.2995,-4.3339,-4.3515,-4.3515,-4.3515,-4.3515,-4.3515,-4.3515,-4.3515,-4.3515,0.0,0.0,0.0,0.0,0.0,0.0,0.0,0.0,0.0,0.0,-6.0781,0.0,0.0,0.0,0.0,0.0,0.0,0.0,-5.9511,-6.0319,-6.0781,-6.0781,-6.0781,-6.1204,-6.2062,-6.2897,-6.3065,-6.2643,-6.3406,-6.3295,-6.2305,-6.2305,-6.1801,-6.0928,-6.0154,-5.9758,-5.9624,-5.882,-5.8047,-5.7392,-5.7392,-5.6892,-5.6181,0.0,0.0,0.0,0.0,0.0,0.0,0.0,-5.2462,-5.3049,-5.2154,-5.1923,-5.1731,-5.0933,-5.0712,-5.0776,-5.1014,-5.1089,-5.0953,-5.0346,-5.082,-5.1406,-5.1406,-5.2641,-5.3982,-5.4733,-5.3631,-5.2815,-5.3788,-5.2447,-5.1411,-5.2159,-5.1483,-5.0844,-5.0712,-4.9163,-4.7645,-4.6418,-4.6,-4.5331,-4.4102,-4.3693,-4.3515,-4.3515,-4.3515,-4.3828,-4.4654,-4.4691,-4.5076,-4.5847,-4.5112,-4.4691,-4.4691,-4.3901,-4.3515,-4.3515,-4.3515,-4.3515,-4.3497,-4.2957,-4.3013,-4.348,-4.2957,-4.3013,-4.3515,-4.3515,-4.3515,-4.3515,-4.3515,-4.3515,-4.3515,-4.3515,-4.3515,-4.3515,0.0,0.0,0.0,0.0,0.0,0.0,0.0,0.0,0.0,-6.0781,-6.0781,0.0,0.0,0.0,0.0,0.0,0.0,0.0,-5.9511,-6.0319,-6.0781,-6.0781,-6.0781,-6.0935,-6.1166,-6.2012,-6.2963,-6.4013,-6.3616,-6.2752,-6.1396,-6.1375,-6.0685,-5.9367,-5.9115,-5.8687,-5.7975,-5.6576,-5.6179,-5.6503,-5.5875,-5.593,-5.6312,0.0,0.0,0.0,0.0,0.0,0.0,0.0,0.0,0.0,-5.1962,-5.2308,-5.2549,-5.1125,-5.1087,-5.1462,-5.1058,-5.0581,-5.0309,-5.0779,-5.1166,-5.1562,-5.2187,-5.2694,-5.343,-5.4865,-5.3818,-5.2731,-5.3047,-5.1588,-5.0218,-4.9838,-4.9365,-4.904,-4.9011,-4.7992,-4.7031,-4.638,-4.5507,-4.4691,-4.4065,-4.3693,-4.3515,-4.3515,-4.3515,-4.3625,-4.3828,-4.4378,-4.4562,-4.4195,-4.4525,-4.4452,-4.3864,-4.3608,-4.3515,-4.3515,-4.3515,-4.3515,-4.3497,-4.3321,-4.3339,-4.3497,-4.3321,-4.3339,-4.3515,-4.3515,-4.3515,-4.3515,-4.3515,-4.3515,-4.3515,-4.3515,-4.3515,-4.3515,0.0,0.0,0.0,0.0,0.0,0.0,0.0,0.0,0.0,0.0,-6.0781,-6.0781,0.0,0.0,0.0,0.0,0.0,0.0,-6.0012,-6.0512,-6.0781,-6.0781,-6.0781,-6.0781,-6.0781,-6.1973,-6.2743,-6.3089,-6.2551,-6.1852,-6.0979,-6.074,-6.0293,-5.9721,-5.944,-5.8607,-5.739,-5.607,-5.5432,-5.5311,-5.5116,-5.5223,-5.5485,0.0,0.0,0.0,0.0,0.0,0.0,0.0,0.0,0.0,-5.1885,-5.2269,-5.2433,-5.1087,-5.0818,-5.0904,-5.0914,-5.0357,-5.0032,-5.0951,-5.1317,-5.1523,-5.207,-5.2734,-5.3516,-5.457,-5.3398,-5.2187,-5.2187,-5.0688,-4.9326,-4.8779,-4.8223,-4.7875,-4.7875,-4.71,-4.6414,-4.6118,-4.5364,-4.4699,-4.429,-4.3912,-4.3664,-4.3515,-4.3515,-4.3515,-4.3515,-4.3975,-4.4011,-4.3515,-4.3975,-4.3975,-4.3515,-4.3515,-4.3515,-4.3515,-4.3515,-4.3515,-4.3515,-4.3515,-4.3515,-4.3515,-4.3515,-4.3515,-4.3515,-4.3515,-4.3515,-4.3515,-4.3515,-4.3515,-4.3515,-4.3515,-4.3515,-4.3515,0.0,0.0,-5.9511,-5.9511,0.0,0.0,0.0,0.0,0.0,0.0,-6.0804,-6.0793,0.0,0.0,0.0,0.0,0.0,0.0,-6.0781,-6.0781,-6.0781,-6.0781,-6.0781,-6.0781,-6.0781,-6.2281,-6.232,-6.0781,-6.0781,-6.0783,-6.0773,-6.0229,-6.0355,-6.0962,-6.034,-5.9126,-5.7448,-5.6553,-5.5334,-5.4062,-5.4765,-5.4648,-5.4062,-5.474,0.0,0.0,0.0,0.0,0.0,0.0,0.0,0.0,-5.2,-5.2,-5.1846,-5.1048,-5.024,-4.9787,-5.0658,-5.0396,-5.0118,-5.0982,-5.1354,-5.1523,-5.1523,-5.2695,-5.375,-5.375,-5.25,-5.1367,-5.1289,-4.9832,-4.8591,-4.8591,-4.7749,-4.7095,-4.7095,-4.6429,-4.5877,-4.5821,-4.5503,-4.5141,-4.4688,-4.4276,-4.3881,-4.3563,-4.3532,-4.3515,-4.3515,-4.3515,-4.3515,-4.3515,-4.3515,-4.3515,-4.3515,-4.3515,-4.3515,-4.3515,-4.3515,-4.3515,-4.3515,-4.3515,-4.3515,-4.3515,-4.3515,-4.3515,-4.3515,-4.3515,-4.3515,-4.3515,-4.3515,-4.3515,-4.3515,-4.3515,-4.3515,-4.3515,0.0,0.0,-5.9511,-5.9511,0.0,0.0,0.0,0.0,0.0,0.0,0.0,0.0,0.0,0.0,0.0,0.0,0.0,0.0,-6.0781,-6.0781,-6.0781,-6.0781,-6.0781,-6.0781,-6.0781,-6.1166,-6.1166,-6.0781,-6.0781,-6.0194,-5.9052,-5.9583,-5.9329,-5.8471,-5.8958,-5.8289,-5.6716,-5.5153,-5.4335,-5.3945,-5.3476,-5.3555,-5.4023,-5.4178,-5.4138,0.0,0.0,0.0,0.0,0.0,0.0,0.0,-5.2933,-5.2933,-5.2741,-5.1885,-5.15,-5.1289,-5.0846,-5.0763,-5.087,-5.1087,-5.1798,-5.2422,-5.2422,-5.2187,-5.1953,-5.1953,-5.1641,-5.1211,-5.0586,-4.9023,-4.7849,-4.7849,-4.7004,-4.634,-4.634,-4.6087,-4.587,-4.5881,-4.5546,-4.5234,-4.5093,-4.441,-4.3952,-4.3912,-4.3664,-4.3515,-4.3515,-4.3515,-4.3515,-4.3515,-4.3515,-4.3515,-4.3515,-4.3515,-4.3515,-4.3515,-4.3515,-4.3515,-4.3515,-4.3515,-4.3515,-4.3515,-4.3515,-4.3515,-4.3515,-4.3515,-4.3515,-4.3515,-4.3515,-4.3515,-4.3515,-4.3515,-4.3515,-4.3515,0.0,0.0,0.0,0.0,0.0,0.0,0.0,0.0,0.0,0.0,0.0,0.0,0.0,0.0,0.0,0.0,-6.0254,0.0,-6.0781,-6.0781,-6.0781,-6.0781,-6.1204,-6.1243,-6.0819,-6.1204,-6.1012,-6.0165,-5.9781,-5.9397,-5.8954,-5.8708,-5.8421,-5.8203,-5.8676,-5.7828,-5.5937,-5.5,-5.3906,-5.2734,-5.2695,-5.2734,-5.2812,-5.3203,-5.3398,-5.3359,-5.3212,0.0,0.0,0.0,0.0,0.0,0.0,0.0,-5.2423,-5.1587,-5.1048,-5.0702,-5.0712,-5.0542,-5.052,-5.1035,-5.1613,-5.207,-5.207,-5.1445,-5.0703,-5.0273,-5.0195,-4.9961,-4.9101,-4.8203,-4.7461,-4.7031,-4.6558,-4.6199,-4.6199,-4.6142,-4.6075,-4.5998,-4.5758,-4.5501,-4.5257,-4.4685,-4.4204,-4.3998,-4.3677,-4.3515,-4.3515,-4.3515,-4.3515,-4.3515,-4.3515,-4.3515,-4.3515,-4.3515,-4.3515,-4.3515,-4.3515,-4.3515,-4.3515,-4.3515,-4.3515,-4.3515,-4.3515,-4.3515,-4.3515,-4.3515,-4.3515,-4.3515,-4.3515,-4.3515,-4.3515,-4.3515,-4.3515,-4.3515,0.0,0.0,0.0,0.0,0.0,0.0,0.0,0.0,0.0,0.0,0.0,0.0,0.0,0.0,-5.8789,0.0,0.0,0.0,0.0,-6.0704,-6.0742,-6.0589,-6.1408,-6.1562,-6.0819,-6.1358,-6.0935,-5.9511,-5.8396,-5.8357,-5.9242,-5.7834,-5.7637,-5.8459,-5.8445,-5.7274,-5.5273,-5.4961,-5.3437,-5.125,-5.1992,-5.1758,-5.1055,-5.1758,-5.2148,-5.2265,-5.228,-5.2377,-5.259,-5.3246,0.0,0.0,0.0,0.0,-5.1769,-5.1087,-5.0279,-4.9779,-5.0519,-5.0267,-5.008,-5.1147,-5.1385,-5.1366,-5.1366,-5.0742,-4.9961,-4.9062,-4.8789,-4.8398,-4.7539,-4.7383,-4.7148,-4.6406,-4.6289,-4.6289,-4.6289,-4.6289,-4.6248,-4.6147,-4.6008,-4.5784,-4.5426,-4.4989,-4.4536,-4.4132,-4.3791,-4.3546,-4.3515,-4.3515,-4.3515,-4.3515,-4.3515,-4.3515,-4.3515,-4.3515,-4.3515,-4.3515,-4.3515,-4.3515,-4.3515,-4.3515,-4.3515,-4.3515,-4.3515,-4.3515,-4.3515,-4.3515,-4.3515,-4.3515,-4.3515,-4.3515,-4.3515,-4.3515,-4.3515,-4.3515,0.0,0.0,0.0,0.0,0.0,0.0,0.0,0.0,0.0,0.0,-5.9894,-5.9777,0.0,0.0,0.0,-5.8797,-5.8615,-5.8819,-5.9627,0.0,0.0,-5.9704,-6.0512,-6.0935,-6.0781,-6.0165,-5.9742,-5.9511,-5.7165,-5.6896,-5.8434,-5.7478,-5.722,-5.7525,-5.6791,-5.6053,-5.5195,-5.3672,-5.1992,-5.0351,-5.0508,-5.0,-4.9258,-4.9375,-4.9883,-5.0625,-5.1288,-5.1977,-5.2635,-5.3472,-5.353,0.0,0.0,0.0,-5.1885,-5.1769,-5.1164,-5.0558,-5.0673,-5.0692,-5.0945,-5.1906,-5.1707,-5.1215,-5.1215,-5.0694,-4.9961,-4.9062,-4.8281,-4.75,-4.6641,-4.6484,-4.6445,-4.6328,-4.6289,-4.6289,-4.6289,-4.6289,-4.6289,-4.6288,-4.6149,-4.6005,-4.5847,-4.5449,-4.502,-4.4548,-4.4146,-4.3786,-4.3532,-4.3515,-4.3515,-4.3515,-4.3515,-4.3515,-4.3515,-4.3515,-4.3515,-4.3515,-4.3515,-4.3515,-4.3515,-4.3515,-4.3515,-4.3515,-4.3515,-4.3515,-4.3515,-4.3515,-4.3515,-4.3515,-4.3515,-4.3515,-4.3515,-4.3515,-4.3515,-4.3515,0.0,0.0,0.0,0.0,0.0,0.0,0.0,0.0,0.0,0.0,0.0,-5.8532,0.0,0.0,0.0,-5.7937,-5.7744,-5.7934,-5.8781,-5.9204,-5.9242,-5.8858,-5.9204,-5.9396,-5.9396,-5.9011,-5.8588,-5.8088,-5.6472,-5.6088,-5.6819,-5.6059,-5.6304,-5.7364,-5.6104,-5.5187,-5.4453,-5.2695,-5.1248,-5.0106,-5.0155,-4.9646,-4.8857,-4.9413,-4.9883,-5.0234,-5.0586,-5.1248,-5.1938,-5.2225,-5.2242,-5.2134,-5.2038,0.0,0.0,0.0,-5.0625,-5.0087,-5.0558,-5.0808,-5.0988,-5.1419,-5.1373,-5.1204,-5.1204,-5.0692,-4.9961,-4.9062,-4.8203,-4.7344,-4.6445,-4.6289,-4.6289,-4.6289,-4.6289,-4.6289,-4.6289,-4.6289,-4.6289,-4.6289,-4.6196,-4.6064,-4.5892,-4.5522,-4.517,-4.4919,-4.4332,-4.3958,-4.3807,-4.3614,-4.3515,-4.3515,-4.3515,-4.3515,-4.3515,-4.3515,-4.3515,-4.3515,-4.3515,-4.3515,-4.3515,-4.3515,-4.3515,-4.3515,-4.3515,-4.3515,-4.3515,-4.3515,-4.3515,-4.3515,-4.3515,-4.3515,-4.3515,-4.3515,-4.3515,-4.3515,0.0,0.0,0.0,0.0,0.0,0.0,0.0,0.0,0.0,0.0,0.0,0.0,0.0,0.0,0.0,0.0,-5.6815,-5.6934,-5.7588,-5.805,-5.8204,-5.7973,-5.8165,-5.8319,-5.8319,-5.8088,-5.7665,-5.6983,-5.5934,-5.5588,-5.6022,-5.5147,-5.5696,-5.732,-5.5567,-5.447,-5.3867,-5.1874,-5.0769,-5.0235,-4.967,-4.9002,-4.8437,-4.8976,-4.9335,-4.957,-4.9805,-5.0273,-5.082,-5.1156,-5.0941,-5.0597,-5.0669,-5.0035,0.0,0.0,0.0,-4.9471,-4.9933,0.0,-5.0813,-5.0581,-5.0853,-5.1174,-5.1174,-5.0842,-5.0273,-4.9414,-4.8555,-4.7656,-4.6797,-4.6445,-4.6289,-4.6289,-4.6289,-4.6289,-4.6289,-4.6288,-4.6248,-4.6289,-4.6168,-4.606,-4.5896,-4.5648,-4.5342,-4.511,-4.46,-4.4204,-4.3998,-4.3775,-4.358,-4.3515,-4.3515,-4.3515,-4.3515,-4.3515,-4.3515,-4.3515,-4.3515,-4.3515,-4.3515,-4.3515,-4.3515,-4.3515,-4.3515,-4.3515,-4.3515,-4.3515,-4.3515,-4.3515,-4.3515,-4.3515,-4.3515,-4.3515,-4.3515,-4.3515,0.0,0.0,0.0,0.0,0.0,0.0,0.0,0.0,0.0,0.0,0.0,0.0,-5.7587,-5.6766,-5.623,-5.6269,-5.5965,-5.578,-5.5818,-5.7396,-5.7934,-5.7099,-5.7857,0.0,-5.8319,-5.7473,-5.706,-5.6983,-5.5357,-5.5357,-5.6917,-5.5525,-5.5797,-5.732,-5.4901,-5.3922,-5.3828,-5.1193,-5.0469,-5.0925,-4.8397,-4.7395,-4.7372,-4.6598,-4.69,-4.7851,-4.8672,-4.8984,-4.9258,-5.0859,-5.0263,-4.8972,-4.9786,-4.9265,-4.8389,0.0,0.0,0.0,-4.8432,-4.9442,0.0,-4.9682,-5.0291,-5.1103,-5.1103,-5.1245,-5.1094,-5.0312,-4.9453,-4.8555,-4.7695,-4.6875,-4.6289,-4.6289,-4.6289,-4.6289,-4.6289,-4.6198,-4.615,-4.6289,-4.6199,-4.6054,-4.5913,-4.587,-4.5648,-4.5142,-4.5044,-4.4738,-4.4028,-4.3967,-4.3818,-4.3515,-4.3515,-4.3515,-4.3515,-4.3515,-4.3515,-4.3515,-4.3515,-4.3515,-4.3515,-4.3515,-4.3515,-4.3515,-4.3515,-4.3515,-4.3515,-4.3515,-4.3515,-4.3515,-4.3515,-4.3515,-4.3515,-4.3515,-4.3515,-4.3515,0.0,0.0,0.0,0.0,0.0,0.0,0.0,0.0,0.0,0.0,0.0,0.0,0.0,-5.6521,-5.6281,-5.6202,-5.5887,-5.5472,-5.4972,-5.6011,-5.6242,-5.5434,-5.6203,-5.6626,-5.6626,-5.6319,-5.6175,-5.6175,-5.4472,-5.4241,-5.5367,-5.4397,-5.4316,-5.4913,-5.4257,-5.3942,-5.3789,-5.0526,-4.9619,-5.0112,-4.8046,-4.7184,-4.7111,-4.6886,-4.7015,-4.739,-4.7705,-4.824,-4.8967,-5.0101,-4.9764,-4.8975,-4.9768,-4.8904,-4.7561,-4.7442,-4.7957,-4.8509,-4.8202,-4.8548,0.0,-4.9356,-4.985,-5.0398,-5.0977,-5.1243,-5.1016,-4.9648,-4.9101,-4.8476,-4.7031,-4.6523,-4.6289,-4.6289,-4.6289,-4.6288,-4.6196,-4.614,-4.6136,-4.6152,-4.614,-4.6087,-4.603,-4.6014,-4.5909,-4.5628,-4.5359,-4.4993,-4.4461,-4.4149,-4.3849,-4.3515,-4.3515,-4.3515,-4.3515,-4.3515,-4.3515,-4.3515,-4.3515,-4.3515,-4.3515,-4.3515,-4.3515,-4.3515,-4.3515,-4.3515,-4.3515,-4.3515,-4.3515,-4.3515,-4.3515,-4.3515,-4.3515,-4.3515,-4.3515,-4.3515,0.0,0.0,0.0,0.0,0.0,-5.868,-5.8636,-5.7479,-5.6557,-5.6368,0.0,0.0,0.0,0.0,-5.6305,-5.6135,-5.5642,-5.5113,-5.4559,-5.4741,-5.4626,-5.4087,-5.4857,-5.528,-5.528,-5.5549,-5.5703,-5.5703,-5.4318,-5.3933,-5.4483,-5.3743,-5.3482,-5.3594,-5.352,-5.367,-5.3789,-5.0469,-4.9691,-5.0437,-4.8044,-4.7417,-4.7829,-4.7334,-4.7325,-4.763,-4.7635,-4.788,-4.8326,-4.925,-4.8847,-4.8084,-4.8935,-4.8108,-4.68,-4.6629,-4.7148,-4.7728,-4.7457,-4.775,-4.8309,-4.8887,-4.9153,-4.9609,-5.0812,-5.0993,-5.07,-4.9883,-4.9531,-4.8984,-4.7812,-4.7383,-4.6992,-4.6406,-4.6289,-4.6248,-4.6136,-4.6072,-4.6064,-4.6087,-4.6069,-4.6032,-4.6101,-4.6089,-4.6022,-4.5927,-4.5615,-4.5222,-4.4717,-4.4384,-4.3989,-4.3532,-4.3515,-4.3515,-4.3515,-4.3515,-4.3515,-4.3515,-4.3515,-4.3515,-4.3515,-4.3515,-4.3515,-4.3515,-4.3515,-4.3515,-4.3515,-4.3515,-4.3515,-4.3515,-4.3515,-4.3515,-4.3515,-4.3515,-4.3515,-4.3515,0.0,0.0,-6.1847,-6.1116,-5.9721,-5.8748,-5.8868,-5.7605,-5.6601,-5.6601,0.0,0.0,0.0,0.0,0.0,-5.5893,-5.5165,-5.465,-5.4426,-5.3674,-5.3203,-5.3164,-5.401,-5.4511,-5.4511,-5.528,-5.5703,-5.5703,-5.4857,-5.4472,-5.4444,-5.3696,-5.3437,-5.3512,-5.2805,-5.3027,-5.3789,-5.0966,-5.0753,-5.193,-4.8353,-4.797,-4.9381,-4.7678,-4.7591,-4.8453,-4.8434,-4.7894,-4.7328,-4.8329,-4.7533,-4.6255,-4.7264,-4.6904,-4.6077,-4.5952,-4.6502,-4.6964,0.0,0.0,0.0,-4.828,-4.8255,-4.8748,-5.0597,-5.0488,-5.0248,-5.1132,-5.0703,-5.0156,-5.0156,-4.9453,-4.8359,-4.6641,-4.6367,-4.6286,-4.6134,-4.5981,-4.5955,-4.608,-4.5981,-4.595,-4.6106,-4.6091,-4.6067,-4.5939,-4.5842,-4.5465,-4.4739,-4.4624,-4.4256,-4.3532,-4.3515,-4.3515,-4.3515,-4.3515,-4.3515,-4.3515,-4.3515,-4.3515,-4.3515,-4.3515,-4.3515,-4.3515,-4.3515,-4.3515,-4.3515,-4.3515,-4.3515,-4.3515,-4.3515,-4.3515,-4.3515,-4.3515,-4.3515,-4.3515,0.0,-6.1435,-6.1114,-6.1039,-5.9721,-5.8715,-5.873,-5.7547,-5.6561,0.0,0.0,0.0,-5.6601,-5.6465,-5.6098,-5.5381,-5.5019,-5.4265,-5.2862,-5.3116,-5.3,-5.2279,-5.3703,-5.4511,-5.4511,-5.528,-5.5703,-5.5703,-5.4241,-5.3549,-5.3549,-5.2705,-5.2446,-5.2655,-5.245,-5.2635,-5.2929,-5.0732,-5.027,-5.079,-4.8318,-4.8007,-4.8886,-4.7803,-4.7357,-4.7341,-4.7349,-4.6827,-4.6323,-4.7234,-4.6894,-4.6144,-4.644,-4.6335,-4.6077,-4.5952,-4.6074,-4.623,-4.5957,0.0,0.0,0.0,0.0,0.0,-4.8967,-4.9201,-4.9295,-4.9531,-4.9414,-4.9258,-4.9258,-4.9062,-4.875,-4.8242,-4.7571,-4.6837,-4.6056,-4.5862,-4.5864,-4.5952,-4.5939,-4.6008,-4.621,-4.6247,-4.6245,-4.6199,-4.5978,-4.5583,-4.4861,-4.4175,-4.3693,-4.3515,-4.3515,-4.3515,-4.3515,-4.3515,-4.3515,-4.3515,-4.3515,-4.3515,-4.3515,-4.3515,-4.3515,-4.3515,-4.3515,-4.3515,-4.3515,-4.3515,-4.3515,-4.3515,-4.3515,-4.3515,-4.3515,-4.3515,-4.3515,-4.3515,-6.1447,-6.1127,-6.0877,-6.1081,-6.0087,-5.9176,-5.8936,-5.7916,-5.6991,0.0,0.0,0.0,-5.6601,-5.6204,-5.5714,-5.514,-5.4355,-5.3414,-5.2246,-5.235,-5.2186,-5.161,-5.3196,-5.4125,-5.4125,-5.5228,-5.5605,-5.5258,-5.3879,-5.301,-5.2654,-5.1779,-5.1539,-5.1794,-5.1439,-5.1401,-5.1562,-5.0336,-5.0153,-5.0623,-4.8952,-4.8805,-4.9455,-4.822,-4.7826,-4.7855,-4.7163,-4.6634,-4.629,-4.6499,-4.6333,-4.6101,-4.6093,-4.6127,-4.6153,-4.6084,-4.6075,-4.6075,-4.6075,-4.6011,-4.6165,-4.6985,0.0,0.0,-4.8327,-4.8433,-4.8393,-4.8828,-4.918,-4.9336,-4.8984,-4.9453,-4.9726,-4.9023,-4.8605,-4.794,-4.6636,-4.6401,-4.6263,-4.5948,-4.5959,-4.6075,-4.6289,-4.6289,-4.6289,-4.6289,-4.6091,-4.5647,-4.4863,-4.4106,-4.3627,-4.3515,-4.3515,-4.3515,-4.3515,-4.3515,-4.3515,-4.3515,-4.3515,-4.3515,-4.3515,-4.3515,-4.3515,-4.3515,-4.3515,-4.3515,-4.3515,-4.3515,-4.3515,-4.3515,-4.3515,-4.3515,-4.3515,-4.3515,-4.3515,-4.3515,0.0,-6.0816,-6.0884,-6.1117,-6.0439,-5.9672,-5.9138,-5.832,-5.7461,0.0,-5.6601,-5.6601,-5.6601,-5.582,-5.5192,-5.4999,-5.3477,-5.2434,-5.2203,-5.1497,-5.1108,-5.1094,-5.2611,-5.3468,-5.3468,-5.4897,-5.5265,-5.4576,-5.3571,-5.2654,-5.1885,-5.1087,-5.0844,-5.105,-5.0189,-4.9958,-5.0195,-4.9896,-5.0189,-5.0719,-4.9718,-4.9817,-5.0317,-4.8654,-4.8481,-4.8933,-4.7432,-4.6846,-4.666,-4.6025,-4.592,-4.6069,-4.6084,-4.6196,-4.6289,-4.6289,-4.6289,-4.6289,-4.6289,-4.6203,-4.6292,-4.7062,-4.6593,0.0,-4.8025,-4.781,-4.7556,-4.8554,-4.9375,-4.9687,-4.9023,-5.0195,-5.0742,-4.9141,-4.9482,-4.9331,-4.7605,-4.7349,-4.6989,-4.6152,-4.6242,-4.6383,-4.6328,-4.6406,-4.6445,-4.6445,-4.6264,-4.5784,-4.4874,-4.4301,-4.3849,-4.3515,-4.3515,-4.3515,-4.3515,-4.3515,-4.3515,-4.3515,-4.3515,-4.3515,-4.3515,-4.3515,-4.3515,-4.3515,-4.3515,-4.3515,-4.3515,-4.3515,-4.3515,-4.3515,-4.3515,-4.3515,-4.3515,-4.3515,-4.3515,-4.3515,-6.0781,-6.0902,-6.0821,-6.0352,-5.962,-5.8892,-5.8241,-5.7422,-5.6797,-5.6601,-5.6601,-5.6601,-5.6601,-5.582,-5.5,-5.4295,-5.3279,-5.2293,-5.1458,-5.1258,-5.1151,-5.1094,-5.2023,-5.2562,-5.2562,-5.3416,-5.3824,-5.3631,-5.2636,-5.2077,-5.1885,-5.1087,-5.0844,-5.105,-5.0189,-4.9958,-5.0195,-4.9896,-4.9494,-4.9002,-4.8942,-4.9011,-4.9049,-4.8006,-4.7496,-4.7355,-4.7,-4.6432,-4.586,-4.5793,-4.5828,-4.588,-4.6056,-4.6136,-4.615,-4.6288,-4.6289,-4.6289,-4.6289,-4.6289,-4.6284,-4.6333,-4.6306,0.0,-4.6566,-4.6548,-4.6757,-4.7656,-4.8008,-4.8281,-4.8789,-4.9726,-5.0117,-4.9062,-5.0056,-5.0303,-4.8505,-4.8161,-4.7816,-4.7028,-4.7687,-4.7673,-4.6406,-4.6914,-4.7344,-4.7344,-4.6881,-4.6334,-4.5774,-4.463,-4.3849,-4.3515,-4.3515,-4.3515,-4.3515,-4.3515,-4.3515,-4.3515,-4.3515,-4.3515,-4.3515,-4.3515,-4.3515,-4.3515,-4.3515,-4.3515,-4.3515,-4.3515,-4.3515,-4.3515,-4.3515,-4.3515,-4.3515,-4.3515,-4.3515,-4.3515,-6.0884,-6.0696,-6.0402,-6.0053,-5.9404,-5.8673,-5.8007,-5.7539,-5.7109,-5.664,-5.6601,-5.6445,-5.6015,-5.5156,-5.4297,-5.3437,-5.2539,-5.1678,-5.077,-5.0691,-5.0683,-5.0655,-5.1433,-5.2057,-5.2486,-5.3213,-5.3347,-5.2848,-5.1881,-5.1132,-5.0625,-5.024,-4.9954,-4.981,-4.98,-4.9432,-4.8815,-4.9063,-4.887,-4.8424,-4.8894,-4.8837,-4.8377,-4.7524,-4.7079,-4.6846,-4.6394,-4.597,-4.5612,-4.568,-4.5747,-4.5828,-4.5952,-4.6337,-4.6687,-4.6404,-4.656,-4.6747,-4.6317,-4.6147,-4.6097,-4.6001,-4.6083,0.0,0.0,-4.6211,-4.6406,-4.6875,-4.7305,-4.7617,-4.7617,-4.8672,-4.9414,-4.8984,-4.9867,-5.0293,-4.9393,-4.9188,-4.8864,-4.8057,-4.8441,-4.8471,-4.7656,-4.8008,-4.8242,-4.8242,-4.7824,-4.7319,-4.6714,-4.5534,-4.4661,-4.4102,-4.3718,-4.3515,-4.3515,-4.3515,-4.3515,-4.3515,-4.3515,-4.3515,-4.3515,-4.3515,-4.3515,-4.3515,-4.3515,-4.3515,-4.3515,-4.3515,-4.3515,-4.3515,-4.3515,-4.3515,-4.3515,-4.3515,-4.3515,-4.3515,-6.0793,-6.0281,-5.9721,-5.9566,-5.9084,-5.8453,-5.7773,-5.7656,-5.7383,-5.668,-5.6445,-5.6053,-5.535,-5.4292,-5.3393,-5.2732,-5.1717,-5.0937,-5.0469,-5.0117,-5.0039,-5.0195,-5.0664,-5.1328,-5.2187,-5.2593,-5.2487,-5.1804,-5.0869,-4.9969,-4.9163,-4.9163,-4.9026,-4.8764,-4.9143,-4.8708,-4.7689,-4.807,-4.8094,-4.7879,-4.8638,-4.8586,-4.8009,-4.7009,-4.6663,-4.6547,-4.5864,-4.5594,-4.5594,-4.5594,-4.5673,-4.5764,-4.5841,-4.6434,-4.6984,-4.6439,-4.6665,-4.6989,-4.6284,-4.5998,-4.5879,-4.5879,-4.5985,-4.6072,0.0,0.0,0.0,-4.6248,-4.6835,-4.7148,-4.6445,-4.7578,-4.8594,-4.8437,-4.9169,-4.9772,-4.9772,-4.9772,-4.9536,-4.8786,-4.8821,-4.8906,-4.8906,-4.8906,-4.8984,-4.9141,-4.8758,-4.8248,-4.769,-4.6601,-4.5619,-4.4726,-4.4085,-4.3644,-4.3515,-4.3515,-4.3515,-4.3515,-4.3515,-4.3515,-4.3515,-4.3515,-4.3515,-4.3515,-4.3515,-4.3515,-4.3515,-4.3515,-4.3515,-4.3515,-4.3515,-4.3515,-4.3515,-4.3515,-4.3515,-4.3515,-5.9993,-5.9537,-5.879,-5.8009,-5.7949,-5.7734,-5.6875,-5.6758,-5.6719,-5.6601,-5.5808,-5.524,-5.5123,-5.354,-5.2504,-5.2537,-5.1056,-5.0489,-5.1211,-4.9883,-4.9375,-5.0156,-4.9531,-4.9609,-5.0469,-4.9705,-4.9526,-5.0096,-4.9078,-4.8493,-4.824,-4.824,-4.8763,-4.959,-4.8136,-4.7891,-4.8508,-4.7677,-4.6851,-4.6151,-4.6904,-4.7548,-4.7932,-4.6355,-4.5748,-4.5748,-4.5633,-4.5594,-4.5594,-4.5594,-4.5612,-4.5632,-4.5757,-4.5919,-4.6076,-4.6121,-4.6173,-4.6245,-4.6128,-4.5998,-4.5879,-4.5879,-4.5892,-4.5939,-4.5939,0.0,-4.6138,-4.6138,0.0,-4.6406,-4.6328,0.0,0.0,-4.6719,-4.7968,-4.9023,-4.9023,-4.9023,-4.8939,-4.8747,-4.882,-4.8906,-4.8906,-4.8906,-4.9219,-5.0,-4.907,-4.8526,-4.8564,-4.7488,-4.6218,-4.4763,-4.4635,-4.4232,-4.3515,-4.3515,-4.3515,-4.3515,-4.3515,-4.3515,-4.3515,-4.3515,-4.3515,-4.3515,-4.3515,-4.3515,-4.3515,-4.3515,-4.3515,-4.3515,-4.3515,-4.3515,-4.3515,-4.3515,-4.3515,-4.3515,-5.9233,-5.8819,-5.8185,-5.7679,-5.7331,-5.7031,-5.664,-5.6601,-5.6561,-5.6508,-5.6138,-5.5441,-5.4336,-5.3545,-5.248,-5.1055,-5.036,-4.9963,-4.9829,-4.9256,-4.9297,-5.0156,-4.9375,-4.9297,-5.0195,-4.9293,-4.8919,-4.9163,-4.8161,-4.785,-4.8191,-4.764,-4.7982,-4.9041,-4.8802,-4.8651,-4.856,-4.8128,-4.7627,-4.7061,-4.6399,-4.6663,-4.7278,-4.6047,-4.5594,-4.5594,-4.5594,-4.5594,-4.5594,-4.5594,-4.5594,-4.5629,-4.5761,-4.6183,-4.6502,-4.6111,-4.6298,-4.6557,-4.6047,-4.5825,-4.5736,-4.5736,-4.5776,-4.5842,-4.5842,-4.5909,-4.6001,-4.6082,0.0,0.0,0.0,0.0,0.0,0.0,-4.7656,-4.8164,-4.8164,-4.8164,-4.8671,-5.0109,-4.9452,-4.8906,-4.8906,-4.9375,-4.9805,-5.0156,-4.9613,-4.929,-4.9393,-4.8364,-4.7229,-4.6122,-4.5663,-4.5002,-4.4195,-4.4195,-4.3975,-4.3515,-4.3515,-4.3515,-4.3515,-4.3515,-4.3515,-4.3515,-4.3515,-4.3515,-4.3515,-4.3515,-4.3515,-4.3515,-4.3515,-4.3515,-4.3515,-4.3515,-4.3515,-4.3515,-5.8178,-5.7884,-5.7498,-5.7356,-5.6907,-5.6523,-5.6247,-5.5973,-5.5768,-5.563,-5.5404,-5.4693,-5.3347,-5.2944,-5.1967,-4.9915,-4.9608,-4.9276,-4.868,-4.8525,-4.874,-4.9411,-4.9059,-4.9061,-4.9492,-4.9101,-4.8706,-4.835,-4.7575,-4.745,-4.7925,-4.7256,-4.7654,-4.8885,-4.9309,-4.9253,-4.8841,-4.8617,-4.8212,-4.7663,-4.6432,-4.6201,-4.6471,-4.5825,-4.5594,-4.5594,-4.5594,-4.5594,-4.5594,-4.5594,-4.5594,-4.562,-4.5703,-4.6215,-4.6629,-4.6035,-4.6308,-4.661,-4.5977,-4.5681,-4.5594,-4.5594,-4.5673,-4.5747,-4.5747,-4.5801,-4.5905,-4.6008,-4.6077,0.0,0.0,0.0,-4.6875,-4.75,0.0,-4.7617,-4.7617,-4.7383,-4.8008,-5.0117,-4.9726,-4.9258,-4.9258,-4.9844,-5.0195,-5.0195,-4.9981,-4.9815,-4.9705,-4.9055,-4.8235,-4.7278,-4.6581,-4.5736,-4.4709,-4.4691,-4.4305,-4.3515,-4.3515,-4.3515,-4.3515,-4.3515,-4.3515,-4.3515,-4.3515,-4.3515,-4.3515,-4.3515,-4.3515,-4.3515,-4.3515,-4.3515,-4.3515,-4.3515,-4.3515,-4.3515,-5.668,-5.664,-5.664,-5.664,-5.6601,-5.6287,-5.5318,-5.4411,-5.3838,-5.3701,-5.2822,-5.2204,-5.2158,-5.1348,-5.0486,-4.9688,-4.8843,-4.8418,-4.8505,-4.7722,-4.7338,-4.7496,-4.8276,-4.8376,-4.7695,-4.8476,-4.8433,-4.7457,-4.7264,-4.7139,-4.7041,-4.7062,-4.8054,-4.9711,-4.9025,-4.9101,-4.9707,-4.8841,-4.7895,-4.6923,-4.6885,-4.6355,-4.5633,-4.5594,-4.5594,-4.5594,-4.5594,-4.5594,-4.5594,-4.5594,-4.5594,-4.5594,-4.5603,-4.5712,-4.5822,-4.5829,-4.5822,-4.5861,-4.5822,-4.5681,-4.5594,-4.5594,-4.5594,-4.5603,-4.5603,-4.5696,-4.5834,-4.59,-4.6001,-4.6419,-4.7382,-4.7578,-4.7578,-4.7617,-4.7617,0.0,0.0,-4.6875,-4.668,-4.7617,-4.9141,-5.0156,-5.0156,-5.0195,-5.0195,-5.0195,-5.0058,-4.9757,-4.9255,-4.9496,-4.9032,-4.7702,-4.7296,-4.6305,-4.4728,-4.4691,-4.4305,-4.3515,-4.3515,-4.3515,-4.3515,-4.3515,-4.3515,-4.3515,-4.3515,-4.3515,-4.3515,-4.3515,-4.3515,-4.3515,-4.3515,-4.3515,-4.3515,-4.3515,-4.3515,-4.3515,-5.7344,-5.6992,-5.6601,-5.6601,-5.6133,-5.5388,-5.4379,-5.3897,-5.3618,-5.3508,-5.2651,-5.2051,-5.1969,-5.0682,-4.9509,-4.8664,-4.7897,-4.7462,-4.7589,-4.7864,-4.8081,-4.8125,-4.9031,-4.8907,-4.7481,-4.8396,-4.8163,-4.6675,-4.7106,-4.7603,-4.8105,-4.7461,-4.815,-4.9919,-4.9674,-4.9647,-4.9766,-4.9503,-4.8716,-4.7586,-4.6471,-4.5855,-4.5594,-4.5594,-4.5594,-4.5594,-4.5594,-4.5594,-4.5594,-4.5594,-4.5594,-4.5594,-4.5594,-4.5646,-4.5665,-4.5665,-4.5665,-4.5665,-4.5665,-4.5616,-4.5594,-4.5594,-4.5594,-4.5594,-4.5594,-4.5654,-4.5835,-4.6519,-4.6712,-4.7135,-4.8135,-4.8394,-4.8281,-4.7695,-4.7617,-4.7383,0.0,-4.6484,-4.6836,-4.8281,-4.9492,-4.9961,-4.9414,-4.9336,-4.9336,-4.9336,-4.8691,-4.8546,-4.9192,-4.8987,-4.874,-4.8501,-4.8089,-4.7224,-4.5823,-4.5585,-4.494,-4.3818,-4.3614,-4.3515,-4.3515,-4.3515,-4.3515,-4.3515,-4.3515,-4.3515,-4.3515,-4.3515,-4.3515,-4.3515,-4.3515,-4.3515,-4.3515,-4.3515,-4.3515,-4.3515,-5.7383,-5.6992,-5.6601,-5.6601,-5.5857,-5.4904,-5.3868,-5.3337,-5.3029,-5.2871,-5.1879,-5.1125,-5.1029,-4.9779,-4.8586,-4.774,-4.7254,-4.6986,-4.7047,-4.7578,-4.7938,-4.796,-4.8894,-4.861,-4.6989,-4.8462,-4.8474,-4.6758,-4.7793,-4.8628,0.0,0.0,-4.8545,-4.9991,-4.9741,-4.9723,-4.9862,-4.9828,-4.9174,-4.8017,-4.6283,-4.5594,-4.5594,-4.5594,-4.5594,-4.5594,-4.5594,-4.5594,-4.5594,-4.5594,-4.5594,-4.5594,-4.5594,-4.5594,-4.5594,-4.5594,-4.5594,-4.5594,-4.5594,-4.5594,-4.5594,-4.5594,-4.5594,-4.5594,-4.5594,-4.5594,-4.5885,-4.6813,-4.6833,-4.7198,-4.8842,-4.873,-4.8317,-4.8086,-4.7812,-4.7305,0.0,-4.6289,-4.6836,-4.8281,-4.9219,-4.9766,-4.9805,-4.9531,-4.9219,-4.8906,-4.8312,-4.8242,-4.8929,-4.8784,-4.8805,-4.9102,-4.8864,-4.7981,-4.6408,-4.6197,-4.5399,-4.3982,-4.3644,-4.3515,-4.3515,-4.3515,-4.3515,-4.3515,-4.3515,-4.3515,-4.3515,-4.3515,-4.3515,-4.3515,-4.3515,-4.3515,-4.3515,-4.3515,-4.3515,-4.3515,-5.6758,-5.6562,-5.6562,-5.6523,-5.5718,-5.471,-5.3672,-5.2699,-5.2034,-5.1924,-5.0433,-4.9394,-4.9394,-4.8625,-4.7778,-4.6962,-4.6885,-4.6885,-4.6846,-4.6885,-4.6904,-4.6943,-4.7822,-4.7589,-4.6121,-4.8669,-4.92,-4.7617,-4.9163,-4.9961,0.0,0.0,0.0,0.0,-4.9214,-4.9251,-4.9869,-4.9811,-4.9215,-4.8118,-4.6342,-4.5594,-4.5594,-4.5594,-4.5594,-4.5594,-4.5594,-4.5594,-4.5594,-4.5594,-4.5594,-4.5594,-4.5594,-4.5594,-4.5594,-4.5594,-4.5594,-4.5594,-4.5594,-4.5594,-4.5594,-4.5594,-4.5594,-4.5594,-4.5594,-4.5594,-4.5885,-4.6837,-4.646,-4.6735,-4.9487,-4.8623,-4.7826,-4.8671,0.0,-4.7266,-4.6484,-4.6328,-4.6641,-4.7617,-4.8398,-4.9492,-5.1133,-5.0586,-4.9766,-4.8906,-4.8789,-4.8693,-4.8516,-4.891,-4.925,-4.9523,-4.9504,-4.8521,-4.6472,-4.6472,-4.5652,-4.4013,-4.366,-4.3515,-4.3515,-4.3515,-4.3515,-4.3515,-4.3515,-4.3515,-4.3515,-4.3515,-4.3515,-4.3515,-4.3515,-4.3515,-4.3515,-4.3515,-4.3515,-4.3515,-5.6501,-5.6374,-5.6094,-5.5467,-5.5058,-5.4278,-5.2711,-5.218,-5.1924,-5.1895,-5.0433,-4.9394,-4.9394,-4.8625,-4.7778,-4.6962,-4.6885,-4.6624,-4.597,-4.6547,-4.6613,-4.5979,-4.7448,-4.7544,-4.5998,-4.8608,-4.92,-4.7617,-4.8671,-4.9528,-5.0114,0.0,0.0,0.0,0.0,-4.8587,-4.8147,-4.9305,-4.9149,-4.7983,-4.6305,-4.5594,-4.5594,-4.5594,-4.5594,-4.5594,-4.5594,-4.5594,-4.5594,-4.5594,-4.5594,-4.5594,-4.5594,-4.5594,-4.5594,-4.5594,-4.5594,-4.5594,-4.5594,-4.5594,-4.5594,-4.5594,-4.5594,-4.5594,-4.5594,-4.5594,-4.6026,-4.7503,-4.7728,-4.8096,-4.9458,-4.9516,-4.8983,-4.7943,-4.7144,-4.6797,-4.7226,-4.6719,-4.7109,-4.9258,-4.8594,-4.8359,-4.9453,-4.9336,-4.8867,-4.8008,-4.7344,-4.7404,-4.8438,-4.8322,-4.8775,-4.9924,-4.9645,-4.8782,-4.7226,-4.6727,-4.5821,-4.4428,-4.3807,-4.3515,-4.3515,-4.3515,-4.3515,-4.3515,-4.3515,-4.3515,-4.3515,-4.3515,-4.3515,-4.3515,-4.3515,-4.3515,-4.3515,-4.3515,-4.3515,-4.3515,-5.6383,-5.6197,-5.5812,-5.4958,-5.4692,-5.4151,-5.288,-5.2548,-5.2202,-5.1471,-4.9894,-4.8702,-4.8355,-4.7548,-4.6817,-4.6355,-4.6317,-4.6278,-4.6163,-4.6278,-4.6278,-4.6163,-4.6799,-4.6718,-4.5869,-4.7759,-4.8543,-4.8078,-4.8632,-4.9336,-5.0156,0.0,0.0,0.0,0.0,-4.7654,-4.7559,-4.8316,-4.8238,-4.7471,-4.6124,-4.5594,0.0,-4.5594,-4.5594,-4.5594,-4.5594,-4.5594,-4.5594,-4.5594,-4.5594,-4.5594,-4.5594,-4.5594,-4.5594,-4.5594,-4.5594,-4.5594,-4.5594,-4.5594,-4.5594,-4.5594,-4.5594,-4.5594,-4.5594,-4.5594,-4.5979,-4.7317,-4.7345,-4.7627,-4.9294,-4.8799,-4.8,-4.7487,-4.7101,-4.7187,-4.8047,-4.7734,-4.7969,-4.9453,-4.9101,-4.8633,-4.8359,-4.832,-4.8125,-4.7656,-4.7148,-4.7371,-4.8514,-4.866,-4.9181,-5.0178,-5.0071,-4.9377,-4.8067,-4.735,-4.6358,-4.5102,-4.4153,-4.3664,-4.3515,-4.3515,-4.3515,-4.3515,-4.3515,-4.3515,-4.3515,-4.3515,-4.3515,-4.3515,-4.3515,-4.3515,-4.3515,-4.3515,-4.3515,-4.3515,-5.6286,-5.6022,-5.5612,-5.4807,-5.4593,-5.4207,-5.3326,-5.3108,-5.2472,-5.0904,-4.9279,-4.7932,-4.7,-4.6317,-4.5825,-4.5633,-4.571,-4.6047,-4.6701,-4.6009,-4.5932,-4.6701,-4.6009,-4.5657,-4.5815,-4.6701,-4.7642,-4.8513,-4.8664,-4.9179,0.0,0.0,0.0,0.0,0.0,0.0,-4.7533,-4.7168,-4.6964,-4.6808,-4.5932,-4.5594,-4.5594,-4.5594,-4.5594,-4.5594,-4.5594,-4.5594,-4.5594,-4.5594,-4.5594,-4.5594,-4.5594,-4.5594,-4.5594,-4.5594,-4.5594,-4.5594,-4.5594,-4.5594,-4.5594,-4.5594,-4.5594,-4.5594,-4.5594,-4.5594,-4.5864,-4.674,-4.6317,-4.6463,-4.8809,-4.7428,-4.6274,-4.7242,-4.7606,-4.8046,-4.8945,-4.8984,-4.8984,-4.9219,-4.9609,0.0,-4.7891,-4.7773,-4.7695,-4.7461,-4.7422,-4.7769,-4.8508,-4.9239,-4.9821,-5.022,-5.0529,-5.0054,-4.8709,-4.7972,-4.6932,-4.5631,-4.4527,-4.3849,-4.3546,-4.3532,-4.3495,-4.3546,-4.3532,-4.3515,-4.3515,-4.3515,-4.3515,-4.3515,-4.3515,-4.3515,-4.3515,-4.3515,-4.3515,-4.3515,-5.6008,-5.5834,-5.5468,-5.4659,-5.4503,-5.3982,-5.2416,-5.2145,-5.1779,-5.0827,-4.9817,-4.8586,-4.7077,-4.7355,-4.7124,-4.571,-4.6278,-4.6432,-4.5855,-4.5671,-4.5671,-4.5825,-4.5671,-4.5657,-4.5815,-4.6674,-4.7291,-4.7615,-4.7662,-4.8151,0.0,0.0,0.0,0.0,0.0,0.0,-4.7213,-4.6441,-4.6415,-4.6808,-4.5932,-4.5594,-4.5594,-4.5594,-4.5594,-4.5594,-4.5594,-4.5594,-4.5594,-4.5594,-4.5594,-4.5594,-4.5594,-4.5594,-4.5594,-4.5594,-4.5594,-4.5594,-4.5594,-4.5594,-4.5594,-4.5594,-4.5594,-4.5594,-4.5594,-4.5594,-4.5864,-4.674,-4.6778,-4.6826,-4.7293,-4.7055,-4.6929,-4.7318,-4.801,-4.8847,-4.9843,-4.9336,-4.9414,-5.0781,-4.9258,-4.8203,-4.8633,-4.8672,-4.8086,-4.6641,-4.6523,-4.6831,-4.7608,-4.8339,-4.901,-4.9699,-5.0343,-4.9913,-4.8241,-4.7816,-4.6666,-4.48,-4.4265,-4.3952,-4.3912,-4.3631,-4.3664,-4.3912,-4.3631,-4.3515,-4.3515,-4.3515,-4.3515,-4.3515,-4.3515,-4.3515,-4.3515,-4.3515,-4.3515,-4.3515,-5.5807,-5.5411,-5.4972,-5.4549,-5.3741,-5.2741,-5.1471,-5.0894,-5.0317,-4.9471,-4.8625,-4.7625,-4.6355,-4.6586,-4.6471,-4.5671,-4.597,-4.6047,-4.5633,-4.5594,-4.5594,-4.5594,-4.5594,-4.5646,-4.5712,-4.6169,-4.6724,-4.7285,-4.6894,-4.7248,-4.8203,-4.6914,-4.6523,0.0,0.0,-4.6316,-4.6497,-4.6041,-4.5982,-4.6201,-4.5787,-4.5594,-4.5594,-4.5594,-4.5594,-4.5594,-4.5594,-4.5594,-4.5594,-4.5594,-4.5594,-4.5594,-4.5594,-4.5594,-4.5594,-4.5594,-4.5594,-4.5594,-4.5594,-4.5594,-4.5594,-4.5594,-4.5594,-4.5594,-4.5594,-4.5594,-4.571,-4.6124,-4.624,-4.624,-4.624,-4.6646,-4.7209,-4.7848,-4.8374,-4.9348,-5.121,-5.0742,-5.0664,-5.1914,-5.0234,-4.8945,-4.8906,-4.8476,-4.7695,-4.6406,-4.6719,-4.7105,-4.7379,-4.8113,-4.8844,-4.9572,-4.9444,-4.9163,-4.8779,-4.7741,-4.6664,-4.548,-4.4852,-4.4387,-4.3982,-4.3833,-4.3758,-4.3742,-4.3563,-4.3515,-4.3515,-4.3515,-4.3515,-4.3515,-4.3515,-4.3515,-4.3515,-4.3515,-4.3515,-4.3515,-5.5066,-5.454,-5.4062,-5.3962,-5.2664,-5.1356,-5.0548,-4.9548,-4.8625,-4.7932,-4.7269,-4.6586,-4.571,-4.5594,-4.5594,-4.5594,-4.5594,-4.5594,-4.5594,-4.5594,-4.5594,-4.5594,-4.5594,-4.5594,-4.5594,-4.5681,-4.6125,-4.6902,-4.6342,-4.6491,-4.7264,-4.6601,-4.6289,-4.6247,-4.6136,-4.5985,-4.5872,-4.5834,-4.5711,-4.5594,-4.5594,-4.5594,-4.5594,-4.5594,-4.5594,-4.5594,-4.5594,-4.5594,-4.5594,-4.5594,-4.5594,-4.5594,-4.5594,-4.5594,-4.5594,-4.5594,-4.5594,-4.5594,-4.5594,-4.5594,-4.5594,-4.5594,-4.5594,-4.5594,-4.5594,-4.5594,-4.5594,-4.5594,-4.5594,-4.5594,-4.5594,-4.6499,-4.7494,-4.8365,-4.8883,-4.9961,-5.2109,-5.1836,-5.1601,-5.2109,-5.0859,-4.957,-4.8711,-4.7851,-4.7031,-4.6367,-4.6953,-4.7262,-4.7149,-4.8,-4.8655,-4.9037,-4.8789,-4.8702,-4.8856,-4.774,-4.6772,-4.6042,-4.5327,-4.4676,-4.4117,-4.3974,-4.3807,-4.3614,-4.3512,-4.3515,-4.3515,-4.3515,-4.3515,-4.3515,-4.3515,-4.3515,-4.3515,-4.3515,-4.3515,-4.3515,-5.2946,-5.2818,-5.2635,-5.2228,-5.1395,-5.051,-4.9663,-4.8163,-4.7077,-4.7,-4.6962,-4.6586,-4.571,-4.5594,-4.5594,-4.5594,-4.5594,-4.5594,-4.5594,-4.5594,-4.5594,-4.5594,-4.5594,-4.5594,-4.5594,-4.5612,-4.5735,-4.5925,-4.5915,-4.6027,-4.6255,-4.6286,-4.6245,-4.6095,-4.5981,-4.5867,-4.5803,-4.579,-4.5711,-4.5594,-4.5594,-4.5594,-4.5594,-4.5594,-4.5594,-4.5594,-4.5594,-4.5594,-4.5594,-4.5594,-4.5594,-4.5594,-4.5594,-4.5594,-4.5594,-4.5594,-4.5594,-4.5594,-4.5594,-4.5594,-4.5594,-4.5594,-4.5594,-4.5594,-4.5594,-4.5594,-4.5594,-4.5594,-4.5594,-4.5594,-4.5594,-4.6912,-4.8113,-4.8468,-4.9828,-5.1027,-5.1444,-5.1445,-5.1172,-5.0508,-4.9609,-4.8672,-4.7812,-4.6914,-4.6406,-4.6328,-4.6367,-4.6363,-4.6249,-4.7677,-4.8094,-4.728,-4.932,-4.9394,-4.7163,-4.7702,-4.704,-4.523,-4.4838,-4.4624,-4.4533,-4.3855,-4.3693,-4.3958,-4.3647,-4.3515,-4.3515,-4.3515,-4.3515,-4.3515,-4.3515,-4.3515,-4.3515,-4.3515,-4.3515,-4.3515,-5.259,-5.2196,-5.1835,-5.1882,-5.1241,-5.025,-4.8817,-4.8048,-4.7278,-4.624,-4.6124,-4.597,-4.5633,-4.5594,-4.5594,-4.5594,-4.5594,-4.5594,-4.5594,-4.5594,-4.5594,-4.5594,-4.5594,-4.5594,-4.5594,-4.5594,-4.5665,-4.5783,-4.5846,-4.5872,-4.5985,-4.6017,-4.6017,-4.5978,-4.5862,-4.5846,-4.5777,-4.5696,-4.564,-4.5594,-4.5594,-4.5594,-4.5594,-4.5594,-4.5594,-4.5594,-4.5594,-4.5594,-4.5594,-4.5594,-4.5594,-4.5594,-4.5594,-4.5594,-4.5594,-4.5594,-4.5594,-4.5594,-4.5594,-4.5594,-4.5594,-4.5594,-4.5594,-4.5594,-4.5594,-4.5594,-4.5594,-4.5594,-4.5594,-4.5594,-4.5594,-4.6586,-4.7585,-4.8257,-4.9459,-5.0731,-5.189,-5.1676,-5.1289,-5.0976,-4.9643,-4.8468,-4.7695,-4.6752,-4.6437,-4.7031,-4.6601,-4.6201,-4.5992,-4.7103,-4.7478,-4.6954,-4.7901,-4.7932,-4.6923,-4.6701,-4.6195,-4.54,-4.5263,-4.5077,-4.4884,-4.4373,-4.3989,-4.3693,-4.3546,-4.3515,-4.3515,-4.3515,-4.3515,-4.3515,-4.3515,-4.3515,-4.3515,-4.3515,-4.3515,-4.3515,-5.1657,-5.1205,-5.095,-5.1449,-5.0856,-4.9894,-4.8663,-4.8048,-4.7317,-4.6124,-4.5748,-4.5594,-4.5594,-4.5594,-4.5594,-4.5594,-4.5594,-4.5594,-4.5594,-4.5594,-4.5594,-4.5594,-4.5594,-4.5594,-4.5594,-4.5594,-4.5632,-4.574,-4.5796,-4.5801,-4.5867,-4.5867,-4.5867,-4.5857,-4.5783,-4.574,-4.5733,-4.5624,-4.5594,-4.5594,-4.5594,-4.5594,-4.5594,-4.5594,-4.5594,-4.5594,-4.5594,-4.5594,-4.5594,-4.5594,-4.5594,-4.5594,-4.5594,-4.5594,-4.5594,-4.5594,-4.5594,-4.5594,-4.5594,-4.5594,-4.5594,-4.5594,-4.5594,-4.5594,-4.5594,-4.5594,-4.5594,-4.5594,-4.5594,-4.5594,-4.5594,-4.6317,-4.7204,-4.8157,-4.9149,-5.033,-5.1898,-5.1514,-5.0937,-5.0622,-4.9238,-4.8014,-4.7171,-4.6493,-4.6378,-4.7105,-4.6597,-4.6262,-4.6281,-4.712,-4.7377,-4.6903,-4.7394,-4.7394,-4.6885,-4.6278,-4.5855,-4.5594,-4.5485,-4.5351,-4.5066,-4.4612,-4.4095,-4.3515,-4.3515,-4.3515,-4.3515,-4.3515,-4.3515,-4.3515,-4.3515,-4.3515,-4.3515,-4.3515,-4.3515,-4.3515,-4.9529,-4.9541,-4.9779,-5.0573,-4.9971,-4.9394,-4.9394,-4.7971,-4.6923,-4.6885,-4.6124,-4.5594,-4.5594,-4.5594,-4.5594,-4.5594,-4.5594,-4.5594,-4.5594,-4.5594,-4.5594,-4.5594,-4.5594,-4.5594,-4.5594,-4.5594,-4.5594,-4.5594,-4.5733,-4.5783,-4.5783,-4.5783,-4.5783,-4.5815,-4.5657,-4.5594,-4.5594,-4.5594,-4.5594,-4.5594,-4.5594,-4.5594,-4.5594,-4.5594,-4.5594,-4.5594,-4.5594,-4.5594,-4.5594,-4.5594,-4.5594,-4.5594,-4.5594,-4.5594,-4.5594,-4.5594,-4.5594,-4.5594,-4.5594,-4.5594,-4.5594,-4.5594,-4.5594,-4.5594,-4.5594,-4.5594,-4.5594,-4.5594,-4.5594,-4.5594,-4.5594,-4.6317,-4.7204,-4.8157,-4.9149,-5.0135,-5.1076,-5.0655,-4.9841,-4.8833,-4.7966,-4.7003,-4.6013,-4.6011,-4.6128,-4.613,-4.6091,-4.6412,-4.7142,-4.801,-4.7985,-4.6941,-4.8509,-4.8586,-4.6923,-4.6885,-4.6432,-4.5586,-4.5253,-4.5115,-4.5094,-4.4346,-4.3818,-4.3515,-4.3515,-4.3515,-4.3515,-4.3515,-4.3515,-4.3515,-4.3515,-4.3515,-4.3515,-4.3515,-4.3515,-4.3515,-4.9461,-4.97,-5.0087,-5.0604,-5.0481,-4.9894,-4.8702,-4.8048,-4.7317,-4.6163,-4.5787,-4.5594,-4.5594,-4.5594,-4.5594,-4.5594,-4.5594,-4.5594,-4.5594,-4.5594,-4.5594,-4.5594,-4.5594,-4.5594,-4.5594,-4.5594,-4.5594,-4.5594,-4.5624,-4.5657,-4.5657,-4.5657,-4.5657,-4.5657,-4.5629,-4.5594,-4.5594,-4.5594,-4.5594,-4.5594,-4.5594,-4.5594,-4.5594,-4.5594,-4.5594,-4.5594,-4.5594,-4.5594,-4.5594,-4.5594,-4.5594,-4.5594,-4.5594,-4.5594,-4.5594,-4.5594,-4.5594,-4.5594,-4.5594,-4.5594,-4.5594,-4.5594,-4.5594,-4.5594,-4.5594,-4.5594,-4.5594,-4.5594,-4.5594,-4.5594,-4.5594,-4.6317,-4.7003,-4.7369,-4.8244,-4.9036,-4.9435,-4.9306,-4.8843,-4.793,-4.7439,-4.6853,-4.5996,-4.592,-4.6163,-4.6789,-4.6867,-4.6695,-4.6312,-4.7612,-4.7903,-4.6941,-4.8548,-4.8586,-4.6923,-4.6885,-4.6471,-4.5594,-4.5475,-4.5211,-4.4751,-4.4233,-4.3802,-4.3515,-4.3515,-4.3515,-4.3515,-4.3515,-4.3515,-4.3515,-4.3515,-4.3515,-4.3515,-4.3515,-4.3515,-4.3515,-4.9631,-4.9924,-5.0218,-5.0624,-5.0712,-5.0327,-4.924,-4.8509,-4.774,-4.6663,-4.5979,-4.5594,-4.5594,-4.5594,-4.5594,-4.5594,-4.5594,-4.5594,-4.5594,-4.5594,-4.5594,-4.5594,-4.5594,-4.5594,-4.5594,-4.5594,-4.5594,-4.5594,-4.5594,-4.5594,-4.5594,-4.5594,-4.5594,-4.5594,-4.5594,-4.5594,-4.5594,-4.5594,-4.5594,-4.5594,-4.5594,-4.5594,-4.5594,-4.5594,-4.5594,-4.5594,-4.5594,-4.5594,-4.5594,-4.5594,-4.5594,-4.5594,-4.5594,-4.5594,-4.5594,-4.5594,-4.5594,-4.5594,-4.5594,-4.5594,-4.5594,-4.5594,-4.5594,-4.5594,-4.5594,-4.5485,-4.5438,-4.5577,-4.5594,-4.5594,-4.5594,-4.6047,-4.654,-4.6936,-4.7584,-4.8167,-4.8574,-4.8379,-4.7989,-4.7381,-4.6885,-4.639,-4.584,-4.5803,-4.6021,-4.6629,-4.6662,-4.6579,-4.6346,-4.7876,-4.8501,-4.7865,-4.8856,-4.874,-4.7355,-4.7038,-4.6471,-4.5594,-4.5457,-4.5148,-4.4599,-4.4175,-4.3802,-4.3515,-4.3515,-4.3515,-4.3515,-4.3515,-4.3515,-4.3515,-4.3515,-4.3515,-4.3515,-4.3515,-4.3515,-4.3515,-5.0012,-5.0135,-5.0241,-5.0624,-5.0712,-5.0673,-5.0635,-4.924,-4.8163,-4.8125,-4.6701,-4.571,-4.571,-4.5633,-4.5594,-4.5594,-4.5594,-4.5594,-4.5594,-4.5594,-4.5594,-4.5594,-4.5594,-4.5594,-4.5594,-4.5594,-4.5594,-4.5594,-4.5594,-4.5594,-4.5594,-4.5594,-4.5594,-4.5594,-4.5594,-4.5594,-4.5594,-4.5594,-4.5594,-4.5594,-4.5594,-4.5594,-4.5594,-4.5594,-4.5594,-4.5594,-4.5594,-4.5594,-4.5594,-4.5594,-4.5594,-4.5594,-4.5594,-4.5594,-4.5594,-4.5594,-4.5594,-4.5594,-4.5594,-4.5594,-4.5594,-4.5594,-4.5594,-4.5594,-4.5594,-4.5371,-4.5222,-4.555,-4.5594,-4.5594,-4.5594,-4.5594,-4.5902,-4.6795,-4.704,-4.7401,-4.8228,-4.7717,-4.7235,-4.7036,-4.628,-4.5771,-4.5689,-4.5812,-4.5918,-4.5957,-4.6035,-4.6376,-4.7136,-4.8684,-4.9489,-4.9327,-4.9356,-4.8933,-4.8048,-4.7269,-4.6462,-4.5568,-4.5222,-4.4896,-4.4521,-4.4132,-4.3823,-4.3515,-4.3515,-4.3515,-4.3515,-4.3515,-4.3515,-4.3515,-4.3515,-4.3515,-4.3515,-4.3515,-4.3515,-4.3515,-5.0099,-5.0347,-5.0594,-5.0702,-5.0712,-5.0481,-4.9817,-4.9356,-4.8856,-4.8202,-4.724,-4.6586,-4.6586,-4.6009,-4.5594,-4.5594,-4.5594,-4.5594,-4.5594,-4.5594,-4.5594,-4.5594,-4.5594,-4.5594,-4.5594,-4.5594,-4.5594,-4.5594,-4.5594,-4.5594,-4.5594,-4.5594,-4.5594,-4.5594,-4.5594,-4.5594,-4.5594,-4.5594,-4.5594,-4.5594,-4.5594,-4.5594,-4.5594,-4.5594,-4.5594,-4.5594,-4.5594,-4.5594,-4.5594,-4.5594,-4.5594,-4.5594,-4.5594,-4.5594,-4.5594,-4.5594,-4.5594,-4.5594,-4.5594,-4.5594,-4.5594,-4.5594,-4.5594,-4.5594,-4.5594,-4.555,-4.5485,-4.5577,-4.5594,-4.5594,-4.5594,-4.5594,-4.5719,-4.6108,-4.6125,-4.6274,-4.6635,-4.6394,-4.6141,-4.6106,-4.585,-4.5915,-4.6509,-4.663,-4.6896,-4.7512,-4.8167,-4.863,-4.8822,-4.9208,-4.9142,-4.8432,-4.9048,-4.8702,-4.7192,-4.7,-4.634,-4.5211,-4.4884,-4.4508,-4.4117,-4.3791,-4.358,-4.3515,-4.3515,-4.3515,-4.3515,-4.3515,-4.3515,-4.3515,-4.3515,-4.3515,-4.3515,-4.3515,-4.3515,-4.3515,-5.0369,-5.0535,-5.0712,-5.0712,-5.0712,-5.0558,-5.0048,-4.9663,-4.924,-4.8779,-4.7663,-4.6885,-4.6885,-4.6124,-4.5594,-4.5594,-4.5594,-4.5594,-4.5594,-4.5594,-4.5594,-4.5594,-4.5594,-4.5594,-4.5594,-4.5594,-4.5594,-4.5594,-4.5594,-4.5594,-4.5594,-4.5594,-4.5594,-4.5594,-4.5594,-4.5594,-4.5594,-4.5594,-4.5594,-4.5594,-4.5594,-4.5594,-4.5594,-4.5594,-4.5594,-4.5594,-4.5594,-4.5594,-4.5594,-4.5594,-4.5594,-4.5594,-4.5594,-4.5594,-4.5594,-4.5594,-4.5594,-4.5594,-4.5594,-4.5594,-4.5594,-4.5594,-4.5466,-4.541,-4.5568,-4.5466,-4.5419,-4.5568,-4.5594,-4.5594,-4.5594,-4.5594,-4.5665,-4.583,-4.5801,-4.5846,-4.5957,-4.5853,-4.5789,-4.5703,-4.5632,-4.5932,-4.6817,-4.6885,-4.7231,-4.8048,-4.8548,-4.8971,-4.9394,-4.9394,-4.9163,-4.8702,-4.8779,-4.8202,-4.6923,-4.6509,-4.5889,-4.5115,-4.4763,-4.4373,-4.3982,-4.3627,-4.3515,-4.3515,-4.3515,-4.3515,-4.3515,-4.3515,-4.3515,-4.3551,-4.3901,-4.3828,-4.3551,-4.3901,-4.3828,-4.3515,-5.0712,-5.0712,-5.0712,-5.0712,-5.0712,-5.0712,-5.0712,-5.0048,-4.9586,-4.9586,-4.824,-4.724,-4.7077,-4.6317,-4.5748,-4.5594,-4.5594,-4.5594,-4.5594,-4.5594,-4.5594,-4.5594,-4.5594,-4.5594,-4.5594,-4.5594,-4.5594,-4.5594,-4.5594,-4.5594,-4.5594,-4.5594,-4.5594,-4.5594,-4.5594,-4.5594,-4.5594,-4.5594,-4.5594,-4.5594,-4.5594,-4.5594,-4.5594,-4.5594,-4.5594,-4.5594,-4.5594,-4.5594,-4.5594,-4.5594,-4.5594,-4.5594,-4.5594,-4.5594,-4.5594,-4.5594,-4.5594,-4.5594,-4.5594,-4.5594,-4.5594,-4.5594,-4.539,-4.5243,-4.555,-4.539,-4.5253,-4.555,-4.5594,-4.5594,-4.5594,-4.5594,-4.5624,-4.5789,-4.5796,-4.5789,-4.5815,-4.5796,-4.5795,-4.5804,-4.5787,-4.6201,-4.7201,-4.7278,-4.7625,-4.8432,-4.8509,-4.8817,-4.9548,-4.9356,-4.9202,-4.9202,-4.8509,-4.7663,-4.6701,-4.597,-4.541,-4.5011,-4.4751,-4.4346,-4.3927,-4.3647,-4.3549,-4.3563,-4.3532,-4.3549,-4.3563,-4.3532,-4.3515,-4.3588,-4.4378,-4.4268,-4.3754,-4.4452,-4.4268,-4.3644,-5.0712,-5.0712,-5.0712,-5.0712,-5.0712,-5.0712,-5.0712,-5.0596,-5.0519,-5.0519,-4.9625,-4.874,-4.8009,-4.7201,-4.6394,-4.5671,-4.5594,-4.5594,-4.5594,-4.5594,-4.5594,-4.5594,-4.5594,-4.5594,-4.5594,-4.5594,-4.5594,-4.5594,-4.5594,-4.5594,-4.5594,-4.5594,-4.5594,-4.5594,-4.5594,-4.5594,-4.5594,-4.5594,-4.5594,-4.5594,-4.5594,-4.5594,-4.5594,-4.5594,-4.5594,-4.5594,-4.5594,-4.5594,-4.5594,-4.5594,-4.5594,-4.5594,-4.5594,-4.5594,-4.5594,-4.5594,-4.5594,-4.5594,-4.5594,-4.5594,-4.5594,-4.5594,-4.5568,-4.555,-4.5586,-4.5568,-4.555,-4.5586,-4.5594,-4.5594,-4.5594,-4.5594,-4.5624,-4.5789,-4.5688,-4.5673,-4.5796,-4.5681,-4.5898,-4.6624,-4.6701,-4.7317,-4.8856,-4.9009,-4.9356,-5.025,-5.0289,-5.0366,-5.0481,-4.9086,-4.8317,-4.8317,-4.8163,-4.7355,-4.5825,-4.5671,-4.5283,-4.4688,-4.4637,-4.4256,-4.358,-4.3495,-4.3644,-4.3912,-4.3631,-4.3644,-4.3912,-4.3631,-4.3515,-4.3588,-4.4378,-4.4618,-4.4525,-4.4654,-4.4618,-4.4415,-5.0712,-5.0712,-5.0712,-5.0712,-5.0712,-5.0712,-5.0712,-5.0712,-5.0712,-5.0712,-4.9933,-4.9086,-4.8202,-4.7394,-4.6547,-4.5671,-4.5594,-4.5594,-4.5594,-4.5594,-4.5594,-4.5594,-4.5594,-4.5594,-4.5594,-4.5594,-4.5594,-4.5594,-4.5594,-4.5594,-4.5594,-4.5594,-4.5594,-4.5594,-4.5594,-4.5594,-4.5594,-4.5594,-4.5594,-4.5594,-4.5594,-4.5594,-4.5594,-4.5594,-4.5594,-4.5594,-4.5594,-4.5594,-4.5594,-4.5594,-4.5594,-4.5594,-4.5594,-4.5594,-4.5594,-4.5594,-4.5594,-4.5594,-4.5594,-4.5594,-4.5594,-4.5594,-4.5594,-4.5594,-4.5594,-4.5594,-4.5594,-4.5594,-4.5594,-4.5748,-4.6201,-4.5932,-4.5783,-4.6298,-4.5962,-4.5629,-4.5688,-4.5662,-4.5748,-4.6163,-4.6624,-4.7355,-4.8586,-4.9125,-4.9586,-4.9971,-5.001,-4.9779,-4.9317,-4.8548,-4.7894,-4.7471,-4.7009,-4.6624,-4.6317,-4.5649,-4.5066,-4.4612,-4.4373,-4.4004,-4.3515,-4.3677,-4.3849,-4.3982,-4.3833,-4.3849,-4.3967,-4.3833,-4.405,-4.4564,-4.5329,-4.5625,-4.5625,-4.544,-4.5076,-4.4599,-5.0712,-5.0712,-5.0712,-5.0712,-5.0712,-5.0712,-5.0712,-5.0712,-5.0712,-5.0712,-5.0125,-4.9356,-4.8509,-4.7663,-4.6817,-4.597,-4.571,-4.5594,-4.5594,-4.5594,-4.5594,-4.5594,-4.5594,-4.5594,-4.5594,-4.5594,-4.5594,-4.5594,-4.5594,-4.5594,-4.5594,-4.5594,-4.5594,-4.5594,-4.5594,-4.5594,-4.5594,-4.5594,-4.5594,-4.5594,-4.5594,-4.5594,-4.5594,-4.5594,-4.5594,-4.5594,-4.5594,-4.5594,-4.5594,-4.5594,-4.5594,-4.5594,-4.5594,-4.5594,-4.5594,-4.5594,-4.5594,-4.5594,-4.5594,-4.5594,-4.5594,-4.5594,-4.5594,-4.5594,-4.5594,-4.5594,-4.5594,-4.5594,-4.5594,-4.5787,-4.6471,-4.6047,-4.5825,-4.6509,-4.6047,-4.5594,-4.5594,-4.5594,-4.5748,-4.6133,-4.6778,-4.7586,-4.8625,-4.9125,-4.9394,-4.9394,-4.9202,-4.8817,-4.8125,-4.7932,-4.7548,-4.6923,-4.6047,-4.5932,-4.6586,-4.5607,-4.4931,-4.4612,-4.419,-4.3818,-4.3515,-4.3849,-4.4043,-4.4132,-4.4028,-4.4102,-4.4247,-4.4073,-4.4431,-4.5208,-4.6062,-4.6329,-4.618,-4.5952,-4.5406,-4.4635,-5.0712,-5.0712,-5.0712,-5.0712,-5.0712,-5.0712,-5.0712,-5.0712,-5.0712,-5.0712,-5.0635,-5.0289,-4.9394,-4.8548,-4.7702,-4.6855,-4.6086,-4.5594,-4.5594,-4.5594,-4.5594,-4.5594,-4.5594,-4.5594,-4.5594,-4.5594,-4.5594,-4.5594,-4.5594,-4.5594,-4.5594,-4.5594,-4.5594,-4.5594,-4.5594,-4.5594,-4.5594,-4.5594,-4.5594,-4.5594,-4.5594,-4.5594,-4.5594,-4.5594,-4.5594,-4.5594,-4.5594,-4.5594,-4.5594,-4.5594,-4.5594,-4.5594,-4.5594,-4.5594,-4.5594,-4.5594,-4.5594,-4.5594,-4.5594,-4.5594,-4.5594,-4.5594,-4.5594,-4.5594,-4.5594,-4.5594,-4.5594,-4.5594,-4.5594,-4.5633,-4.5671,-4.5633,-4.5633,-4.571,-4.5633,-4.5594,-4.5594,-4.5594,-4.6172,-4.774,-4.7971,-4.8663,-5.0366,-4.9817,-4.9394,-4.9394,-4.8663,-4.8163,-4.8086,-4.7394,-4.6962,-4.6885,-4.6047,-4.5633,-4.571,-4.5301,-4.4931,-4.4612,-4.419,-4.3818,-4.3515,-4.3849,-4.4204,-4.4546,-4.4161,-4.4401,-4.4966,-4.429,-4.4256,-4.4759,-4.5932,-4.594,-4.535,-4.5768,-4.5406,-4.4691,-5.0712,-5.0712,-5.0712,-5.0712,-5.0712,-5.0712,-5.0712,-5.0712,-5.0712,-5.0712,-5.0712,-5.0366,-4.951,-4.8625,-4.7778,-4.6962,-4.6086,-4.5594,-4.5594,-4.5594,-4.5594,-4.5594,-4.5594,-4.5594,-4.5594,-4.5594,-4.5594,-4.5594,-4.5594,-4.5594,-4.5594,-4.5594,-4.5594,-4.5594,-4.5594,-4.5594,-4.5594,-4.5594,-4.5594,-4.5594,-4.5594,-4.5594,-4.5594,-4.5594,-4.5594,-4.5594,-4.5594,-4.5594,-4.5594,-4.5594,-4.5594,-4.5594,-4.5594,-4.5594,-4.5594,-4.5594,-4.5594,-4.5594,-4.5594,-4.5594,-4.5594,-4.5594,-4.5594,-4.5594,-4.5594,-4.5594,-4.5594,-4.5594,-4.5594,-4.5787,-4.6317,-4.597,-4.5787,-4.6317,-4.5932,-4.5594,-4.5594,-4.6086,-4.6432,-4.6547,-4.7932,-4.8779,-4.8394,-4.8971,-4.8971,-4.7932,-4.7548,-4.7124,-4.6586,-4.624,-4.6086,-4.6086,-4.5787,-4.5754,-4.601,-4.522,-4.4587,-4.4219,-4.3849,-4.3742,-4.3818,-4.419,-4.4561,-4.4908,-4.4738,-4.4823,-4.5094,-4.4787,-4.494,-4.5391,-4.5853,-4.6023,-4.594,-4.5363,-4.4966,-4.4635,-5.0712,-5.0712,-5.0712,-5.0712,-5.0712,-5.0712,-5.0712,-5.0712,-5.0712,-5.0712,-5.0712,-5.0481,-4.9856,-4.9048,-4.8279,-4.774,-4.6663,-4.6009,-4.6009,-4.5748,-4.5594,-4.5594,-4.5594,-4.5594,-4.5594,-4.5594,-4.5594,-4.5594,-4.5594,-4.5594,-4.5594,-4.5594,-4.5594,-4.5594,-4.5594,-4.5594,-4.5594,-4.5594,-4.5594,-4.5594,-4.5594,-4.5594,-4.5594,-4.5594,-4.5594,-4.5594,-4.5594,-4.5594,-4.5594,-4.5594,-4.5594,-4.5594,-4.5594,-4.5594,-4.5594,-4.5594,-4.5594,-4.5594,-4.5594,-4.5594,-4.5594,-4.5594,-4.5594,-4.5594,-4.5594,-4.5594,-4.5594,-4.5594,-4.5594,-4.5787,-4.6394,-4.6009,-4.5787,-4.6394,-4.597,-4.5594,-4.5594,-4.6124,-4.6355,-4.6047,-4.7548,-4.8279,-4.7355,-4.8086,-4.8125,-4.7,-4.6663,-4.624,-4.5633,-4.5864,-4.6009,-4.6009,-4.624,-4.6359,-4.6309,-4.5167,-4.4387,-4.3982,-4.3644,-4.366,-4.3998,-4.4401,-4.4788,-4.5115,-4.5115,-4.5169,-4.5232,-4.5022,-4.5176,-4.5571,-4.5598,-4.5806,-4.5978,-4.5031,-4.4691,-4.4618,-5.0712,-5.0712,-5.0712,-5.0712,-5.0712,-5.0712,-5.0712,-5.0712,-5.0712,-5.0712,-5.0712,-5.0712,-5.0712,-4.9933,-4.9394,-4.9394,-4.7855,-4.6923,-4.6885,-4.6086,-4.5594,-4.5594,-4.5594,-4.5594,-4.5594,-4.5594,-4.5594,-4.5594,-4.5594,-4.5594,-4.5594,-4.5594,-4.5594,-4.5594,-4.5594,-4.5594,-4.5594,-4.5594,-4.5594,-4.5594,-4.5594,-4.5594,-4.5594,-4.5594,-4.5594,-4.5594,-4.5594,-4.5594,-4.5594,-4.5594,-4.5594,-4.5594,-4.5594,-4.5594,-4.5594,-4.5594,-4.5594,-4.5594,-4.5594,-4.5594,-4.5594,-4.5594,-4.5594,-4.5594,-4.5594,-4.5594,-4.5594,-4.5594,-4.5594,-4.5594,-4.5594,-4.5594,-4.5594,-4.5594,-4.5594,-4.5594,-4.5594,-4.5594,-4.5932,-4.6778,-4.6885,-4.7231,-4.8009,-4.7355,-4.6885,-4.6885,-4.6086,-4.5594,-4.5594,-4.6432,-4.6923,-4.6923,-4.7702,-4.7511,-4.6309,-4.5167,-4.4387,-4.3982,-4.366,-4.3677,-4.4013,-4.4414,-4.48,-4.5115,-4.5115,-4.5283,-4.5559,-4.4884,-4.48,-4.5125,-4.519,-4.5211,-4.5164,-4.4829,-4.4709,-4.4709,-5.0712,-5.0712,-5.0712,-5.0712,-5.0712,-5.0712,-5.0712,-5.0712,-5.0712,-5.0712,-5.0712,-5.0712,-5.0712,-4.9933,-4.9394,-4.9394,-4.8394,-4.7509,-4.6923,-4.6086,-4.5594,-4.5594,-4.5594,-4.5594,-4.5594,-4.5594,-4.5594,-4.5594,-4.5594,-4.5594,-4.5594,-4.5594,-4.5594,-4.5594,-4.5594,-4.5594,-4.5594,-4.5594,-4.5594,-4.5594,-4.5594,-4.5594,-4.5594,-4.5594,-4.5594,-4.5594,-4.5594,-4.5594,-4.5594,-4.5594,-4.5594,-4.5594,-4.5594,-4.5594,-4.5594,-4.5594,-4.5594,-4.5594,-4.5594,-4.5594,-4.5594,-4.5594,-4.5594,-4.5594,-4.5594,-4.5594,-4.5594,-4.5594,-4.5594,-4.5594,-4.5594,-4.5594,-4.5594,-4.5594,-4.5594,-4.5594,-4.5594,-4.6124,-4.6394,-4.6009,-4.7048,-4.7355,-4.6432,-4.6663,-4.6663,-4.6009,-4.6317,-4.6509,-4.6509,-4.7278,-4.774,-4.774,-4.7971,-4.7511,-4.6309,-4.5951,-4.5205,-4.3998,-4.4161,-4.4304,-4.4428,-4.48,-4.5148,-4.5448,-4.5448,-4.5523,-4.5607,-4.5748,-4.5721,-4.5558,-4.5298,-4.5074,-4.4773,-4.41,-4.3996,-4.4172,-5.0712,-5.0712,-5.0712,-5.0712,-5.0712,-5.0712,-5.0712,-5.0712,-5.0712,-5.0712,-5.0712,-5.0712,-5.0712,-5.025,-4.9894,-4.9894,-4.9125,-4.8279,-4.7432,-4.6894,-4.6586,-4.6586,-4.6586,-4.6278,-4.5594,-4.5594,-4.5594,-4.5594,-4.5594,-4.5594,-4.5594,-4.5594,-4.5594,-4.5594,-4.5594,-4.5594,-4.5594,-4.5594,-4.5594,-4.5594,-4.5594,-4.5594,-4.5594,-4.5594,-4.5594,-4.5594,-4.5594,-4.5594,-4.5594,-4.5594,-4.5594,-4.5594,-4.5594,-4.5594,-4.5594,-4.5594,-4.5594,-4.5671,-4.6009,-4.6124,-4.6201,-4.6509,-4.6095,-4.571,-4.6047,-4.6124,-4.6124,-4.6124,-4.6124,-4.6009,-4.5671,-4.5594,-4.5594,-4.5594,-4.5594,-4.5594,-4.5594,-4.6047,-4.6201,-4.5671,-4.6471,-4.6701,-4.571,-4.6086,-4.6163,-4.5633,-4.6701,-4.724,-4.6923,-4.8009,-4.8625,-4.8625,-4.8625,-4.8097,-4.7016,-4.6699,-4.5694,-4.3998,-4.4401,-4.4612,-4.4624,-4.4943,-4.5273,-4.5594,-4.5594,-4.5594,-4.5607,-4.5638,-4.571,-4.5725,-4.4861,-4.4804,-4.5039,-4.3901,-4.4036,-4.4663,-5.0943,-5.0943,-5.0943,-5.0943,-5.0943,-5.0904,-5.0827,-5.0827,-5.0789,-5.0712,-5.0712,-5.0712,-5.0712,-5.0712,-5.0712,-5.0712,-4.9894,-4.9048,-4.8279,-4.8125,-4.8086,-4.8086,-4.8086,-4.7394,-4.5864,-4.5825,-4.5748,-4.5594,-4.5671,-4.5671,-4.5594,-4.5594,-4.5594,-4.5594,-4.5594,-4.5594,-4.5594,-4.5594,-4.5594,-4.5594,-4.5594,-4.5594,-4.5594,-4.5594,-4.5633,-4.571,-4.571,-4.571,-4.571,-4.5633,-4.5594,-4.5594,-4.5594,-4.5594,-4.5594,-4.5594,-4.5671,-4.5893,-4.6701,-4.6962,-4.7192,-4.7932,-4.6932,-4.6009,-4.6817,-4.7,-4.7,-4.6923,-4.6885,-4.6624,-4.5748,-4.5594,-4.5594,-4.5594,-4.5594,-4.5633,-4.571,-4.571,-4.571,-4.571,-4.5787,-4.5787,-4.571,-4.5787,-4.5787,-4.571,-4.7278,-4.7894,-4.7163,-4.8625,-4.9471,-4.9394,-4.9394,-4.8933,-4.8009,-4.7278,-4.5938,-4.4102,-4.4495,-4.4688,-4.4663,-4.4988,-4.5293,-4.5594,-4.5594,-4.5577,-4.5523,-4.4948,-4.51,-4.558,-4.4165,-4.4488,-4.559,-4.4065,-4.4487,-4.5735,-5.2664,-5.2664,-5.2664,-5.2664,-5.2664,-5.2433,-5.1741,-5.1654,-5.1395,-5.0789,-5.0712,-5.0712,-5.0712,-5.0712,-5.0712,-5.0712,-4.9894,-4.9317,-4.9125,-4.8471,-4.8086,-4.8086,-4.8086,-4.7932,-4.7586,-4.7548,-4.6894,-4.5594,-4.6278,-4.6278,-4.5594,-4.5594,-4.5594,-4.5594,-4.5594,-4.5594,-4.5594,-4.5594,-4.5594,-4.5594,-4.5594,-4.5594,-4.5594,-4.5594,-4.6009,-4.6624,-4.6624,-4.6624,-4.6509,-4.5825,-4.5594,-4.5594,-4.5594,-4.5594,-4.5594,-4.5594,-4.6086,-4.6663,-4.6846,-4.7355,-4.7894,-4.8048,-4.7817,-4.7625,-4.7817,-4.7855,-4.7663,-4.7038,-4.6885,-4.6624,-4.5748,-4.5594,-4.5594,-4.5594,-4.5594,-4.5825,-4.6509,-4.6624,-4.6624,-4.6624,-4.7163,-4.7317,-4.6701,-4.7201,-4.7317,-4.6663,-4.8163,-4.9048,-4.8856,-4.9856,-5.0087,-4.9433,-4.9394,-4.8663,-4.7154,-4.7,-4.6214,-4.4884,-4.5222,-4.5243,-4.4988,-4.5361,-4.5541,-4.5594,-4.5594,-4.5448,-4.5218,-4.5433,-4.5463,-4.5251,-4.466,-4.4672,-4.4856,-4.3864,-4.4288,-4.5403,-5.3203,-5.3203,-5.3203,-5.3203,-5.3203,-5.3049,-5.2577,-5.25,-5.2241,-5.1395,-5.1625,-5.1587,-5.0789,-5.1048,-5.1125,-5.075,-5.0289,-5.001,-5.001,-4.9586,-4.9356,-4.9356,-4.9356,-4.9163,-4.874,-4.9125,-4.8509,-4.6778,-4.724,-4.724,-4.6778,-4.6778,-4.6778,-4.6778,-4.6394,-4.6432,-4.674,-4.5941,-4.5825,-4.6163,-4.5787,-4.5864,-4.6201,-4.6201,-4.6509,-4.6962,-4.7317,-4.7471,-4.7355,-4.6509,-4.6201,-4.6163,-4.5748,-4.5594,-4.5594,-4.5594,-4.6201,-4.6962,-4.7355,-4.8086,-4.8817,-4.924,-4.9356,-4.924,-4.8817,-4.8702,-4.8586,-4.8163,-4.7778,-4.724,-4.6355,-4.5893,-4.5594,-4.5594,-4.5594,-4.5748,-4.6201,-4.6624,-4.6885,-4.6885,-4.7269,-4.7355,-4.6923,-4.8009,-4.8355,-4.7548,-4.9048,-4.9817,-4.9433,-5.025,-5.0289,-4.9433,-4.9009,-4.8163,-4.6923,-4.6885,-4.6599,-4.5964,-4.5724,-4.5419,-4.5126,-4.5438,-4.5594,-4.5594,-4.5594,-4.541,-4.5094,-4.518,-4.5233,-4.518,-4.4847,-4.4929,-4.5223,-4.4782,-4.5372,-4.6531,-5.3626,-5.3626,-5.3626,-5.3626,-5.3626,-5.3587,-5.3433,-5.3433,-5.3126,-5.2231,-5.2731,-5.2664,-5.1279,-5.1741,-5.1741,-5.0789,-5.0827,-5.0894,-5.0894,-5.0894,-5.0894,-5.0894,-5.0894,-5.0548,-4.9856,-5.0394,-4.9856,-4.8086,-4.824,-4.824,-4.8086,-4.8086,-4.8086,-4.8086,-4.7394,-4.7471,-4.8009,-4.6624,-4.6432,-4.7048,-4.6317,-4.6471,-4.7115,-4.7115,-4.7201,-4.7432,-4.8086,-4.8317,-4.8202,-4.7231,-4.6885,-4.6778,-4.6047,-4.5825,-4.5864,-4.5979,-4.6624,-4.7471,-4.8125,-4.8971,-4.9779,-5.0519,-5.0712,-5.0519,-4.9779,-4.9625,-4.9586,-4.9433,-4.8702,-4.7855,-4.7038,-4.6201,-4.5594,-4.5594,-4.5594,-4.571,-4.5979,-4.6663,-4.7154,-4.7317,-4.7317,-4.7317,-4.7317,-4.8702,-4.924,-4.8394,-4.9779,-5.0366,-4.9663,-5.0327,-5.025,-4.9202,-4.8471,-4.7625,-4.6701,-4.6817,-4.6885,-4.6885,-4.6317,-4.5793,-4.543,-4.5687,-4.5748,-4.5594,-4.5594,-4.539,-4.4988,-4.4726,-4.4731,-4.4899,-4.4739,-4.5112,-4.5755,-4.6084,-4.6863,-4.7814,-5.5357,-5.5357,-5.5357,-5.5357,-5.5357,-5.5126,-5.4434,-5.4318,-5.401,-5.3126,-5.3126,-5.3126,-5.2895,-5.2972,-5.2395,-5.0827,-5.1356,-5.1731,-5.1731,-5.1731,-5.1731,-5.1731,-5.1731,-5.1692,-5.1538,-5.101,-4.9856,-4.8086,-4.8856,-4.8856,-4.8086,-4.8086,-4.8086,-4.8086,-4.8009,-4.8009,-4.8086,-4.7855,-4.7817,-4.7932,-4.7817,-4.7817,-4.7932,-4.7932,-4.8394,-4.9086,-4.9202,-4.9202,-4.8971,-4.7432,-4.6885,-4.6885,-4.6778,-4.674,-4.6855,-4.7548,-4.8394,-4.9086,-4.9202,-4.9856,-5.0558,-5.0673,-5.0712,-5.0673,-5.0558,-5.0519,-5.0327,-4.9548,-4.8702,-4.7855,-4.7038,-4.6201,-4.5594,-4.5594,-4.5594,-4.6095,-4.7548,-4.7855,-4.824,-4.8971,-4.9048,-4.9048,-4.9048,-4.9933,-5.0164,-4.9279,-5.0125,-5.0635,-5.0519,-5.0635,-4.9971,-4.8317,-4.8163,-4.7355,-4.5787,-4.6509,-4.6885,-4.6923,-4.7509,-4.7375,-4.6646,-4.6683,-4.6317,-4.5594,-4.5594,-4.5253,-4.4676,-4.4624,-4.4273,-4.3784,-4.4433,-4.4782,-4.5092,-4.6837,-4.7578,-4.7814,-5.5703,-5.5703,-5.5703,-5.5703,-5.5703,-5.5588,-5.5203,-5.5164,-5.4857,-5.4049,-5.4318,-5.4241,-5.3318,-5.3203,-5.2895,-5.2164,-5.2433,-5.2615,-5.2615,-5.2615,-5.2615,-5.2615,-5.2615,-5.2615,-5.2615,-5.2279,-5.1471,-5.0231,-5.0164,-4.9933,-4.9548,-4.9548,-4.9548,-4.951,-4.9048,-4.9086,-4.9471,-4.8509,-4.8394,-4.8779,-4.8317,-4.8394,-4.8817,-4.8817,-4.9086,-4.9394,-4.9394,-4.9702,-4.9933,-4.8702,-4.8317,-4.8202,-4.774,-4.7586,-4.7625,-4.8009,-4.8702,-4.9394,-4.9394,-5.0048,-5.0712,-5.0712,-5.0712,-5.0712,-5.0712,-5.0712,-5.0596,-5.0212,-4.9048,-4.8009,-4.7625,-4.6471,-4.5594,-4.5594,-4.6009,-4.6586,-4.7317,-4.824,-4.8971,-4.9356,-4.9817,-4.9933,-4.9433,-5.0212,-5.0558,-5.0173,-5.0481,-5.0712,-5.0712,-5.0712,-5.0125,-4.8856,-4.8817,-4.824,-4.7009,-4.7855,-4.8317,-4.8317,-4.9163,-4.8625,-4.6923,-4.7355,-4.7124,-4.6355,-4.6817,-4.6598,-4.5919,-4.5919,-4.5514,-4.4929,-4.5736,-4.6305,-4.6856,-4.821,-4.8724,-4.8746]},{"header":{"parameterUnit":"m.s-1","parameterCategory":1,"la1":30.6,"la2":28.766,"lo1":-90.7593,"lo2":-88.6598,"dy":0.0162,"dx":0.0183,"nx":116,"ny":114,"refTime":"2024-03-31T12:00:00:Z","depth":0,"parameterNumber":3,"parameterNumberName":"V-component_of_WINDS"},"data":[0.0,0.0,0.0,0.0,0.0,0.0,0.0,0.0,0.0,0.0,0.0,0.0,0.0,0.0,0.0,0.0,0.0,0.0,0.0,0.0,0.0,0.0,0.0,0.0,0.0,0.0,0.0,0.0,0.0,0.0,0.0,0.0,0.0,0.0,0.0,0.0,0.0,0.0,0.0,0.0,0.0,0.0,0.0,0.0,0.0,0.0,0.0,0.0,0.0,0.0,0.0,0.0,0.0,0.0,0.0,0.0,0.0,0.0,0.0,0.0,0.0,0.0,0.0,0.0,0.0,0.0,0.0,0.0,0.0,0.0,0.0,0.0,0.0,0.0,0.0,0.0,0.0,0.0,0.0,0.0,0.0,0.0,0.0,0.0,0.0,0.0,0.0,0.0,0.0,0.0,0.0,0.0,0.0,0.0,0.0,0.0,0.0,0.0,0.0,0.0,0.0,0.0,0.0,0.0,0.0,0.0,0.0,0.0,0.0,0.0,0.0,0.0,0.0,0.0,0.0,0.0,0.0,0.0,0.0,0.0,0.0,0.0,0.0,0.0,0.0,0.0,0.0,0.0,0.0,0.0,0.0,0.0,0.0,0.0,0.0,0.0,0.0,0.0,0.0,0.0,0.0,0.0,0.0,0.0,0.0,0.0,0.0,0.0,0.0,0.0,0.0,0.0,0.0,0.0,0.0,0.0,0.0,0.0,0.0,0.0,0.0,0.0,0.0,0.0,0.0,0.0,0.0,0.0,0.0,0.0,0.0,0.0,0.0,0.0,0.0,0.0,0.0,0.0,0.0,0.0,0.0,0.0,0.0,0.0,0.0,0.0,0.0,0.0,0.0,0.0,0.0,0.0,0.0,0.0,0.0,0.0,0.0,0.0,0.0,0.0,0.0,0.0,0.0,0.0,0.0,0.0,0.0,0.0,0.0,0.0,0.0,0.0,0.0,0.0,0.0,0.0,0.0,0.0,0.0,0.0,0.0,0.0,0.0,0.0,0.0,0.0,0.0,0.0,0.0,0.0,0.0,0.0,0.0,0.0,0.0,0.0,0.0,0.0,0.0,0.0,0.0,0.0,0.0,0.0,0.0,0.0,0.0,0.0,0.0,0.0,0.0,0.0,0.0,0.0,0.0,0.0,0.0,0.0,0.0,0.0,0.0,0.0,0.0,0.0,0.0,0.0,0.0,0.0,0.0,0.0,0.0,0.0,0.0,0.0,0.0,0.0,0.0,0.0,0.0,0.0,0.0,0.0,0.0,0.0,0.0,0.0,0.0,0.0,0.0,0.0,0.0,0.0,0.0,0.0,0.0,0.0,0.0,0.0,0.0,0.0,0.0,0.0,0.0,0.0,0.0,0.0,0.0,0.0,0.0,0.0,0.0,0.0,0.0,0.0,0.0,0.0,0.0,0.0,0.0,0.0,0.0,0.0,0.0,0.0,0.0,0.0,0.0,0.0,0.0,0.0,0.0,0.0,0.0,0.0,0.0,0.0,0.0,0.0,0.0,0.0,0.0,0.0,0.0,0.0,0.0,0.0,0.0,0.0,0.0,0.0,0.0,0.0,0.0,0.0,0.0,0.0,0.0,0.0,0.0,0.0,0.0,0.0,0.0,0.0,0.0,0.0,0.0,0.0,0.0,0.0,0.0,0.0,0.0,0.0,0.0,0.0,0.0,0.0,0.0,0.0,0.0,0.0,0.0,0.0,0.0,0.0,0.0,0.0,0.0,0.0,0.0,0.0,0.0,0.0,0.0,0.0,0.0,0.0,0.0,0.0,0.0,0.0,0.0,0.0,0.0,0.0,0.0,0.0,0.0,0.0,0.0,0.0,0.0,0.0,0.0,0.0,0.0,0.0,0.0,0.0,0.0,0.0,0.0,0.0,0.0,0.0,0.0,0.0,0.0,0.0,0.0,0.0,0.0,0.0,0.0,0.0,0.0,0.0,0.0,0.0,0.0,0.0,0.0,0.0,0.0,0.0,0.0,0.0,0.0,0.0,0.0,0.0,0.0,0.0,0.0,0.0,0.0,0.0,0.0,0.0,0.0,0.0,0.0,0.0,0.0,0.0,0.0,0.0,0.0,0.0,0.0,0.0,0.0,0.0,0.0,0.0,0.0,0.0,0.0,0.0,0.0,0.0,0.0,0.0,0.0,0.0,0.0,0.0,0.0,0.0,0.0,0.0,0.0,0.0,0.0,0.0,0.0,0.0,0.0,0.0,0.0,0.0,0.0,0.0,0.0,0.0,0.0,0.0,0.0,0.0,0.0,0.0,0.0,0.0,0.0,0.0,0.0,0.0,0.0,0.0,0.0,0.0,0.0,0.0,0.0,0.0,0.0,0.0,0.0,0.0,0.0,0.0,0.0,0.0,0.0,0.0,0.0,0.0,0.0,0.0,0.0,0.0,0.0,0.0,0.0,0.0,0.0,0.0,0.0,0.0,0.0,0.0,0.0,0.0,0.0,0.0,0.0,0.0,0.0,0.0,0.0,0.0,0.0,0.0,0.0,0.0,0.0,0.0,0.0,0.0,0.0,0.0,0.0,0.0,0.0,0.0,0.0,0.0,0.0,0.0,0.0,0.0,0.0,0.0,0.0,0.0,0.0,0.0,0.0,0.0,0.0,0.0,0.0,0.0,0.0,0.0,0.0,0.0,0.0,0.0,0.0,0.0,0.0,0.0,0.0,0.0,0.0,0.0,0.0,0.0,0.0,0.0,0.0,0.0,0.0,0.0,0.0,0.0,0.0,0.0,0.0,0.0,0.0,0.0,0.0,0.0,0.0,0.0,0.0,0.0,0.0,0.0,0.0,0.0,0.0,0.0,0.0,0.0,0.0,0.0,0.0,0.0,0.0,0.0,0.0,0.0,0.0,0.0,0.0,0.0,0.0,0.0,0.0,0.0,0.0,0.0,0.0,0.0,0.0,0.0,0.0,0.0,0.0,0.0,0.0,0.0,0.0,0.0,0.0,0.0,0.0,0.0,0.0,0.0,0.0,0.0,0.0,0.0,0.0,0.0,0.0,0.0,0.0,0.0,0.0,0.0,0.0,0.0,0.0,0.0,0.0,0.0,0.0,0.0,0.0,0.0,0.0,0.0,0.0,0.0,0.0,0.0,0.0,0.0,0.0,0.0,0.0,0.0,0.0,0.0,0.0,0.0,0.0,0.0,0.0,0.0,0.0,0.0,0.0,0.0,0.0,0.0,0.0,0.0,0.0,0.0,0.0,0.0,0.0,0.0,0.0,0.0,0.0,0.0,0.0,0.0,0.0,0.0,0.0,0.0,0.0,0.0,0.0,0.0,0.0,0.0,0.0,0.0,0.0,0.0,0.0,0.0,0.0,0.0,0.0,0.0,0.0,0.0,0.0,0.0,0.0,0.0,0.0,0.0,0.0,0.0,0.0,0.0,0.0,0.0,0.0,0.0,0.0,0.0,0.0,0.0,0.0,0.0,0.0,0.0,0.0,0.0,0.0,0.0,0.0,0.0,0.0,0.0,0.0,0.0,0.0,0.0,0.0,0.0,0.0,0.0,0.0,0.0,0.0,0.0,0.0,0.0,0.0,0.0,0.0,0.0,0.0,0.0,0.0,0.0,0.0,0.0,0.0,0.0,0.0,0.0,0.0,0.0,0.0,0.0,0.0,0.0,0.0,0.0,0.0,0.0,0.0,0.0,0.0,0.0,0.0,0.0,0.0,0.0,0.0,0.0,0.0,0.0,0.0,0.0,0.0,0.0,0.0,0.0,0.0,0.0,0.0,0.0,0.0,0.0,0.0,0.0,0.0,0.0,0.0,0.0,0.0,0.0,0.0,0.0,0.0,0.0,0.0,0.0,0.0,0.0,0.0,0.0,0.0,0.0,0.0,0.0,0.0,0.0,0.0,0.0,0.0,0.0,0.0,0.0,0.0,0.0,0.0,0.0,0.0,0.0,0.0,0.0,0.0,0.0,0.0,0.0,0.0,0.0,0.0,0.0,0.0,0.0,0.0,0.0,0.0,0.0,0.0,0.0,0.0,0.0,0.0,0.0,0.0,0.0,0.0,0.0,0.0,0.0,0.0,0.0,0.0,0.0,0.0,0.0,0.0,0.0,0.0,0.0,0.0,0.0,0.0,0.0,0.0,0.0,0.0,0.0,0.0,0.0,0.0,0.0,0.0,0.0,0.0,0.0,0.0,0.0,0.0,0.0,0.0,0.0,0.0,0.0,0.0,0.0,0.0,0.0,0.0,0.0,0.0,0.0,0.0,0.0,0.0,0.0,0.0,0.0,0.0,0.0,0.0,0.0,0.0,0.0,0.0,0.0,0.0,0.0,0.0,0.0,0.0,0.0,0.0,0.0,0.0,0.0,0.0,0.0,0.0,0.0,0.0,0.0,0.0,0.0,0.0,0.0,0.0,0.0,0.0,0.0,0.0,0.0,0.0,0.0,0.0,0.0,0.0,0.0,0.0,0.0,0.0,0.0,0.0,0.0,0.0,0.0,0.0,0.0,0.0,0.0,0.0,0.0,0.0,0.0,0.0,0.0,0.0,0.0,0.0,0.0,0.0,0.0,0.0,0.0,0.0,0.0,0.0,0.0,0.0,0.0,0.0,0.0,0.0,0.0,0.0,0.0,0.0,0.0,0.0,0.0,0.0,0.0,0.0,0.0,0.0,0.0,0.0,0.0,0.0,0.0,0.0,0.0,0.0,0.0,0.0,0.0,0.0,0.0,0.0,0.0,0.0,0.0,0.0,0.0,0.0,0.0,0.0,0.0,0.0,0.0,0.0,0.0,0.0,0.0,0.0,0.0,0.0,0.0,0.0,0.0,0.0,0.0,0.0,0.0,0.0,0.0,0.0,0.0,0.0,0.0,0.0,0.0,0.0,0.0,0.0,0.0,0.0,0.0,0.0,0.0,0.0,0.0,0.0,0.0,0.0,0.0,0.0,0.0,0.0,0.0,0.0,0.0,0.0,0.0,0.0,0.0,0.0,0.0,0.0,0.0,0.0,0.0,0.0,0.0,0.0,0.0,0.0,0.0,0.0,0.0,0.0,0.0,0.0,0.0,0.0,0.0,0.0,0.0,0.0,0.0,0.0,0.0,0.0,0.0,0.0,0.0,0.0,0.0,0.0,0.0,0.0,0.0,0.0,0.0,0.0,0.0,0.0,0.0,0.0,0.0,0.0,0.0,0.0,0.0,0.0,0.0,0.0,0.0,0.0,0.0,0.0,0.0,0.0,0.0,0.0,0.0,0.0,0.0,0.0,0.0,0.0,0.0,0.0,0.0,0.0,0.0,0.0,0.0,0.0,0.0,0.0,0.0,0.0,0.0,0.0,0.0,0.0,0.0,0.0,0.0,0.0,0.0,0.0,0.0,0.0,0.0,0.0,0.0,0.0,0.0,0.0,0.0,0.0,0.0,0.0,0.0,0.0,0.0,0.0,0.0,0.0,0.0,0.0,0.0,0.0,0.0,0.0,0.0,0.0,0.0,0.0,0.0,0.0,0.0,0.0,0.0,0.0,0.0,0.0,0.0,0.0,0.0,0.0,0.0,0.0,0.0,0.0,0.0,0.0,0.0,0.0,0.0,0.0,0.0,0.0,0.0,0.0,0.0,0.0,0.0,0.0,0.0,0.0,0.0,0.0,0.0,0.0,0.0,0.0,0.0,0.0,0.0,0.0,0.0,0.0,0.0,0.0,0.0,0.0,0.0,0.0,0.0,0.0,0.0,0.0,0.0,0.0,0.0,0.0,0.0,0.0,0.0,0.0,0.0,0.0,0.0,0.0,0.0,0.0,0.0,0.0,0.0,0.0,0.0,0.0,0.0,0.0,0.0,0.0,0.0,0.0,0.0,0.0,0.0,0.0,0.0,0.0,0.0,0.0,0.0,0.0,0.0,0.0,0.0,0.0,0.0,0.0,0.0,0.0,0.0,0.0,0.0,0.0,0.0,0.0,0.0,0.0,0.0,0.0,0.0,0.0,0.0,0.0,0.0,0.0,0.0,0.0,0.0,0.0,0.0,0.0,0.0,0.0,0.0,0.0,0.0,0.0,0.0,0.0,0.0,0.0,0.0,0.0,0.0,0.0,0.0,0.0,0.0,0.0,0.0,0.0,0.0,0.0,0.0,0.0,0.0,1.1614,0.9325,0.0,0.0,0.0,0.0,0.0,0.0,0.0,0.0,0.0,0.0,0.0,0.0,0.0,0.0,0.0,0.0,0.0,0.0,0.0,0.0,0.0,0.0,0.0,-0.3231,-0.3026,-0.4726,-0.4916,-0.6246,-0.948,0.0,0.0,0.0,0.0,0.0,-0.4518,-0.1569,0.0,0.0,0.0653,0.1348,0.2034,0.2144,0.1747,0.0905,0.0,0.0,0.0,0.0,0.0,0.0,0.0,0.0,0.0,0.0,0.0,0.0,0.0,0.0,0.0,0.0,0.0,0.0,0.0,0.0,0.0,0.0,0.0,0.0,0.0,0.0,0.0,0.0,0.0,0.0,0.0,0.0,0.0,0.0,0.0,0.0,0.0,0.0,0.0,0.0,0.0,0.0,0.0,0.0,0.0,0.0,0.0,0.0,0.0,0.0,0.0,0.0,0.0,0.0,0.0,0.0,0.0,0.0,0.0,0.0,0.0,0.0,0.0,0.0,0.0,0.0,0.0,0.0,0.0,0.0,1.6359,1.3895,0.0,0.0,0.0,0.0,0.0,0.0,0.0,0.0,0.0,0.0,0.0,0.0,0.0,0.0,0.0,0.0,0.0,0.0,0.0,0.0,0.0,-0.5842,-0.4616,-0.2882,-0.2624,-0.4719,-0.4916,-0.6224,-0.938,-0.9462,0.0,0.0,-0.6153,-0.4521,-0.4478,-0.1555,0.0116,0.0353,0.1725,0.3122,0.4581,0.4495,0.3902,0.2748,0.1087,0.0,0.0,0.0,0.0,0.0,0.0,0.0,0.0,0.0,0.0,0.0,0.0,0.0,0.0,0.0,0.0,0.0,0.0,0.0,0.0,0.0,0.0,0.0,0.0,0.0,0.0,0.0,0.0,0.0,0.0,0.0,0.0,0.0,0.0,0.0,0.0,0.0,0.0,0.0,0.0,0.0,0.0,0.0,0.0,0.0,0.0,0.0,0.0,0.0,0.0,0.0,0.0,0.0,0.0,0.0,0.0,0.0,0.0,0.0,0.0,0.0,0.0,0.0,2.3584,2.3708,2.4162,2.3836,2.3752,2.3593,2.1122,1.8905,1.7006,1.6906,0.0,0.0,0.0,0.0,0.0,0.0,0.0,0.0,0.0,0.0,0.0,0.0,0.0,0.0,0.0,0.0,0.0,0.0,0.0,-0.4707,-0.4503,-0.1963,-0.1511,-0.4603,-0.4916,-0.6224,-0.938,-0.9462,-0.9313,-0.9214,-0.6162,-0.4481,-0.4496,-0.1523,0.0587,0.1762,0.3199,0.4622,0.6003,0.4985,0.504,0.597,0.3162,0.1787,0.1387,0.0,0.0,0.0,0.0,0.0,0.0,0.0,0.0,0.0,0.0,0.0,0.0,0.0,0.0,0.0,0.0,0.0,0.0,0.0,0.0,0.0,0.0,0.0,0.0,0.0,0.0,0.0,0.0,0.0,0.0,0.0,0.0,0.0,0.0,0.0,0.0,0.0,0.0,0.0,0.0,0.0,1.6294,1.6157,0.0,0.0,0.0,0.0,0.0,0.0,0.0,0.0,0.0,0.0,0.0,0.0,0.0,2.1824,2.2556,2.2884,2.3823,2.529,2.5577,2.6188,2.7113,2.7108,2.7089,2.7036,2.6669,0.0,2.0314,1.9813,0.0,0.0,0.0,0.0,0.0,0.0,0.0,0.0,0.0,0.0,0.0,0.0,0.0,0.0,0.0,0.0,0.0,0.0,0.0,0.0,0.0,-0.1857,-0.1268,-0.4485,-0.4831,-0.6176,-0.92,-0.9367,-0.9279,-0.9042,-0.6093,-0.4495,-0.4508,-0.1551,0.0684,0.1973,0.3614,0.4622,0.5134,0.4716,0.487,0.5388,0.3185,0.2291,0.2165,-0.1142,0.0,0.0,0.0,0.0,0.0,0.0,0.0,0.0,0.0,0.0,0.0,0.0,0.0,0.0,0.0,0.0,0.0,0.0,0.0,0.0,0.0,0.0,0.0,0.0,0.0,0.0,0.0,0.0,0.0,0.0,0.0,0.0,0.0,0.0,0.0,0.0,0.0,0.0,0.0,1.6937,1.9013,1.8589,1.7533,1.6251,0.0,0.0,0.0,0.0,0.0,0.0,0.0,0.0,0.0,2.3756,2.4036,2.4597,2.5585,2.5987,2.6458,2.7119,2.7255,2.7577,2.8027,2.8027,2.8027,2.8027,2.8027,2.6921,2.4984,2.3457,2.1486,1.9257,0.0,0.0,0.0,0.0,1.716,1.7272,0.0,0.0,0.0,0.0,0.0,0.0,0.0,0.0,0.0,0.0,0.0,0.0,-0.4106,-0.1615,-0.1257,-0.4416,-0.4784,-0.6116,-0.9007,-0.9316,-0.9034,-0.8387,-0.5888,-0.4296,-0.3948,-0.1015,0.1,0.2019,0.3644,0.4329,0.4218,0.4404,0.4538,0.4483,0.2892,0.2284,0.2224,-0.0659,-0.2809,-0.4413,0.0,0.0,0.0,0.0,0.0,0.0,0.0,0.0,0.0,0.0,0.0,0.0,0.0,0.0,0.0,0.0,0.0,0.0,0.0,0.0,0.0,0.0,0.0,0.0,0.0,0.0,0.0,0.0,0.0,0.0,0.0,0.0,0.0,0.0,0.0,0.0,0.0,1.9328,2.1148,2.117,2.0698,1.9525,0.0,0.0,0.0,0.0,0.0,0.0,2.371,2.4101,2.4792,2.5959,2.6215,2.6861,2.7988,2.8184,2.8301,2.8301,2.8301,2.8301,2.8281,2.8184,2.8125,2.8125,2.8008,2.7969,2.7857,2.6191,2.4484,2.2723,2.1103,2.019,1.9861,2.0163,2.02,2.0255,0.0,0.0,0.0,0.0,0.0,0.0,0.0,0.0,0.0,0.0,0.0,-0.4089,-0.2522,-0.0942,-0.1295,-0.4402,-0.4704,-0.5983,-0.9001,-0.9214,-0.847,-0.6871,-0.5326,-0.3831,-0.2349,0.0451,0.1943,0.2019,0.3491,0.4198,0.4198,0.4381,0.4567,0.4643,0.2969,0.2191,0.2102,0.0533,-0.1119,-0.2763,-0.4223,0.0,0.0,0.0,0.0,0.0,0.0,0.0,0.0,0.0,0.0,0.0,0.0,0.0,0.0,0.0,0.0,0.0,0.0,0.0,0.0,0.0,0.0,0.0,0.0,0.0,0.0,0.0,0.0,0.0,0.0,0.0,0.0,0.0,0.0,0.0,0.0,0.0,0.0,2.4333,2.4718,0.0,0.0,0.0,0.0,2.3336,2.456,2.5558,2.61,2.7346,2.8237,2.87,2.8349,2.8384,2.8848,2.8476,2.8301,2.8301,2.8301,2.8301,2.8281,2.7871,2.7748,2.7728,2.7266,2.709,2.707,2.6929,2.5907,2.4289,2.3363,2.2101,2.086,2.2025,2.2189,2.1867,0.0,0.0,0.0,0.0,0.0,-0.9103,-0.8905,-0.9062,-0.9014,-0.8526,-0.6272,-0.4522,-0.3979,-0.2519,-0.2435,-0.4399,-0.559,-0.7013,-0.8874,-0.9103,-0.8464,-0.676,-0.5278,-0.3326,-0.0847,0.1122,0.1674,0.0722,0.2217,0.2451,0.1522,0.1571,0.1647,0.1632,0.1056,0.0772,0.0723,0.024,-0.1543,-0.3922,-0.4243,-0.6039,0.0,0.0,0.0,0.0,0.0,0.0,0.0,0.0,0.0,0.0,0.0,0.0,0.0,0.0,0.0,0.0,0.0,0.0,0.0,0.0,0.0,0.0,0.0,0.0,0.0,0.0,0.0,0.0,0.0,0.0,0.0,0.0,0.0,0.0,0.0,0.0,0.0,2.6918,2.6809,0.0,2.5089,2.5233,2.5465,2.5712,2.6956,2.7908,2.8401,2.8881,2.9062,2.8926,2.8769,2.8633,2.8516,2.8359,2.8164,2.7891,2.7891,2.7734,2.7461,2.7305,2.7246,2.7246,2.709,2.7012,2.6992,2.6719,2.6253,2.5641,2.5069,2.4455,2.4015,2.442,2.4364,2.3983,0.0,0.0,0.0,0.0,-0.9207,-0.9103,-0.8905,-0.9062,-0.9014,-0.8532,-0.6773,-0.5318,-0.4888,-0.3916,-0.388,-0.528,-0.6391,-0.7619,-0.8917,-0.8601,-0.7623,-0.6033,-0.4058,-0.2047,-0.0055,0.0936,0.0991,0.0,0.0991,0.0945,0.0,0.0,0.0,0.0,0.0,0.0,-0.006,-0.0606,-0.2031,-0.3891,-0.4205,-0.598,-0.842,0.0,0.0,0.0,0.0,0.0,0.0,0.0,0.0,0.0,0.0,0.0,0.0,0.0,0.0,0.0,0.0,0.0,0.0,0.0,0.0,0.0,0.0,0.0,0.0,0.0,0.0,0.0,0.0,0.0,0.0,0.0,0.0,0.0,0.0,2.4922,2.7253,2.8179,2.8499,2.8276,2.725,2.7418,2.7753,2.8015,2.8836,2.9551,3.0,2.9863,2.9648,2.9355,2.9062,2.8789,2.8516,2.8359,2.8086,2.7728,2.7728,2.7441,2.7012,2.6875,2.6797,2.6797,2.6641,2.6504,2.6348,2.623,2.5996,2.5703,2.5566,2.5508,2.5488,2.5304,2.5098,2.4805,0.0,0.0,0.0,-0.9319,-0.9207,-0.9159,-0.9016,-0.9118,-0.8634,-0.6971,-0.696,-0.6506,-0.4925,-0.4878,-0.5546,-0.6988,-0.7031,-0.7621,-0.9107,-0.7606,-0.6028,-0.4467,-0.1596,0.0,0.0,0.0,0.0,0.0,0.0,0.0,0.0,0.0,0.0,0.0,0.0,0.0,-0.0181,-0.1837,-0.2457,-0.2465,-0.3948,-0.5547,-0.7193,0.0,0.0,0.0,0.0,0.0,0.0,0.0,0.0,0.0,0.0,0.0,0.0,0.0,0.0,0.0,0.0,0.0,0.0,0.0,0.0,0.0,0.0,0.0,0.0,0.0,0.0,0.0,0.0,0.0,0.0,0.0,0.0,0.0,2.4803,2.6154,2.7326,2.8257,2.9863,3.0391,2.9101,2.9726,3.0215,3.0215,3.0215,3.041,3.084,3.0449,3.0176,3.0156,2.9355,2.8906,2.8906,2.8496,2.8066,2.7708,2.7708,2.7422,2.6973,2.6562,2.6367,2.6348,2.5918,2.5488,2.5165,2.5547,2.5148,2.4453,2.4902,2.5106,2.5047,2.457,2.4414,2.4277,0.0,0.0,-0.9722,-1.0578,-0.9878,-0.949,-1.0374,-0.9775,-0.9037,-0.8577,-0.7714,-0.6945,-0.6487,-0.6584,-0.6832,-0.7099,-0.8084,-0.8845,-0.9164,-0.7606,-0.5554,-0.2967,-0.1016,0.0,0.0,0.0,0.0,0.0,0.0,0.0,0.0,0.0,0.0,0.0,0.0,-0.0653,-0.1867,-0.2325,-0.3675,-0.564,-0.5974,-0.768,-0.9984,0.0,0.0,0.0,0.0,0.0,0.0,0.0,0.0,0.0,0.0,0.0,0.0,0.0,0.0,0.0,0.0,0.0,0.0,0.0,0.0,0.0,0.0,0.0,0.0,0.0,0.0,0.0,0.0,0.0,0.0,0.0,2.2493,2.5254,2.6245,2.7826,2.9178,3.006,3.0605,3.0742,3.0391,3.0566,3.0703,3.0703,3.0703,3.0605,3.0391,3.0273,2.9902,2.9297,2.9043,2.8769,2.8476,2.8359,2.793,2.7187,2.7187,2.6797,2.6044,2.5908,2.5869,2.5918,2.5752,2.5615,2.5527,2.5332,2.4922,2.4453,2.4902,2.4863,2.459,2.4453,2.4219,2.3887,0.0,-0.9578,-0.9734,-1.0436,-0.9802,-0.9455,-1.0191,-0.9651,-0.9187,-0.9069,-0.8545,-0.8119,-0.8078,-0.8295,-0.8359,-0.8239,-0.9025,-0.9442,-0.9347,-0.7142,-0.4467,-0.1422,-0.0483,0.0,0.0,0.0,0.0,0.0,0.0,0.0,0.0,0.0,0.0,0.0,0.0,-0.0953,-0.2553,-0.3248,-0.5203,-0.795,-0.852,-0.9738,-1.117,-1.0132,-1.0351,-1.105,-0.9545,-0.8717,-0.8125,-0.6422,0.0,0.0,0.0,0.0,0.0,0.0,0.0,0.0,0.0,0.0,0.0,0.0,0.0,0.0,0.0,0.0,0.0,0.0,0.0,0.0,0.0,0.0,0.0,0.0,2.4456,2.6554,2.8052,2.9218,3.0098,3.0801,3.0898,3.0898,3.0898,3.0898,3.0898,3.0898,3.0898,3.0684,3.0215,3.0039,2.9629,2.8945,2.875,2.8535,2.8301,2.8125,2.7695,2.7012,2.6836,2.6406,2.5693,2.5693,2.5693,2.5693,2.5693,2.5577,2.5449,2.5371,2.4883,2.418,0.0,0.0,0.0,0.0,2.3887,2.3477,-0.9822,-0.972,-0.9685,-0.9849,-0.9497,-0.9305,-0.944,-0.9334,-0.9123,-0.8905,-0.9334,-0.9544,-0.9374,-0.9618,-0.9788,-0.9774,-0.9659,-0.9453,-0.9078,-0.6325,-0.3267,-0.011,0.0,0.0,0.0,0.0,0.0,0.0,0.0,0.0,0.0,0.0,0.0,0.0,-0.0177,-0.1199,-0.2893,-0.4487,-0.6919,-0.97,-1.1191,-1.1776,-1.1827,-1.1533,-1.1569,-1.1576,-1.0016,-0.8405,-0.671,-0.4984,0.0,0.0,0.0,0.0,0.0,0.0,0.0,0.0,0.0,0.0,0.0,0.0,0.0,0.0,0.0,0.0,0.0,0.0,0.0,0.0,0.0,0.0,0.0,0.0,2.6408,2.7567,2.9927,3.0273,3.041,3.0762,3.0859,3.0859,3.082,3.0859,3.0898,3.0898,3.084,3.0605,3.0156,2.9726,0.0,0.0,0.0,2.8301,2.8301,2.7871,2.7441,2.7012,2.6582,2.6152,2.5693,2.5693,2.5693,2.5693,2.5693,2.5508,2.5176,2.5527,2.4922,2.3789,2.373,2.3711,2.3711,2.3711,2.3477,2.3101,-0.9822,-0.9795,-1.0102,-1.1213,-1.0377,-0.9837,-1.0747,-1.0045,-0.9239,-0.8919,-0.9334,-0.9503,-0.9282,-0.9469,-0.9598,-0.9476,-0.9442,-0.8375,-0.5837,-0.4934,-0.3175,-0.011,0.0,0.0,0.0,0.0,0.0,0.0,0.0,0.0,0.0,0.0,0.0,-0.006,-0.1439,-0.2903,-0.4548,-0.6198,-0.8672,-1.1552,-1.2811,-1.4061,-1.502,-1.3729,-1.3308,-1.324,-1.1797,-0.9593,-0.6839,-0.371,-0.1497,0.0554,0.3612,0.4773,0.0,0.0,0.0,0.0,0.0,0.0,0.0,0.0,0.0,0.0,0.0,0.0,0.0,0.0,0.0,0.0,0.0,0.0,0.0,2.6372,2.8295,2.9755,3.0664,3.0762,3.0644,3.0371,3.0664,3.0742,3.0371,3.0664,3.0898,3.0898,3.0547,3.0137,2.9707,2.9277,2.8848,2.8437,2.834,2.8301,2.8301,2.7871,2.7441,2.7012,2.6582,0.0,2.5693,2.5693,2.5693,2.5693,2.5693,2.5635,2.5538,2.5312,2.4648,2.375,2.3354,2.3218,2.3218,2.3218,2.3159,2.3101,-0.9822,-0.9822,-1.0016,-1.0569,-1.008,-0.9766,-1.0261,-0.9788,-0.9327,-0.9178,-0.9422,-0.9551,-0.9401,-0.9585,-0.9652,-0.951,-0.9422,-0.8061,-0.4926,-0.4657,-0.3198,-0.0114,0.0,0.0,0.0,-0.0713,-0.1083,-0.1118,-0.1861,-0.1834,-0.1108,-0.1115,-0.069,-0.006,-0.1746,-0.3396,-0.5039,-0.6691,-0.9566,-1.3082,-1.3663,-1.5352,-1.7322,-1.5509,-1.4399,-1.3658,-1.2338,-0.9413,-0.5876,-0.4153,-0.0855,0.2874,0.4564,0.6202,0.7519,0.0,0.0,0.0,0.0,0.0,0.0,0.0,0.0,0.0,0.0,0.0,0.0,0.0,0.0,1.4795,1.907,0.0,2.5667,2.8239,2.9506,3.0351,3.082,3.0898,3.0801,3.0566,3.0762,3.0801,3.0566,3.0762,3.0898,3.0898,3.0449,3.0019,2.959,2.916,2.873,2.8301,2.8301,2.8184,2.7988,2.7559,2.7129,2.6699,2.6269,2.5957,2.5693,2.5693,2.5693,2.5693,2.5693,2.5605,2.5352,2.4707,2.418,2.375,2.3257,2.3101,2.3101,2.3101,2.3101,2.3101,-0.9822,-0.9822,-0.9788,-0.9673,-0.9652,-0.9591,-0.9408,-0.9408,-0.9395,-0.9306,-0.9456,-0.9544,-0.9483,-0.9632,-0.9686,-0.9578,-0.9422,-0.8188,-0.5416,-0.5182,-0.3771,-0.0651,-0.0827,-0.0816,-0.051,-0.1939,-0.2697,-0.2752,-0.399,-0.3775,-0.2261,-0.2275,-0.1634,-0.0608,-0.2252,-0.3924,-0.5579,-0.7521,-1.0651,-1.4249,-1.446,-1.6287,-1.8695,-1.674,-1.5154,-1.3729,-1.2808,-0.9234,-0.4835,-0.4539,-0.0186,0.5213,0.5545,0.7702,1.0073,0.9747,0.884,0.0,0.0,0.0,0.0,0.0,0.0,0.0,0.0,0.6357,0.7596,0.9461,1.2998,1.6997,2.1013,2.4132,2.6993,2.9888,3.0332,3.0334,3.0412,3.0392,3.0274,2.9962,3.0509,3.0859,3.0762,3.084,3.0859,3.0762,3.0332,2.9883,2.9473,2.9043,2.8633,2.8301,2.8301,2.8086,2.7728,2.7226,2.6797,2.6387,2.5937,2.5693,2.5693,2.5693,2.5693,2.5693,2.5644,2.541,2.5047,2.4141,2.3789,2.375,2.3257,2.3101,2.3101,2.3101,2.3101,2.3101,0.0,-0.9822,-0.9815,-0.9802,-0.9795,-0.97,-0.9422,-0.9496,-0.9442,-0.8986,-0.9232,-0.9306,-0.8986,-0.9259,-0.9422,-0.9408,-0.9323,-0.8596,-0.7174,-0.6941,-0.5506,-0.2521,-0.3657,-0.3685,-0.2279,-0.3805,-0.4622,-0.4598,-0.4775,-0.402,-0.2455,-0.2466,-0.246,-0.2442,-0.4057,-0.5803,-0.7658,-1.0605,-1.2987,-1.4811,-1.5821,-1.7285,-1.8735,-1.7041,-1.5605,-1.4469,-1.4381,-1.0256,-0.4704,-0.3225,0.0864,0.56,0.7077,0.8846,1.0358,0.9924,0.9506,0.9096,0.8585,0.8391,0.8391,0.8781,0.8628,0.8647,0.0,0.9327,0.9548,1.1355,1.4318,1.779,2.1534,2.4929,2.7915,3.0413,3.082,3.0334,2.8902,2.8664,2.817,2.6712,2.9098,3.0723,3.0312,3.0644,3.0723,3.0312,2.9883,2.9453,2.9004,2.8594,2.834,2.8301,2.8301,2.8086,2.7728,2.7226,2.6797,2.6387,2.5937,2.5693,2.5693,2.5693,2.5693,2.5674,2.5312,2.5165,2.5047,2.4141,2.3789,2.375,2.3257,2.3101,2.3101,2.3101,2.3101,2.3101,0.0,-0.97,-0.9673,-0.9578,-0.9639,-0.9598,-0.935,-0.9357,-0.9306,-0.9211,-0.9225,-0.9232,-0.9198,-0.9225,-0.932,-0.9496,-0.9293,-0.8672,-0.7457,-0.7296,-0.6372,-0.4371,-0.4873,-0.4902,-0.4215,-0.5702,-0.6497,-0.6496,-0.7331,-0.6971,-0.5494,-0.5444,-0.5018,-0.4328,-0.5954,-0.7125,-0.8018,-1.1306,-1.3642,-1.5207,-1.6507,-1.7444,-1.7972,-1.7101,-1.5248,-1.3113,-1.3113,-1.0082,0.0,-0.4285,-0.0963,0.294,0.5412,0.7411,0.8913,0.9533,0.9673,0.9578,0.9306,0.9171,0.9144,0.9334,0.9415,0.9255,0.8564,0.8225,0.826,0.9092,1.1881,1.5256,1.9016,2.3173,2.6854,2.9046,3.0274,3.0333,2.8664,2.8426,2.7811,2.6167,2.7211,2.8354,2.9093,2.9988,3.041,3.0215,2.957,2.9121,2.8926,2.8516,2.8301,2.8301,2.8047,2.7715,2.7285,2.6875,2.6426,2.6016,2.5771,2.5693,2.5693,2.5693,2.5693,2.5654,2.5,2.4687,2.4629,2.3769,2.3418,2.3354,2.3159,2.3101,2.3101,2.3101,2.3101,2.3101,0.0,-0.9578,-0.951,-0.9401,-0.9435,-0.9408,-0.9241,-0.9207,-0.9234,-0.9252,-0.9164,-0.915,-0.93,-0.9184,-0.9198,-0.9462,-0.932,-0.8897,-0.8087,-0.805,-0.7495,-0.6093,-0.6485,-0.6515,-0.6068,-0.7577,-0.8358,-0.8329,-0.9384,-0.9125,-0.7645,-0.7675,-0.7096,-0.6198,-0.7324,-0.8371,-0.9524,-1.2416,-1.4596,-1.6136,-1.7063,-1.7408,-1.7254,-1.6109,-1.4123,-1.192,-1.1971,-0.9764,-0.6652,-0.5172,-0.2401,0.0948,0.36,0.5891,0.7757,0.8651,0.917,0.9429,0.9327,0.9245,0.9225,0.9347,0.9242,0.8732,0.7506,0.6879,0.6541,0.6692,0.9296,1.2673,1.6491,2.0801,2.4833,2.7884,2.9412,2.9648,2.7991,2.7751,2.6953,2.4885,2.5069,2.5802,2.697,2.8704,2.9661,2.9566,2.9288,2.9043,2.8926,2.8516,2.8301,2.8301,2.7943,2.7461,2.7012,2.6602,2.6172,2.5693,2.5693,2.5693,2.5693,2.5693,2.5693,2.5635,2.4805,2.4414,2.4355,2.3452,2.3101,2.3101,2.3101,2.3101,2.3101,2.3101,2.3101,2.3101,0.0,0.0,-0.9388,-0.9381,-0.9316,-0.9221,-0.9214,-0.9207,-0.9103,-0.8912,-0.8892,-0.9001,-0.92,-0.9028,-0.9001,-0.9214,-0.935,-0.9442,-0.9545,-0.9761,-0.9287,-0.7763,-0.9309,-0.9373,-0.7763,-0.9373,-1.0206,-1.0199,-1.0263,-0.943,-0.7763,-0.7811,-0.7857,-0.7927,-0.7969,-0.9937,-1.3225,-1.4776,-1.6403,-1.7964,-1.7707,-1.7512,-1.7014,-1.3661,-1.2107,-1.1816,-1.1929,-0.9745,-0.6502,-0.5123,-0.2287,0.0915,0.2352,0.4972,0.7543,0.7259,0.7804,0.852,0.852,0.8621,0.8838,0.9273,0.8283,0.7239,0.7516,0.621,0.4972,0.5114,0.7676,1.1027,1.4892,1.8216,2.2213,2.7551,2.8426,2.7931,2.6288,2.6045,2.4885,2.1664,2.2716,2.3698,2.376,2.6591,2.8305,2.7926,2.8918,2.9355,2.8945,2.8516,2.8301,2.8301,2.7943,2.7461,2.7012,2.6602,2.6172,2.5693,2.5693,2.5693,2.5693,2.5693,2.5693,2.5635,2.4805,2.4414,2.4355,2.3452,2.3101,2.3101,2.3101,2.3101,2.3101,2.3101,2.3101,2.3101,0.0,0.0,0.0,0.0,0.0,-0.9008,-0.9008,-0.9008,-0.9028,-0.9076,-0.9171,0.0,0.0,0.0,0.0,0.0,-0.9316,-0.934,-0.9591,-0.989,-0.9863,-0.95,-1.0142,-1.0353,-0.9848,-1.0294,-1.0622,-1.0724,-1.0724,-1.0386,-0.9854,-0.9985,-1.0048,-1.0115,-1.0091,-1.134,-1.3569,-1.5213,-1.6203,-1.6733,-1.7467,-1.6451,-1.4242,-1.2751,-1.1339,-1.0192,0.0,-0.9332,-0.7771,-0.5394,-0.3771,-0.2142,0.1426,0.3908,0.5926,0.7747,0.8442,0.8676,0.8927,0.9042,0.901,0.8266,0.7734,0.6888,0.4795,0.3904,0.3122,0.1969,0.4264,0.7311,0.9768,1.4882,1.9672,2.2677,2.61,2.7871,2.6227,2.6893,2.6772,2.4578,2.4824,2.4778,2.3698,2.6268,2.7809,2.7355,2.8464,2.8945,2.8516,2.8359,2.8301,2.8301,2.7943,2.7461,2.7012,2.5686,2.522,2.5693,2.5693,2.5693,2.5693,2.5693,2.5693,2.5635,2.4805,2.4414,2.4355,2.3452,2.3101,2.3101,2.3101,2.3101,2.3101,2.3101,2.3101,2.3101,0.0,0.0,0.0,0.0,0.0,0.0,0.0,0.0,0.0,0.0,0.0,0.0,0.0,0.0,0.0,0.0,0.0,-0.9296,-0.9435,-0.9727,-0.9958,-1.0107,-1.0351,-1.0555,-1.0704,-1.0616,-1.0636,-1.0785,-1.0785,-1.0812,-1.0799,-1.0962,-1.1002,-1.107,-1.1675,-1.2882,-1.4422,-1.5544,-1.633,-1.6722,-1.6284,-1.4733,-1.2591,-1.1567,-1.0442,0.0,-0.9239,-0.9103,-0.8429,-0.549,-0.4429,-0.3711,0.0334,0.2948,0.5092,0.7968,0.8825,0.8859,0.9157,0.9306,0.9091,0.773,0.7012,0.5914,0.3247,0.2171,0.1402,0.0253,0.2559,0.536,0.72,1.2112,1.6868,1.9687,2.3504,2.5982,2.5751,2.6974,2.7434,2.6133,2.5984,2.5619,2.4532,2.6449,2.7432,2.6528,2.8108,2.8965,2.8535,2.8379,2.8301,2.8301,2.7734,2.7079,2.6307,2.4808,2.4136,2.4295,2.4756,2.4971,2.502,2.5479,2.5596,2.5449,2.4727,2.4336,2.4141,2.3393,2.3101,2.3101,2.3101,2.3101,2.3101,2.3101,2.3101,2.3101,0.0,0.0,0.0,0.0,0.0,0.0,0.0,0.0,0.0,0.0,0.0,0.0,0.0,0.0,0.0,0.0,0.0,0.0,-0.92,-0.9435,0.0,-0.9802,-0.9909,-1.0134,-1.029,-1.0283,-1.0351,-1.0493,-1.0493,-1.0568,-1.0711,-1.0717,-1.0717,-1.0784,-1.2413,-1.4157,-1.5774,-1.5774,-1.6658,-1.7741,-1.4254,-1.2645,-1.2038,-1.0135,-0.93,-0.9207,-0.9022,-0.8905,-0.8478,-0.549,-0.4262,-0.3491,-0.0646,0.2214,0.5076,0.7919,0.8845,0.9022,0.9313,0.9336,0.8994,0.7614,0.6015,0.433,0.2766,0.1134,0.0,0.0,0.2517,0.5234,0.7035,1.0095,1.3906,1.8622,2.0787,2.2589,2.4837,2.6296,2.6923,2.6325,2.6211,2.6194,2.6073,2.7186,2.7193,2.5492,2.7989,2.9355,2.8906,2.8496,2.8262,2.8301,2.7461,2.6378,2.5029,2.4079,2.2918,2.1592,2.3018,2.3683,2.3732,2.505,2.5469,2.5086,2.459,2.416,2.375,2.3276,2.3101,2.3101,2.3101,2.3101,2.3101,2.3101,2.3101,2.3101,0.0,0.0,0.0,0.0,0.0,0.0,0.0,0.0,0.0,0.0,0.0,0.0,0.0,0.0,0.0,0.0,0.0,0.0,-0.9001,0.0,0.0,0.0,0.0,0.0,0.0,0.0,0.0,-1.0493,-1.0493,-1.0514,-1.0555,-1.067,-1.0717,-1.0717,-1.1174,-1.2277,-1.3813,-1.3813,-1.3934,-1.3967,0.0,-1.1615,-1.0242,0.0,-0.9456,0.0,-0.9408,-0.9293,-0.8633,-0.5543,-0.2965,-0.0519,0.2523,0.3984,0.5096,0.8312,0.9239,0.9313,0.9503,0.8725,0.7533,0.5945,0.4315,0.2661,0.0993,0.0313,0.0,0.0,0.242,0.471,0.5195,0.9183,1.3209,1.574,1.9038,2.2303,2.531,2.7096,2.8446,2.9512,2.9367,2.8676,2.7446,2.844,2.8314,2.6342,2.7995,2.8906,2.8476,2.8047,2.7969,2.8281,2.7461,2.6378,2.5029,2.3149,2.1507,2.0179,2.2567,2.3683,2.3732,2.4775,2.5223,2.5067,2.4277,2.3887,2.375,2.3276,2.3101,2.3101,2.3101,2.3101,2.3101,2.3101,2.3101,2.3101,0.0,0.0,0.0,0.0,0.0,0.0,0.0,0.0,0.0,0.0,0.0,0.0,0.0,0.0,0.0,0.0,0.0,0.0,0.0,-0.9367,0.0,0.0,0.0,0.0,0.0,0.0,0.0,0.0,0.0,0.0,-1.0399,-1.0487,-1.0527,-1.0593,-1.1293,-1.2202,-1.2982,-1.2982,0.0,0.0,0.0,0.0,0.0,0.0,0.0,0.0,0.0,0.0,0.0,-0.5178,-0.2562,0.0416,0.2787,0.3492,0.4136,0.7338,0.8331,0.8444,0.8581,0.801,0.6799,0.445,0.3182,0.2086,0.0364,0.0,0.0,0.0,0.2414,0.45,0.4475,0.8137,1.1649,1.3196,1.6665,2.0156,2.3006,2.5814,2.8086,2.9406,2.9776,2.9563,2.8689,2.9028,2.8793,2.7641,2.8413,2.873,2.832,2.7891,2.7826,2.8008,2.7187,2.5692,2.3564,2.1247,1.9621,1.876,2.162,2.2854,2.2557,2.4325,2.491,2.4473,2.4004,2.3691,2.3496,2.3198,2.3101,2.3101,2.3101,2.3101,2.3101,2.3101,2.3101,2.3101,0.0,0.0,0.0,0.0,0.0,0.0,0.0,0.0,0.0,0.0,-0.9117,-0.9241,0.0,0.0,0.0,0.0,0.0,0.0,0.0,0.0,0.0,0.0,0.0,0.0,0.0,-0.9889,-0.9957,-0.9957,-1.0154,0.0,0.0,0.0,0.0,0.0,0.0,0.0,0.0,0.0,0.0,0.0,0.0,0.0,0.0,0.0,0.0,0.0,0.0,0.0,0.0,0.0,-0.2605,0.0244,0.1645,0.215,0.2845,0.5762,0.6701,0.6874,0.7015,0.6928,0.6054,0.3205,0.2316,0.1773,0.0357,0.0,0.0,0.0,0.2234,0.429,0.4462,0.7163,0.9801,1.138,1.4489,1.7504,1.9858,2.3578,2.643,2.7392,2.8501,2.9194,2.9194,2.8972,2.8828,2.8828,2.8789,2.8594,2.8223,2.7812,2.7559,2.7552,2.6454,2.4537,2.1827,1.9218,1.7849,1.7635,2.0404,2.1471,2.1098,2.3573,2.4353,2.3789,2.373,2.3496,2.3101,2.3101,2.3101,2.3101,2.3101,2.3101,2.3101,2.3101,2.3101,2.3101,0.0,0.0,0.0,0.0,0.0,0.0,0.0,0.0,0.0,0.0,-0.9408,-0.934,0.0,0.0,0.0,0.0,0.0,0.0,0.0,0.0,0.0,0.0,0.0,0.0,-0.9822,-0.9849,-0.9863,-0.9863,-0.989,-0.9903,0.0,0.0,0.0,0.0,0.0,0.0,0.0,0.0,0.0,0.0,0.0,0.0,0.0,0.0,0.0,0.0,0.0,0.0,0.0,0.0,-0.2614,0.026,0.1878,0.2399,0.2843,0.4712,0.524,0.5298,0.5345,0.4355,0.3196,0.2637,0.1477,0.0368,0.006,0.0,0.0,0.0,0.1376,0.3034,0.4404,0.6345,0.8815,1.1869,1.4404,1.7019,2.0401,2.2503,2.4253,2.5796,2.6668,2.7215,2.7215,2.7927,2.8398,2.8398,2.8086,2.7851,2.7826,2.7363,2.6973,2.6621,2.4266,2.2757,2.2225,1.9208,1.7635,1.7635,1.9008,2.0147,2.1032,2.209,2.2997,2.3769,2.3418,2.3159,2.3101,2.3101,2.3101,2.3101,2.3101,2.3101,2.3101,2.3101,2.3101,2.3101,0.0,0.0,0.0,0.0,0.0,0.0,0.0,-0.9388,-0.953,-0.991,-0.9958,-0.9869,-0.9639,-0.9612,-0.9612,0.0,0.0,0.0,0.0,0.0,0.0,0.0,0.0,0.0,0.0,-0.9897,-0.9897,-0.9822,0.0,-0.9897,-0.9822,-0.9822,-0.9822,-0.9883,-1.1495,-1.1314,-0.9883,-1.1495,-1.1214,-0.972,-0.972,-0.9673,0.0,0.0,0.0,0.0,0.0,0.0,0.0,0.0,-0.4535,-0.2193,0.0399,0.1191,0.1506,0.3198,0.3668,0.3628,0.3669,0.3058,0.2274,0.1403,0.061,0.0,0.0,0.0,0.0,0.0,0.1176,0.2432,0.3277,0.4849,0.693,0.9459,1.1635,1.4178,1.7765,2.0007,2.1977,2.3798,2.5389,2.6389,2.6389,2.7571,2.8203,2.7988,2.7826,2.7728,2.7728,2.7051,2.6602,2.6387,2.3665,2.2303,2.2485,1.9545,1.7983,1.7822,1.9069,2.0127,2.1032,2.1812,2.2778,2.3769,2.3276,2.3101,2.3101,2.3101,2.3101,2.3101,2.3101,2.3101,2.3101,2.3101,2.3101,2.3101,0.0,0.0,0.0,0.0,0.0,0.0,-0.9564,-0.9639,-0.9829,-1.031,-1.0473,-1.0405,-1.0053,-0.9883,-0.9815,0.0,0.0,0.0,0.0,0.0,0.0,0.0,0.0,0.0,0.0,0.0,0.0,-0.9869,-0.9963,0.0,0.0,0.0,0.0,0.0,-1.1872,-1.1615,-0.9943,-1.1856,-1.1615,0.0,0.0,-0.9869,0.0,0.0,0.0,0.0,0.0,0.0,0.0,0.0,-0.6632,-0.5023,-0.1987,-0.0795,-0.0329,0.1091,0.1711,0.1941,0.1949,0.1952,0.1659,0.0304,0.0,0.0,0.0,0.0,0.0,0.0,0.0934,0.1847,0.219,0.3429,0.491,0.6626,0.8872,1.1343,1.4179,1.723,1.9727,2.1276,2.3625,2.5261,2.559,2.6952,2.7786,2.7695,2.7552,2.7454,2.7454,2.666,2.6289,2.6387,2.3614,2.2281,2.2695,1.9935,1.8343,1.7995,1.9067,2.0065,2.1032,2.1583,2.2593,2.3769,2.3276,2.3101,2.3101,2.3101,2.314,2.3218,2.314,2.3159,2.3218,2.314,2.3101,2.3101,0.0,0.0,0.0,0.0,0.0,0.0,-0.9564,-0.972,-1.0012,-1.0602,-1.069,-1.0683,-1.0643,-1.05,-1.031,0.0,0.0,0.0,0.0,0.0,0.0,0.0,0.0,0.0,0.0,0.0,0.0,-0.9963,-1.0181,0.0,0.0,0.0,0.0,0.0,0.0,-1.2689,-0.9997,-1.3048,0.0,0.0,0.0,0.0,0.0,0.0,0.0,0.0,0.0,-1.0049,-0.9587,0.0,-0.739,-0.6818,-0.4867,-0.3444,-0.2388,-0.1885,-0.0811,0.0252,0.0247,0.0247,0.0185,0.0062,0.0,0.0,0.0,0.0,0.0,0.0,0.0112,0.0675,0.2167,0.2614,0.3265,0.5,0.8044,1.0398,1.1012,1.4836,1.7745,1.8008,2.0389,2.2533,2.3877,2.5371,2.6658,2.7643,2.6953,2.6504,2.6504,2.6055,2.5977,2.6387,2.3614,2.2281,2.2695,1.9935,1.8343,1.7995,1.7862,1.8912,2.0983,2.0388,2.1472,2.3769,2.3276,2.3101,2.3101,2.3101,2.3379,2.3691,2.3257,2.3379,2.3691,2.3237,2.3101,2.3101,0.0,0.0,0.0,0.0,0.0,0.0,-0.9815,-0.9842,-1.01,-1.0887,-1.0914,-1.0928,-1.1104,-1.0989,-1.0704,-1.0229,0.0,0.0,0.0,0.0,0.0,0.0,0.0,0.0,0.0,0.0,-0.9984,-0.9984,-1.0202,0.0,0.0,0.0,0.0,0.0,0.0,-1.3458,-1.1374,-1.3646,0.0,0.0,0.0,0.0,0.0,0.0,0.0,0.0,0.0,0.0,-1.0055,-0.9324,-0.9024,-0.8827,-0.7933,-0.666,0.0,-0.2849,-0.1794,-0.1118,-0.0247,0.0,0.0,0.0,0.0,0.0,0.0,0.0,0.0,0.0,0.0,0.0225,0.0858,0.0981,0.1581,0.3259,0.5468,0.7784,0.9916,1.3232,1.5913,1.7196,1.9669,2.1979,2.3638,2.4378,2.5158,2.625,2.5521,2.5428,2.6337,2.5977,2.5641,2.5461,2.3426,2.2226,2.2016,1.9695,1.8437,1.8303,1.7822,1.8948,2.1412,2.0802,2.1907,2.416,2.3984,2.3569,2.314,2.3647,2.3867,2.3769,2.3594,2.3633,2.373,2.3257,2.3101,2.3101,0.0,0.0,0.0,0.0,0.0,-0.9449,-0.9924,-0.9944,-1.0215,-1.0941,-1.1023,-1.1111,-1.1362,-1.1219,-1.0948,-1.0575,-1.0317,0.0,0.0,0.0,0.0,0.0,0.0,0.0,0.0,0.0,-1.0181,-1.0181,-1.0337,-1.0412,0.0,0.0,-1.1633,-1.2572,0.0,0.0,0.0,0.0,0.0,0.0,0.0,0.0,0.0,0.0,0.0,0.0,0.0,0.0,0.0,0.0,0.0,0.0,0.0,0.0,0.0,0.0,-0.2932,-0.1959,-0.0985,-0.0373,0.0,0.0,0.0,0.0,0.0,0.0,0.0,0.0,0.0,0.0,0.0,0.0,0.0406,0.1547,0.3116,0.5181,0.8104,1.0925,1.3645,1.6004,1.8311,2.0548,2.2792,2.338,2.4107,2.5308,2.4607,2.4583,2.5698,2.5877,2.5477,2.4623,2.3265,2.2132,2.1287,1.9445,1.845,1.8357,1.7929,1.8898,2.1084,2.063,2.1647,2.3793,2.3793,2.3621,2.3335,2.4121,2.4238,2.3965,2.3848,2.3789,2.373,2.3257,2.3101,2.3101,0.0,0.0,0.0,0.0,0.0,-0.9316,-0.9564,-0.9992,-1.0385,-1.0683,-1.0975,-1.1219,-1.1375,-1.1124,-1.1002,-1.1138,-1.0744,0.0,0.0,0.0,0.0,0.0,0.0,0.0,0.0,0.0,-1.0487,-1.0487,-1.0643,-1.0717,-1.0711,-1.2362,-1.2936,-1.2758,0.0,0.0,0.0,0.0,0.0,0.0,0.0,0.0,-1.0717,0.0,0.0,0.0,0.0,0.0,0.0,0.0,0.0,0.0,0.0,-0.9612,-0.9248,0.0,-0.4744,-0.2233,-0.2452,-0.1233,0.0,0.0,0.0,0.0,0.0,0.0,0.0,0.0,0.0,0.0,0.0,0.0,0.0,0.0,0.1431,0.3082,0.4722,0.7595,1.0699,1.3839,1.5489,1.7626,2.084,2.2418,2.3837,2.529,2.4607,2.4158,2.4311,2.5648,2.5698,2.4176,2.3182,2.2001,2.0505,1.9181,1.8343,1.7995,1.7995,1.8557,1.9612,1.9197,2.0245,2.2416,2.2416,2.2945,2.3809,2.4238,2.4414,2.4375,2.3965,2.3789,2.373,2.3257,2.3101,2.3101,0.0,0.0,0.0,0.0,0.0,0.0,-0.9707,-0.9876,-1.0148,-1.0656,-1.0711,-1.088,-1.1341,-1.1124,-1.1002,-1.1151,-1.0751,0.0,0.0,0.0,0.0,0.0,0.0,0.0,0.0,-1.0419,-1.0493,-1.0493,-1.0643,-1.0717,-1.0717,-1.2423,-1.3711,-1.4658,-1.4998,-1.4779,0.0,0.0,0.0,0.0,0.0,-1.046,-1.0717,0.0,0.0,0.0,0.0,0.0,0.0,0.0,0.0,0.0,0.0,0.0,0.0,-0.9052,-0.7255,-0.4976,-0.2864,-0.1924,-0.1271,-0.024,0.0,0.0,0.0,0.0,0.0,0.0,0.0,0.0,0.0,0.0,0.0,0.0,0.1427,0.3021,0.44,0.738,1.0544,1.3747,1.8476,2.144,2.1463,2.2768,2.4264,2.5739,2.4399,2.3962,2.5019,2.5457,2.4474,2.1735,2.2311,2.1643,1.9431,1.8604,1.8089,1.7995,1.7836,1.8912,2.1033,2.087,2.209,2.425,2.4555,2.4352,2.3848,2.457,2.4512,2.3984,2.3848,2.3789,2.373,2.3257,2.3101,2.3101,0.0,0.0,0.0,0.0,0.0,0.0,-0.9707,-0.9836,-1.0039,-1.0419,-1.048,-1.0677,-1.1172,-1.1009,-1.0941,-1.1214,-1.086,0.0,0.0,0.0,0.0,0.0,0.0,0.0,-1.0446,-1.0534,-1.0609,-1.0663,-1.0812,-1.0887,-1.0954,-1.3336,-1.451,-1.4612,-1.5137,-1.4888,0.0,0.0,0.0,0.0,-1.0337,-1.0473,-1.0636,0.0,0.0,0.0,0.0,0.0,0.0,0.0,0.0,0.0,0.0,0.0,0.0,0.0,-0.8888,-0.7373,-0.4836,-0.3233,-0.2101,-0.119,-0.0469,0.0,0.0,0.0,0.0,0.0,0.0,0.0,0.0,0.0,0.0,0.0,0.0888,0.2237,0.4316,0.6305,0.9183,1.3487,1.8635,2.1719,2.1433,2.2342,2.3822,2.5936,2.4802,2.4147,2.442,2.4951,2.3502,1.9693,2.1133,2.0861,1.8584,1.8116,1.7822,1.7702,1.7622,1.8442,1.9995,2.0629,2.1895,2.3588,2.4369,2.443,0.0,2.4609,2.4414,2.3789,2.3789,2.3403,2.2808,2.2542,2.2138,2.1721,0.0,0.0,0.0,0.0,0.0,0.0,0.0,-0.9781,-0.9957,-0.997,-1.029,-1.0588,-1.0813,-1.0799,-1.0833,-1.1111,-1.1023,0.0,0.0,0.0,0.0,0.0,0.0,0.0,-1.0717,-1.0717,-1.0792,-1.0867,-1.1063,-1.1131,-1.1269,-1.4579,-1.5052,-1.3185,-1.4648,-1.4147,0.0,0.0,0.0,-1.029,-1.0426,-1.048,0.0,0.0,0.0,0.0,0.0,0.0,0.0,0.0,0.0,0.0,0.0,0.0,0.0,0.0,0.0,0.0,0.0,-0.5097,-0.2643,-0.2523,-0.1247,0.0,0.0,0.0,0.0,0.0,0.0,0.0,0.0,0.0,0.0,0.0,0.0,0.1124,0.4246,0.5089,0.7471,1.3203,1.6714,1.9348,2.1073,2.1403,2.2895,2.6045,2.5613,2.4579,2.3011,2.414,2.2742,1.8158,1.9625,1.9693,1.7995,1.7716,1.7474,1.7206,1.7447,1.7472,1.7473,1.8972,2.0237,2.1311,2.2549,2.3597,2.4375,2.4375,2.4075,2.3596,2.3596,2.261,2.115,2.115,2.0432,1.9497,0.0,0.0,0.0,0.0,0.0,0.0,0.0,0.0,0.0,0.0,-1.0141,-1.0399,-1.0582,-1.067,-1.0751,0.0,0.0,0.0,0.0,0.0,0.0,0.0,0.0,0.0,-1.0717,-1.0717,-1.0738,-1.0772,-1.0806,-1.0826,-1.0886,-1.2996,-1.373,-1.3242,-1.3444,-1.2341,0.0,0.0,-1.0141,-1.0283,-1.0317,-1.0392,0.0,0.0,0.0,0.0,-0.9984,-0.9889,0.0,0.0,0.0,0.0,0.0,0.0,0.0,0.0,-0.9774,-0.9411,-0.7845,0.0,-0.3894,-0.2775,-0.1227,0.0,0.0,0.0,0.0,0.0,0.0,0.0,0.0,0.0,0.0,0.0,0.0,0.1119,0.4242,0.8781,1.2241,1.3581,1.7555,2.0807,2.2328,2.172,2.3012,2.7473,2.5253,2.3586,2.327,2.3272,2.1628,1.8104,1.8428,1.8428,1.7995,1.7515,1.7273,1.7192,1.6994,1.7953,1.9826,2.0199,2.1559,2.3598,2.3945,2.404,2.3945,2.3945,2.3114,2.1894,2.1894,2.106,1.9906,1.9906,1.9724,1.9497,0.0,0.0,0.0,0.0,0.0,0.0,0.0,0.0,0.0,0.0,-1.0046,-1.031,-1.0385,-1.0588,-1.0717,0.0,0.0,0.0,0.0,0.0,0.0,0.0,0.0,-1.0717,-1.0717,-1.0717,-1.0758,-1.0759,-1.0894,-1.0921,-1.0988,-1.2716,-1.3069,-1.2191,-1.1918,-1.1121,-1.0039,-1.0188,-1.0304,-1.0378,-1.0378,0.0,0.0,0.0,0.0,0.0,-0.9883,-0.989,0.0,-0.9822,-0.9822,-0.9822,0.0,0.0,0.0,0.0,-0.9727,-0.934,-0.7703,-0.6026,-0.4447,-0.2909,-0.1234,0.0,0.0,0.0,0.0,0.0,0.0,0.0,0.0,0.0,0.0,0.0,0.0648,0.2257,0.5333,1.0216,1.3532,1.3788,1.7064,2.0217,2.2556,2.1674,2.2787,2.7361,2.543,2.373,2.2921,2.267,2.1074,1.7889,1.7836,1.7836,1.7836,1.7434,1.7206,1.7192,1.7627,1.8508,1.9667,2.109,2.2339,2.3495,2.3924,2.4004,2.3744,2.3138,2.2269,2.1257,2.0804,1.9812,1.8688,1.8688,1.8319,1.7794,0.0,0.0,0.0,0.0,0.0,0.0,0.0,0.0,0.0,0.0,0.0,0.0,0.0,0.0,0.0,0.0,0.0,0.0,0.0,0.0,0.0,0.0,-1.0717,-1.0717,-1.0717,-1.0717,-1.0772,-1.0813,-1.105,-1.1104,-1.1132,-1.2665,-1.2452,-1.0799,-1.0609,-1.0412,-1.029,-1.0432,-1.0493,-1.0487,-1.0466,0.0,0.0,0.0,0.0,0.0,0.0,0.0,0.0,-0.9822,-0.9822,-0.9822,-0.9822,0.0,0.0,0.0,0.0,0.0,-0.7253,-0.5831,-0.4514,-0.2878,-0.1247,0.0,0.0,0.0,0.0,0.0,0.0,0.0,0.0,0.0,0.0057,0.0288,0.1944,0.4136,0.6801,1.0591,1.3277,1.3728,1.6042,1.8816,2.1937,2.1033,2.1991,2.605,2.5079,2.3583,2.2081,2.1947,2.0576,1.7634,1.7555,1.7542,1.7448,1.7259,1.7112,1.7072,1.8153,1.8676,1.875,2.1315,2.253,2.2636,2.3369,2.3641,2.3409,2.2226,2.1354,2.0647,1.9873,1.866,1.7404,1.7404,1.6716,1.5784,0.0,0.0,0.0,0.0,0.0,0.0,0.0,0.0,0.0,0.0,0.0,0.0,0.0,0.0,0.0,0.0,0.0,0.0,0.0,0.0,0.0,-1.0724,-1.0717,-1.0717,-1.0717,-1.0717,-1.067,-1.0561,-1.0846,-1.0846,-1.0602,-1.1121,-1.1027,-1.0561,-1.0514,-1.0412,-1.029,-1.0432,-1.0493,-1.048,-1.0365,0.0,0.0,0.0,0.0,0.0,0.0,0.0,0.0,-0.9822,-0.9822,-0.9822,-0.9822,0.0,0.0,0.0,0.0,0.0,-0.5843,-0.4902,-0.4383,-0.2848,-0.1237,0.0,0.0,0.0,0.0,0.0,0.0,0.0,0.0,0.0,0.0398,0.1632,0.4399,0.6646,0.7246,1.098,1.3546,1.3436,1.5869,1.8279,2.0074,1.9159,1.9847,2.3246,2.1888,2.0801,2.0597,2.0217,1.9155,1.7324,1.7501,1.7341,1.6847,1.6794,1.6647,1.6455,1.6332,1.7407,1.9339,1.9803,2.1324,2.3577,2.3329,2.2859,2.2236,2.1626,2.0138,1.8241,1.8102,1.7261,1.6103,1.6103,1.5974,1.5784,0.0,0.0,0.0,0.0,0.0,0.0,0.0,0.0,0.0,0.0,0.0,0.0,0.0,0.0,0.0,0.0,0.0,0.0,0.0,0.0,-1.0758,-1.0772,-1.0765,-1.0717,-1.0717,-1.0717,-1.1247,-1.2305,-1.1489,-1.1532,-1.2378,-1.1386,-1.0826,-1.0616,-1.0616,-1.0582,-1.0521,-1.0588,-1.0616,-1.0602,0.0,0.0,0.0,0.0,0.0,0.0,0.0,0.0,0.0,0.0,-0.9822,-0.9822,-0.9822,0.0,0.0,0.0,0.0,0.0,-0.543,-0.4619,-0.4009,-0.1746,0.0118,0.1322,0.136,0.1963,0.2323,0.0,0.0,0.0,0.0174,0.0,0.0825,0.3272,0.5602,0.7418,0.8361,1.0612,1.2478,1.3207,1.4992,1.7108,1.9443,1.9203,1.9821,2.2086,2.1438,2.0669,1.9956,1.9717,1.8948,1.7434,1.742,1.7141,1.6714,1.6553,1.6486,1.65,1.6966,1.808,1.9731,2.0486,2.1807,2.3374,2.2479,2.1965,2.15,2.0147,1.8846,1.7652,1.7137,1.6491,1.5784,1.5784,1.5784,1.5784,0.0,0.0,0.0,0.0,0.0,0.0,0.0,0.0,0.0,0.0,0.0,0.0,0.0,0.0,0.0,0.0,0.0,0.0,0.0,-1.0704,-1.0772,-1.0826,-1.0785,-1.0738,-1.0772,-1.0772,-1.1733,-1.3736,-1.2057,-1.1953,-1.3336,-1.1689,-1.0799,-1.0717,-1.0717,-1.0717,-1.0717,-1.0717,-1.0697,-1.0656,0.0,0.0,0.0,0.0,0.0,0.0,0.0,0.0,0.0,0.0,0.0,0.0,0.0,0.0,0.0,-0.9374,-0.9218,-0.8458,-0.5346,-0.4492,-0.3796,-0.0747,0.0945,0.1995,0.2397,0.3391,0.3954,0.3224,0.2623,0.1931,0.0806,0.0531,0.1448,0.4435,0.612,0.7624,0.9195,1.0344,1.1527,1.3058,1.4292,1.6019,1.8671,1.8942,1.9352,2.044,2.0541,2.0081,1.9111,1.9059,1.8556,1.7527,1.7313,1.7018,1.6607,1.638,1.6353,1.65,1.7312,1.828,1.9442,2.0807,2.1753,2.2358,2.1606,2.1024,2.0451,1.8722,1.772,1.72,1.6457,1.6032,1.5784,1.5784,1.5784,1.5784,0.0,0.0,0.0,0.0,0.0,0.0,0.0,0.0,0.0,0.0,0.0,0.0,0.0,0.0,0.0,0.0,0.0,0.0,0.0,-1.0643,-1.0724,-1.0738,-1.0724,-1.0785,-1.086,-1.0867,-1.1725,-1.353,-1.2116,-1.1371,-1.1365,-1.1084,-1.0799,-1.0717,-1.0717,-1.0717,-1.0717,-1.0717,-1.0636,-1.0493,-1.0351,0.0,0.0,0.0,0.0,0.0,0.0,0.0,0.0,0.0,0.0,0.0,0.0,0.0,-0.9367,-0.9268,-0.9069,-0.8251,-0.5289,-0.4508,-0.3791,-0.0749,0.0115,0.0579,0.217,0.2554,0.3049,0.4435,0.351,0.246,0.2345,0.2174,0.2649,0.4594,0.6048,0.754,0.9334,1.057,1.1731,1.2861,1.4186,1.5521,1.678,1.6918,1.6968,1.7055,1.7068,1.7126,1.7373,1.7387,1.7336,1.7233,1.7206,1.6924,1.6313,1.6335,1.6139,1.5885,1.5967,1.665,1.79,1.9134,1.9925,2.0332,2.0995,2.0229,1.8483,1.7927,1.7012,1.5927,1.5858,1.5798,1.5784,1.5784,1.5784,1.5784,0.0,0.0,0.0,0.0,0.0,0.0,0.0,0.0,0.0,0.0,0.0,0.0,0.0,0.0,0.0,0.0,0.0,0.0,0.0,-1.0636,-1.0765,-1.0793,-1.0772,-1.0792,-1.088,-1.1036,-1.2042,-1.3968,-1.3429,-1.2532,-1.1301,-1.1063,-1.0799,-1.0717,-1.0622,-1.0575,-1.0575,-1.0487,-1.0412,-1.0358,-1.0304,-0.9551,0.0,0.0,0.0,0.0,0.0,0.0,0.0,0.0,-0.9646,-0.968,-0.9625,-0.9503,-0.9354,-0.9255,-0.9049,-0.8276,-0.529,-0.4475,-0.3762,-0.0746,0.0,0.0456,0.2103,0.3213,0.3786,0.3457,0.2817,0.2056,0.1117,0.2465,0.3986,0.4691,0.6856,0.8659,0.9269,0.9589,1.0594,1.2603,1.3226,1.4344,1.6513,1.7435,1.7584,1.675,1.7484,1.764,1.6924,1.7099,1.7112,1.6874,1.6874,1.6673,1.6273,1.6086,1.5939,1.5784,1.5784,1.648,1.7731,1.818,1.8889,1.9678,1.9242,1.8628,1.7864,1.6899,1.6244,1.5784,1.5784,1.5784,1.5784,1.5784,1.5784,1.5784,0.0,0.0,0.0,0.0,0.0,0.0,0.0,0.0,0.0,0.0,0.0,0.0,0.0,0.0,0.0,0.0,0.0,0.0,-1.0493,-1.0636,-1.0765,-1.0806,-1.0778,-1.0792,-1.088,-1.109,-1.2168,-1.4129,-1.4189,-1.2913,-1.0398,-1.021,-0.9979,-0.9836,-0.9698,-0.9701,-0.9695,-0.9563,-0.9158,-0.8672,-0.8672,-0.7896,0.0,0.0,0.0,0.0,0.0,0.0,0.0,0.0,-0.9496,-0.953,-0.9483,-0.9395,-0.9279,-0.913,-0.9015,-0.8269,-0.5306,-0.4526,-0.3751,-0.0734,0.0,0.0282,0.144,0.2913,0.3878,0.3367,0.2759,0.1811,0.0294,0.2155,0.4107,0.4593,0.6834,0.8628,0.904,0.892,0.9585,1.1708,1.2279,1.3377,1.558,1.6981,1.7386,1.6469,1.7288,1.7428,1.6616,1.6817,1.6871,1.6714,1.662,1.6473,1.6273,1.5979,1.5784,1.5784,1.5784,1.6244,1.7138,1.7498,1.7917,1.8303,1.7855,1.7451,1.7044,1.615,1.5784,1.5784,1.5784,1.5784,1.5784,1.5784,1.5784,1.5784,0.0,0.0,0.0,0.0,0.0,0.0,0.0,0.0,0.0,0.0,-1.0717,0.0,0.0,0.0,0.0,0.0,0.0,0.0,-1.0493,-1.0636,-1.0717,-1.0717,-1.0717,-1.0792,-1.0873,-1.109,-1.2116,-1.3959,-1.4129,-1.216,-0.8272,-0.8272,-0.8205,-0.7954,-0.7853,-0.7867,-0.7982,-0.7809,-0.6742,-0.5084,-0.5084,-0.4977,-0.5039,0.0,0.0,0.0,0.0,0.0,0.0,0.0,-0.9309,-0.9354,-0.9255,-0.9214,-0.918,-0.8981,-0.8885,-0.8269,-0.5306,-0.4526,-0.3786,-0.0769,0.0,0.0,0.0,0.1264,0.2947,0.4548,0.3574,0.196,0.0293,0.1202,0.2751,0.4391,0.5695,0.7033,0.8657,0.8669,0.8938,1.0078,1.1363,1.2678,1.38,1.5045,1.5784,1.5784,1.5784,1.5952,1.6308,1.6321,1.6406,1.6687,1.642,1.6321,1.6321,1.5979,1.5784,1.5784,1.5784,1.5784,1.5832,1.7138,1.6998,1.5879,1.7138,1.6998,1.5784,1.5784,1.5784,1.5784,1.5784,1.5784,1.5784,1.5784,1.5784,1.5784,0.0,0.0,0.0,0.0,0.0,0.0,0.0,0.0,0.0,-1.0717,-1.0717,0.0,0.0,0.0,0.0,0.0,0.0,0.0,-1.0493,-1.0636,-1.0717,-1.0717,-1.0717,-1.0744,-1.0785,-1.0934,-1.1386,-1.2153,-1.215,-1.0783,-0.8287,-0.8148,-0.7384,-0.6174,-0.5953,-0.591,-0.5966,-0.5822,-0.5471,-0.4943,-0.495,-0.4279,-0.3259,0.0,0.0,0.0,0.0,0.0,0.0,0.0,0.0,0.0,-0.9221,-0.9282,-0.9266,-0.9015,-0.9008,-0.867,-0.6609,-0.5316,-0.4015,-0.2051,-0.0781,0.0,0.0,0.0402,0.0874,0.1377,0.1057,0.0575,0.0116,0.1182,0.2357,0.2885,0.4916,0.6674,0.7161,0.787,0.8823,1.007,1.1241,1.2499,1.3788,1.5045,1.5784,1.5784,1.5784,1.5824,1.5952,1.6152,1.6219,1.6086,1.6206,1.6179,1.5965,1.5872,1.5784,1.5784,1.5784,1.5784,1.5832,1.6197,1.615,1.5832,1.6197,1.615,1.5784,1.5784,1.5784,1.5784,1.5784,1.5784,1.5784,1.5784,1.5784,1.5784,0.0,0.0,0.0,0.0,0.0,0.0,0.0,0.0,0.0,0.0,-1.0717,-1.0717,0.0,0.0,0.0,0.0,0.0,0.0,-1.0582,-1.067,-1.0717,-1.0717,-1.0717,-1.0717,-1.0717,-1.0928,-1.1063,-1.1124,-1.1029,-1.0004,-0.8163,-0.7256,-0.6337,-0.5356,-0.4482,-0.4098,-0.4139,-0.3982,-0.3572,-0.2959,-0.2949,-0.2351,-0.1574,0.0,0.0,0.0,0.0,0.0,0.0,0.0,0.0,0.0,-0.9207,-0.9275,-0.9245,-0.9008,-0.896,-0.869,-0.7099,-0.5571,-0.4047,-0.2559,-0.1064,0.0,0.0,0.0,0.0,0.0,0.0,0.0,0.0,0.1217,0.2208,0.2183,0.4113,0.5613,0.5613,0.6149,0.7092,0.8391,0.9591,1.1093,1.2909,1.4268,1.5248,1.5784,1.5784,1.5784,1.5784,1.6005,1.6019,1.5784,1.6005,1.6005,1.5784,1.5784,1.5784,1.5784,1.5784,1.5784,1.5784,1.5784,1.5784,1.5784,1.5784,1.5784,1.5784,1.5784,1.5784,1.5784,1.5784,1.5784,1.5784,1.5784,1.5784,1.5784,0.0,0.0,-1.0493,-1.0493,0.0,0.0,0.0,0.0,0.0,0.0,-1.0585,-1.0651,0.0,0.0,0.0,0.0,0.0,0.0,-1.0717,-1.0717,-1.0717,-1.0717,-1.0717,-1.0717,-1.0717,-1.0982,-1.0989,-1.0717,-1.0717,-0.9763,-0.7934,-0.6197,-0.528,-0.5066,-0.3294,-0.2517,-0.2445,-0.2346,-0.1389,0.0,0.0,0.0,-0.0177,-0.1672,0.0,0.0,0.0,0.0,0.0,0.0,0.0,0.0,-0.9228,-0.9228,-0.92,-0.9001,-0.8859,-0.8499,-0.7232,-0.5575,-0.3944,-0.2728,-0.1177,0.0,0.0,0.0,0.0,0.0,0.0,0.0,0.0,0.1087,0.2015,0.2015,0.313,0.4017,0.4017,0.4011,0.4468,0.5677,0.7105,0.8928,1.1297,1.2958,1.4364,1.5534,1.5737,1.5784,1.5784,1.5784,1.5784,1.5784,1.5784,1.5784,1.5784,1.5784,1.5784,1.5784,1.5784,1.5784,1.5784,1.5784,1.5784,1.5784,1.5784,1.5784,1.5784,1.5784,1.5784,1.5784,1.5784,1.5784,1.5784,1.5784,1.5784,1.5784,0.0,0.0,-1.0493,-1.0493,0.0,0.0,0.0,0.0,0.0,0.0,0.0,0.0,0.0,0.0,0.0,0.0,0.0,0.0,-1.0717,-1.0717,-1.0717,-1.0717,-1.0717,-1.0717,-1.0717,-1.0785,-1.0785,-1.0717,-1.0717,-0.9736,-0.784,-0.7382,-0.5778,-0.3128,-0.2768,-0.1908,-0.0557,-0.0541,-0.0356,0.0,0.0,0.0,-0.0059,-0.0414,-0.0532,0.0,0.0,0.0,0.0,0.0,0.0,0.0,-0.9334,-0.9334,-0.93,-0.9207,-0.9139,-0.8986,-0.8566,-0.6458,-0.4339,-0.4077,-0.1979,0.0,0.0,0.0,0.0,0.0,0.0,0.0,0.0,0.0267,0.047,0.047,0.159,0.2479,0.2479,0.3374,0.4114,0.4418,0.6553,0.8231,0.8765,1.19,1.4016,1.4268,1.5248,1.5784,1.5784,1.5784,1.5784,1.5784,1.5784,1.5784,1.5784,1.5784,1.5784,1.5784,1.5784,1.5784,1.5784,1.5784,1.5784,1.5784,1.5784,1.5784,1.5784,1.5784,1.5784,1.5784,1.5784,1.5784,1.5784,1.5784,1.5784,1.5784,0.0,0.0,0.0,0.0,0.0,0.0,0.0,0.0,0.0,0.0,0.0,0.0,0.0,0.0,0.0,0.0,-0.9611,0.0,-1.0717,-1.0717,-1.0717,-1.0717,-1.0792,-1.0799,-1.0724,-1.0792,-1.0758,-1.0609,-1.0541,-1.0006,-0.9074,-0.8055,-0.6205,-0.3687,-0.2947,-0.1641,0.0,0.0,0.0,0.0,0.0,0.0,0.0,0.0,0.0,-0.0233,-0.18,0.0,0.0,0.0,0.0,0.0,0.0,0.0,-0.9303,-0.9096,-0.9001,-0.894,-0.8885,-0.7216,-0.5143,-0.3737,-0.169,0.0,0.0,0.0,0.0,0.0,0.0,0.0,0.0,0.0,0.0,0.0,0.0609,0.1058,0.1058,0.1662,0.2314,0.2964,0.486,0.6597,0.7878,1.0986,1.3199,1.3872,1.5092,1.5784,1.5784,1.5784,1.5784,1.5784,1.5784,1.5784,1.5784,1.5784,1.5784,1.5784,1.5784,1.5784,1.5784,1.5784,1.5784,1.5784,1.5784,1.5784,1.5784,1.5784,1.5784,1.5784,1.5784,1.5784,1.5784,1.5784,1.5784,1.5784,0.0,0.0,0.0,0.0,0.0,0.0,0.0,0.0,0.0,0.0,0.0,0.0,0.0,0.0,-0.774,0.0,0.0,0.0,0.0,-1.0704,-1.0711,-1.0683,-1.0759,-1.0786,-1.0724,-1.0819,-1.0744,-1.0493,-1.0297,-1.029,-1.0446,-0.8643,-0.6886,-0.4986,-0.3575,-0.1875,0.0,0.0,0.0,0.0,0.0,0.0,0.0,0.0,0.0,-0.0171,-0.1597,-0.2172,-0.2641,-0.5362,0.0,0.0,0.0,0.0,-0.9187,-0.9008,-0.8866,-0.8777,-0.8851,-0.7737,-0.5927,-0.324,-0.1458,-0.0392,-0.0392,-0.0166,0.0,0.0,0.0,0.0,0.0,0.0,0.0,0.0,0.0,0.0,0.0,0.0,0.0404,0.1511,0.2814,0.461,0.7093,0.9665,1.1881,1.344,1.4758,1.5581,1.5784,1.5784,1.5784,1.5784,1.5784,1.5784,1.5784,1.5784,1.5784,1.5784,1.5784,1.5784,1.5784,1.5784,1.5784,1.5784,1.5784,1.5784,1.5784,1.5784,1.5784,1.5784,1.5784,1.5784,1.5784,1.5784,1.5784,1.5784,0.0,0.0,0.0,0.0,0.0,0.0,0.0,0.0,0.0,0.0,-0.7089,-0.7406,0.0,0.0,0.0,-0.5597,-0.8433,-1.0371,-1.0514,0.0,0.0,-1.0527,-1.067,-1.0744,-1.0717,-1.0609,-1.0534,-1.0493,-1.008,-1.0032,-1.0304,-0.9876,-0.7978,-0.4906,-0.4781,-0.2999,0.0,0.0,0.0,0.0,0.0,0.0,0.0,0.0,0.0,-0.0055,-0.028,-0.1248,-0.2528,-0.2978,-0.486,0.0,0.0,0.0,-0.9207,-0.9187,-0.9022,-0.8858,-0.8878,-0.7802,-0.6255,-0.4598,-0.3049,-0.19,-0.19,-0.094,0.0,0.0,0.0,0.0,0.0,0.0,0.0,0.0,0.0,0.0,0.0,0.0,0.005,0.0252,0.146,0.2864,0.4364,0.6945,0.9518,1.1989,1.3392,1.4651,1.5737,1.5784,1.5784,1.5784,1.5784,1.5784,1.5784,1.5784,1.5784,1.5784,1.5784,1.5784,1.5784,1.5784,1.5784,1.5784,1.5784,1.5784,1.5784,1.5784,1.5784,1.5784,1.5784,1.5784,1.5784,1.5784,1.5784,1.5784,0.0,0.0,0.0,0.0,0.0,0.0,0.0,0.0,0.0,0.0,0.0,-0.5057,0.0,0.0,0.0,-0.5133,-0.818,-1.0215,-1.0365,-1.0439,-1.0446,-1.0378,-1.0439,-1.0473,-1.0473,-1.0405,-1.0331,-1.0243,-0.9958,-0.989,-1.0019,-0.8879,-0.7163,-0.4956,-0.4046,-0.2289,0.0,0.0,0.0447,0.1039,0.0328,0.0433,0.1013,0.027,0.0,0.0,0.0,-0.0447,-0.1247,-0.2052,-0.3252,-0.4676,-0.6332,0.0,0.0,0.0,-0.8927,-0.8832,-0.8858,-0.782,-0.6543,-0.5915,-0.393,-0.218,-0.218,-0.1051,0.0,0.0,0.0,0.0,0.0,0.0,0.0,0.0,0.0,0.0,0.0,0.0,0.0,0.0,0.1159,0.2515,0.3864,0.6448,0.878,1.0681,1.2764,1.4124,1.4711,1.5391,1.5784,1.5784,1.5784,1.5784,1.5784,1.5784,1.5784,1.5784,1.5784,1.5784,1.5784,1.5784,1.5784,1.5784,1.5784,1.5784,1.5784,1.5784,1.5784,1.5784,1.5784,1.5784,1.5784,1.5784,1.5784,1.5784,0.0,0.0,0.0,0.0,0.0,0.0,0.0,0.0,0.0,0.0,0.0,0.0,0.0,0.0,0.0,0.0,-0.8048,-1.0039,-1.0154,-1.0236,-1.0263,-1.0222,-1.0256,-1.0283,-1.0283,-1.0243,-1.0168,-0.9984,-0.9863,-0.9802,-0.9815,-0.7566,-0.5977,-0.5015,-0.3277,-0.1545,0.0,0.034,0.1108,0.1974,0.1301,0.1444,0.1956,0.0908,0.0323,0.0,0.0,0.0,-0.0166,-0.1284,-0.189,-0.2596,-0.4823,-0.5977,0.0,0.0,0.0,-0.8723,-0.8804,0.0,-0.7254,-0.7221,-0.4953,-0.2794,-0.2794,-0.1331,0.0,0.0,0.0,0.0,0.0,0.0,0.0,0.0,0.0,0.0,0.0,-0.0303,-0.0404,-0.005,0.0604,0.1759,0.3814,0.5807,0.7842,0.9846,1.1794,1.3199,1.3872,1.4806,1.5486,1.5784,1.5784,1.5784,1.5784,1.5784,1.5784,1.5784,1.5784,1.5784,1.5784,1.5784,1.5784,1.5784,1.5784,1.5784,1.5784,1.5784,1.5784,1.5784,1.5784,1.5784,1.5784,1.5784,1.5784,1.5784,0.0,0.0,0.0,0.0,0.0,0.0,0.0,0.0,0.0,0.0,0.0,0.0,-0.2829,-0.4094,-0.492,-0.4923,-0.7928,-0.9836,-0.9842,-1.012,-1.0215,-1.0004,-1.0202,0.0,-1.0283,-1.0134,-0.9997,-0.9984,-0.9761,-0.9761,-0.9908,-0.6449,-0.4943,-0.5015,-0.3298,-0.1589,0.0059,0.1341,0.1983,0.2279,0.3384,0.3158,0.2172,0.1984,0.1126,0.0,0.0,0.0,0.0,-0.0111,-0.1042,-0.2245,-0.2391,-0.431,-0.6532,0.0,0.0,0.0,-0.854,-0.8662,0.0,-0.8649,-0.6454,-0.4359,-0.4359,-0.2125,0.0,0.0,0.0,0.0,0.0,0.0,0.0,0.0,0.0,0.0,0.0,-0.1109,-0.141,-0.0151,-0.1058,-0.0251,0.3613,0.4114,0.5807,0.9698,1.0141,1.1258,1.3776,1.3968,1.4555,1.5784,1.5784,1.5784,1.5784,1.5784,1.5784,1.5784,1.5784,1.5784,1.5784,1.5784,1.5784,1.5784,1.5784,1.5784,1.5784,1.5784,1.5784,1.5784,1.5784,1.5784,1.5784,1.5784,1.5784,1.5784,0.0,0.0,0.0,0.0,0.0,0.0,0.0,0.0,0.0,0.0,0.0,0.0,0.0,-0.3024,-0.3751,-0.4794,-0.7917,-0.9781,-0.9693,-0.9876,-0.9917,-0.9774,-0.991,-0.9985,-0.9985,-0.993,-0.9842,-0.9842,-0.9605,-0.9564,-0.9701,-0.7282,-0.5649,-0.4744,-0.2072,-0.0588,0.0059,0.1433,0.26,0.3504,0.3887,0.4336,0.4692,0.369,0.2979,0.2587,0.2552,0.2001,0.1282,0.1257,0.038,-0.0962,-0.1901,-0.342,-0.5261,-0.709,-0.8079,-0.8554,-0.8499,-0.856,0.0,-0.8703,-0.6508,-0.4354,-0.446,-0.2181,0.0,0.0,0.0,0.0,0.0,0.0,0.0,0.0,0.0,-0.0303,-0.1159,-0.1712,-0.1813,-0.136,-0.1712,-0.0754,0.2412,0.2714,0.3663,0.5956,0.7743,0.9461,1.124,1.2973,1.4459,1.5784,1.5784,1.5784,1.5784,1.5784,1.5784,1.5784,1.5784,1.5784,1.5784,1.5784,1.5784,1.5784,1.5784,1.5784,1.5784,1.5784,1.5784,1.5784,1.5784,1.5784,1.5784,1.5784,1.5784,1.5784,0.0,0.0,0.0,0.0,0.0,-0.5586,-0.6034,-0.2635,-0.0802,-0.2954,0.0,0.0,0.0,0.0,-0.3382,-0.5529,-0.7696,-0.9099,-0.9559,-0.9652,-0.9632,-0.9537,-0.9673,-0.9747,-0.9747,-0.9795,-0.9822,-0.9822,-0.9578,-0.951,-0.9545,-0.7733,-0.6094,-0.4571,-0.1927,-0.0468,0.0117,0.1983,0.3366,0.4357,0.5156,0.5822,0.6297,0.5184,0.4505,0.4167,0.4115,0.3506,0.2638,0.215,0.1386,0.042,-0.1014,-0.2311,-0.3786,-0.6139,-0.6941,-0.7027,-0.6987,-0.7403,-0.7868,-0.7962,-0.6417,-0.4831,-0.4557,-0.2505,-0.0553,-0.0109,0.0,0.0,0.0,0.0,0.0,0.0,0.0,-0.0454,-0.1813,-0.2364,-0.2515,-0.2063,-0.2414,-0.1457,0.1711,0.2012,0.2563,0.3917,0.6056,0.8076,0.9811,1.1996,1.4028,1.5737,1.5784,1.5784,1.5784,1.5784,1.5784,1.5784,1.5784,1.5784,1.5784,1.5784,1.5784,1.5784,1.5784,1.5784,1.5784,1.5784,1.5784,1.5784,1.5784,1.5784,1.5784,1.5784,1.5784,1.5784,0.0,0.0,-1.028,-0.8318,-0.6541,-0.4817,-0.3021,-0.1194,0.0,-0.0062,0.0,0.0,0.0,0.0,0.0,-0.6987,-0.714,-0.7741,-0.9413,-0.9404,-0.9381,-0.9374,-0.9523,-0.9612,-0.9612,-0.9747,-0.9822,-0.9822,-0.9673,-0.9605,-0.9539,-0.7786,-0.6147,-0.4623,-0.2999,-0.1446,0.0176,0.3006,0.4329,0.4772,0.7334,0.7759,0.6775,0.6542,0.5685,0.4612,0.4397,0.4295,0.4037,0.2586,0.2075,0.1767,0.0361,-0.0972,-0.2264,-0.3616,-0.4068,-0.416,0.0,0.0,0.0,-0.6463,-0.6353,-0.5878,-0.4761,-0.3143,-0.159,-0.0279,0.0,0.0,0.0,0.0,0.0,0.0,-0.0051,-0.0505,-0.1863,-0.3215,-0.3566,-0.2213,-0.3215,-0.2458,0.156,0.1962,0.2465,0.3767,0.5172,0.7099,0.9714,1.123,1.3162,1.5737,1.5784,1.5784,1.5784,1.5784,1.5784,1.5784,1.5784,1.5784,1.5784,1.5784,1.5784,1.5784,1.5784,1.5784,1.5784,1.5784,1.5784,1.5784,1.5784,1.5784,1.5784,1.5784,1.5784,1.5784,0.0,-1.0833,-1.0159,-0.8307,-0.6541,-0.5201,-0.4558,-0.1884,-0.0432,0.0,0.0,0.0,0.0,-0.1479,-0.2879,-0.3751,-0.4874,-0.6123,-0.7547,-0.7702,-0.8217,-0.9218,-0.9469,-0.9612,-0.9612,-0.9747,-0.9822,-0.9822,-0.9564,-0.9442,-0.9442,-0.882,-0.7138,-0.4549,-0.4186,-0.2528,0.0173,0.2992,0.4896,0.6236,0.8955,0.9931,0.9724,0.9563,0.8564,0.7234,0.7182,0.6425,0.5431,0.5017,0.3588,0.1611,-0.0709,-0.1719,-0.2264,-0.3616,-0.4031,-0.4045,-0.4021,0.0,0.0,0.0,0.0,0.0,-0.4123,-0.2363,-0.043,-0.0054,0.0,0.0,0.0,0.0,0.0,0.0,-0.083,-0.1891,-0.3271,-0.4618,-0.4972,-0.3616,-0.3767,-0.2814,0.0252,0.0555,0.0706,0.1058,0.3265,0.5698,0.8314,1.2459,1.5045,1.5784,1.5784,1.5784,1.5784,1.5784,1.5784,1.5784,1.5784,1.5784,1.5784,1.5784,1.5784,1.5784,1.5784,1.5784,1.5784,1.5784,1.5784,1.5784,1.5784,1.5784,1.5784,1.5784,1.5784,1.5784,-1.0766,-1.0778,-0.9915,-0.7365,-0.605,-0.4852,-0.3218,-0.1264,-0.0373,0.0,0.0,0.0,0.0,-0.0858,-0.1763,-0.2468,-0.3265,-0.438,-0.5895,-0.6022,-0.6408,-0.7196,-0.7417,-0.7547,-0.7547,-0.8377,-0.8745,-0.869,-0.9137,-0.9347,-0.9344,-0.913,-0.7415,-0.4531,-0.4557,-0.2919,0.0169,0.3079,0.4884,0.5992,0.8742,0.9929,1.0062,0.9865,0.9242,0.8438,0.8316,0.7699,0.6867,0.6225,0.4206,0.1711,0.0151,-0.0704,-0.1309,-0.2113,-0.2314,-0.2314,-0.2314,-0.2764,-0.338,-0.4369,0.0,0.0,-0.3273,-0.2062,-0.0686,-0.0107,0.0,0.0,0.0,0.0,0.0,0.0,-0.1644,-0.3195,-0.3875,-0.4723,-0.4913,-0.4121,-0.3516,-0.2314,-0.0202,0.0,0.0,0.0,0.1962,0.4798,0.8517,1.2699,1.5235,1.5784,1.5784,1.5784,1.5784,1.5784,1.5784,1.5784,1.5784,1.5784,1.5784,1.5784,1.5784,1.5784,1.5784,1.5784,1.5784,1.5784,1.5784,1.5784,1.5784,1.5784,1.5784,1.5784,1.5784,1.5784,0.0,-1.0518,-0.9371,-0.5952,-0.5221,-0.3976,-0.0516,0.0,0.0,0.0,0.0,0.0,0.0,0.0,-0.0602,-0.2101,-0.2043,-0.2633,-0.4338,-0.4336,-0.4303,-0.447,-0.4603,-0.4678,-0.4678,-0.6437,-0.7276,-0.7124,-0.8605,-0.9344,-0.9207,-0.9008,-0.7315,-0.4522,-0.4501,-0.2837,0.0219,0.3216,0.4501,0.4716,0.7708,0.9008,0.9099,0.8853,0.8712,0.8628,0.8364,0.8313,0.8018,0.652,0.4422,0.2414,0.2113,0.1159,0.0202,0.005,0.0,0.0,0.0,-0.0857,-0.1819,-0.2106,-0.285,0.0,-0.2412,-0.1983,-0.1453,-0.0265,0.0,0.0,0.0,0.0,0.0,0.0,-0.2214,-0.3991,-0.4008,-0.4247,-0.4318,-0.4038,-0.2828,-0.1468,-0.0152,0.0,0.0,0.0,0.1515,0.461,0.9641,1.2442,1.4459,1.5784,1.5784,1.5784,1.5784,1.5784,1.5784,1.5784,1.5784,1.5784,1.5784,1.5784,1.5784,1.5784,1.5784,1.5784,1.5784,1.5784,1.5784,1.5784,1.5784,1.5784,1.5784,1.5784,1.5784,1.5784,-1.0717,-0.951,-0.7872,-0.5745,-0.4169,-0.2507,-0.0318,0.0,0.0,0.0,0.0,0.0,0.0,0.0,-0.012,-0.0474,-0.0465,-0.1084,-0.2584,-0.2686,-0.3185,-0.447,-0.4609,-0.4714,-0.4714,-0.6322,-0.7146,-0.712,-0.8513,-0.9241,-0.9207,-0.9008,-0.7315,-0.4522,-0.4501,-0.2837,0.0219,0.3216,0.4385,0.4611,0.8795,1.0473,1.0482,1.0314,0.9501,0.835,0.834,0.8187,0.7829,0.6487,0.5627,0.4822,0.2666,0.1813,0.141,0.0303,0.0,0.0,0.0,-0.0202,-0.0656,-0.177,-0.1415,0.0,-0.183,-0.1168,-0.0306,-0.0052,0.0,0.0,0.0,0.0,0.0,0.0,-0.1475,-0.2967,-0.403,-0.5168,-0.5448,-0.4321,-0.2864,-0.1457,-0.0152,0.0,0.0,0.0,0.3227,0.6563,0.973,1.2429,1.4459,1.5784,1.5784,1.5784,1.5784,1.5784,1.5784,1.5784,1.5784,1.5784,1.5784,1.5784,1.5784,1.5784,1.5784,1.5784,1.5784,1.5784,1.5784,1.5784,1.5784,1.5784,1.5784,1.5784,1.5784,1.5784,-0.9371,-0.7923,-0.6415,-0.5584,-0.3894,-0.2113,-0.0253,0.0,0.0,0.0,0.0,0.0,0.0,0.0,0.0,0.0,0.0,-0.0338,-0.1052,-0.1106,-0.1438,-0.2212,-0.2302,-0.233,-0.2349,-0.3954,-0.5137,-0.5788,-0.7234,-0.827,-0.8927,-0.8859,-0.7187,-0.4358,-0.4466,-0.2428,0.1118,0.3377,0.4759,0.5624,0.8621,0.977,0.9678,0.9561,0.8991,0.8313,0.818,0.8106,0.7889,0.7235,0.6531,0.5627,0.3616,0.253,0.1732,0.0405,0.0457,0.102,0.1011,0.1511,0.1811,0.1154,0.1006,0.0,0.0,0.0,0.0,0.0,0.0,0.0,0.0,0.0,0.0,0.0,-0.1251,-0.2416,-0.3129,-0.3817,-0.3953,-0.3202,-0.185,-0.074,-0.0052,0.0,0.0,0.0,0.3187,0.6282,0.9027,1.1617,1.3975,1.5997,1.5912,1.5784,1.5784,1.5784,1.5784,1.5784,1.5784,1.5784,1.5784,1.5784,1.5784,1.5784,1.5784,1.5784,1.5784,1.5784,1.5784,1.5784,1.5784,1.5784,1.5784,1.5784,1.5784,1.5784,-0.7464,-0.607,-0.4897,-0.4884,-0.3355,-0.1658,-0.0252,0.0,0.0,0.0,0.0246,0.0428,0.0423,0.0711,0.0757,0.046,0.0451,0.0278,0.0,0.0,0.0,0.0,0.0,0.0,0.0,-0.1607,-0.3095,-0.4418,-0.5908,-0.7357,-0.8669,-0.8669,-0.7054,-0.4213,-0.4354,-0.202,0.2082,0.3572,0.5055,0.6516,0.803,0.8567,0.8465,0.8289,0.8228,0.8208,0.8035,0.7988,0.7988,0.7988,0.7285,0.6126,0.4818,0.3451,0.2103,0.076,0.1171,0.2,0.2021,0.2964,0.4014,0.4014,0.3165,0.2364,0.0,0.0,0.0,0.0404,0.0204,0.0,0.0,0.0,0.0,0.0,-0.1019,-0.1792,-0.1792,-0.1792,-0.1838,-0.2023,-0.0852,0.0,0.0,0.0,0.0,0.0,0.2609,0.5444,0.8248,1.0866,1.3513,1.6224,1.6046,1.5885,1.5784,1.5784,1.5784,1.5784,1.5784,1.5784,1.5784,1.5784,1.5784,1.5784,1.5784,1.5784,1.5784,1.5784,1.5784,1.5784,1.5784,1.5784,1.5784,1.5784,1.5784,1.5784,-0.5381,-0.4229,-0.3017,-0.2977,-0.1517,-0.0252,-0.0062,0.0,0.0,0.0,0.1157,0.1929,0.1925,0.3157,0.3441,0.2064,0.195,0.1377,0.0112,0.0,0.0,0.0,0.0,0.0,0.0,-0.1464,-0.2867,-0.4218,-0.5754,-0.7193,-0.8506,-0.8506,-0.6962,-0.4175,-0.4211,-0.1934,0.2118,0.3595,0.4924,0.6178,0.7744,0.8384,0.8452,0.8174,0.8015,0.8015,0.7995,0.7988,0.7988,0.7988,0.7889,0.7534,0.6176,0.4826,0.3525,0.2165,0.1865,0.2019,0.2014,0.2964,0.4014,0.4014,0.3864,0.3767,0.3767,0.0,0.1762,0.1762,0.0,0.0,0.0,0.0,0.0,0.0,-0.0157,-0.0267,-0.0267,-0.0267,-0.0747,-0.2022,-0.0905,0.0,0.0,0.0,0.0,0.0,0.2625,0.5422,0.8236,1.1018,1.369,1.6237,1.6246,1.6099,1.5784,1.5784,1.5784,1.5784,1.5784,1.5784,1.5784,1.5784,1.5784,1.5784,1.5784,1.5784,1.5784,1.5784,1.5784,1.5784,1.5784,1.5784,1.5784,1.5784,1.5784,1.5784,-0.3493,-0.2375,-0.146,-0.2518,-0.1188,0.0,0.0,0.0,0.037,0.1295,0.196,0.2724,0.3561,0.4214,0.4303,0.3458,0.2639,0.1908,0.1196,0.043,0.0,0.0,0.0,0.0,0.0,-0.0592,-0.1601,-0.3061,-0.4372,-0.5822,-0.7363,-0.8079,-0.6904,-0.4183,-0.4216,-0.1433,0.3289,0.3841,0.5374,0.7506,0.7921,0.8228,0.8336,0.8119,0.7988,0.7988,0.7988,0.7988,0.7988,0.7988,0.7988,0.7789,0.6431,0.5619,0.4888,0.3578,0.3695,0.4329,0.4332,0.5322,0.6326,0.6326,0.5722,0.5172,0.5172,0.4117,0.2914,0.2163,0.0,0.0,0.0,0.0,0.0,0.0,0.0,0.0,0.0,0.0,-0.0212,-0.0875,-0.0378,0.0,0.0,0.0,0.0,0.0,0.2709,0.5616,0.8487,1.1221,1.399,1.673,1.662,1.638,1.6086,1.6086,1.6005,1.5784,1.5784,1.5784,1.5784,1.5784,1.5784,1.5784,1.5784,1.5784,1.5784,1.5784,1.5784,1.5784,1.5784,1.5784,1.5784,1.5784,1.5784,1.5784,-0.1714,-0.0884,-0.0439,-0.1752,-0.0869,0.0123,0.0552,0.0611,0.1217,0.2855,0.3389,0.4064,0.5137,0.5623,0.5577,0.4916,0.3959,0.3122,0.2604,0.1695,0.0957,0.0539,0.0589,0.0428,0.0,0.0,-0.0691,-0.2164,-0.3379,-0.483,-0.6469,-0.7273,-0.6432,-0.4169,-0.3772,-0.0698,0.4219,0.4093,0.576,0.8404,0.8187,0.8147,0.8194,0.8029,0.7988,0.7988,0.7988,0.7988,0.7988,0.7988,0.7988,0.7839,0.683,0.629,0.5829,0.4839,0.5225,0.5981,0.6002,0.698,0.7988,0.7988,0.7285,0.6531,0.6531,0.5522,0.4168,0.2814,0.2264,0.0,0.0,0.0,0.0,0.0,0.0,0.0,0.0,0.0,0.0,0.0,0.0,0.0,0.0,0.0,0.0,0.0,0.2401,0.5126,0.8039,1.0819,1.3604,1.651,1.6724,1.6647,1.6273,1.6321,1.6126,1.5784,1.5784,1.5784,1.5784,1.5784,1.5784,1.5784,1.5784,1.5784,1.5784,1.5784,1.5784,1.5784,1.5784,1.5784,1.5784,1.5784,1.5784,1.5784,-0.0062,-0.0062,0.0,-0.0062,-0.0062,0.0491,0.1932,0.2138,0.2704,0.4226,0.5668,0.6583,0.6635,0.7903,0.8109,0.6542,0.6376,0.5677,0.403,0.4018,0.3414,0.2022,0.2055,0.1478,0.0052,0.0,-0.0634,-0.202,-0.3357,-0.4799,-0.6298,-0.6144,-0.5422,-0.4131,-0.273,0.0268,0.4185,0.4219,0.5775,0.8327,0.832,0.8174,0.7995,0.7988,0.7988,0.7988,0.7988,0.7988,0.7988,0.7988,0.7988,0.7988,0.7939,0.7036,0.5982,0.5932,0.5982,0.5987,0.5982,0.698,0.7988,0.7988,0.7988,0.7939,0.7939,0.688,0.5577,0.4218,0.2914,0.157,0.0258,0.0,0.0,0.0,0.0,0.0,0.0,0.0,0.0,0.0,0.0,0.0,0.0,0.0,0.0,0.0,0.142,0.3534,0.6539,0.9453,1.2282,1.4983,1.6459,1.6911,1.6335,1.6321,1.6126,1.5784,1.5784,1.5784,1.5784,1.5784,1.5784,1.5784,1.5784,1.5784,1.5784,1.5784,1.5784,1.5784,1.5784,1.5784,1.5784,1.5784,1.5784,1.5784,0.0,0.0,0.0,0.0,0.0,0.0483,0.1958,0.3061,0.4279,0.586,0.6465,0.7142,0.8231,0.8595,0.8507,0.7871,0.6945,0.6091,0.5369,0.4609,0.3942,0.3365,0.2623,0.1922,0.1347,0.0475,-0.021,-0.0662,-0.2005,-0.2964,-0.3628,-0.4309,-0.4054,-0.2835,-0.2277,0.0379,0.4409,0.4277,0.582,0.8391,0.8194,0.8085,0.7988,0.7988,0.7988,0.7988,0.7988,0.7988,0.7988,0.7988,0.7988,0.7988,0.7988,0.769,0.7335,0.7335,0.7335,0.7335,0.7335,0.7633,0.7988,0.7988,0.7988,0.7988,0.7988,0.764,0.7004,0.5763,0.4344,0.2935,0.1681,0.0634,0.0,0.0,0.0,0.0,0.0,0.0,0.0,0.0,0.0,0.0,0.0,0.0,0.0,0.0,0.1381,0.3501,0.6422,0.9411,1.2322,1.5176,1.6676,1.6781,1.5332,1.6143,1.5859,1.4555,1.5391,1.5784,1.5784,1.5784,1.5784,1.5784,1.5784,1.5784,1.5784,1.5784,1.5784,1.5784,1.5784,1.5784,1.5784,1.5784,1.5784,1.5784,0.0,0.0,0.0,0.0,0.0487,0.1378,0.2882,0.4373,0.5925,0.7489,0.7522,0.7812,0.8883,0.8777,0.8567,0.8418,0.7537,0.697,0.6821,0.6105,0.5409,0.4829,0.4063,0.3133,0.2,0.1163,0.0476,0.0,-0.1356,-0.207,0.0,0.0,-0.2916,-0.2183,-0.1574,0.0542,0.3705,0.414,0.5603,0.7713,0.7901,0.7988,0.7988,0.7988,0.7988,0.7988,0.7988,0.7988,0.7988,0.7988,0.7988,0.7988,0.7988,0.7988,0.7988,0.7988,0.7988,0.7988,0.7988,0.7988,0.7988,0.7988,0.7988,0.7988,0.7988,0.7988,0.7679,0.6527,0.544,0.4181,0.2506,0.1382,0.058,0.0052,0.0,0.0,0.0,0.0,0.0,0.0,0.0,0.0,0.0,0.0,0.0,0.0,0.0896,0.2739,0.5683,0.8109,1.1043,1.4545,1.5583,1.5648,1.48,1.5569,1.5245,1.392,1.5188,1.5784,1.5784,1.5784,1.5784,1.5784,1.5784,1.5784,1.5784,1.5784,1.5784,1.5784,1.5784,1.5784,1.5784,1.5784,1.5784,1.5784,0.0124,0.0185,0.0247,0.0247,0.1642,0.3226,0.4578,0.6063,0.7545,0.8981,0.8893,0.871,0.871,0.8574,0.8425,0.8333,0.832,0.832,0.8313,0.832,0.7744,0.6441,0.6349,0.5002,0.2165,0.2019,0.1342,0.0,-0.1287,-0.1963,0.0,0.0,0.0,0.0,-0.0644,0.0806,0.2286,0.3866,0.5227,0.6495,0.7547,0.7988,0.7988,0.7988,0.7988,0.7988,0.7988,0.7988,0.7988,0.7988,0.7988,0.7988,0.7988,0.7988,0.7988,0.7988,0.7988,0.7988,0.7988,0.7988,0.7988,0.7988,0.7988,0.7988,0.7988,0.7988,0.7679,0.6635,0.622,0.5273,0.2864,0.2176,0.1566,0.0319,0.0,0.0,0.0,0.0,0.0,0.0,0.0,0.0,0.0,0.0,0.0,0.0,0.0,0.1328,0.4351,0.5843,0.8629,1.3038,1.3264,1.3742,1.4597,1.4597,1.4339,1.3824,1.514,1.5784,1.5784,1.5784,1.5784,1.5784,1.5784,1.5784,1.5784,1.5784,1.5784,1.5784,1.5784,1.5784,1.5784,1.5784,1.5784,1.5784,0.1603,0.2831,0.3615,0.3635,0.4877,0.6004,0.6297,0.7624,0.8747,0.915,0.8893,0.871,0.871,0.8574,0.8425,0.8333,0.832,0.8221,0.8106,0.8208,0.8062,0.7591,0.6774,0.5417,0.3519,0.2494,0.1342,0.0,-0.0319,-0.054,-0.0547,0.0,0.0,0.0,0.0,0.0795,0.2313,0.3826,0.5817,0.7922,0.8009,0.7988,0.7988,0.7988,0.7988,0.7988,0.7988,0.7988,0.7988,0.7988,0.7988,0.7988,0.7988,0.7988,0.7988,0.7988,0.7988,0.7988,0.7988,0.7988,0.7988,0.7988,0.7988,0.7988,0.7988,0.7988,0.8012,0.7949,0.7027,0.6065,0.5526,0.3625,0.1978,0.1569,0.0669,0.0,0.0,0.0,0.0,0.0,0.0,0.0,0.0,0.0,0.0,0.0,0.0,0.1293,0.4344,0.5826,0.8162,1.1583,1.2724,1.2786,1.1775,1.362,1.3791,1.2425,1.4711,1.5784,1.5784,1.5784,1.5784,1.5784,1.5784,1.5784,1.5784,1.5784,1.5784,1.5784,1.5784,1.5784,1.5784,1.5784,1.5784,1.5784,0.3387,0.4855,0.5989,0.5898,0.714,0.7912,0.7138,0.8323,0.9205,0.9076,0.8798,0.8587,0.8526,0.8384,0.8255,0.8174,0.8167,0.816,0.814,0.816,0.816,0.814,0.7412,0.6358,0.4922,0.3549,0.2226,0.0892,0.0265,0.0,0.0,0.0,0.0,0.0,0.0,0.0468,0.1349,0.3432,0.5869,0.837,0.8133,0.7988,0.0,0.7988,0.7988,0.7988,0.7988,0.7988,0.7988,0.7988,0.7988,0.7988,0.7988,0.7988,0.7988,0.7988,0.7988,0.7988,0.7988,0.7988,0.7988,0.7988,0.7988,0.7988,0.7988,0.7988,0.8056,0.8343,0.7711,0.6906,0.6544,0.5075,0.3462,0.2229,0.0874,0.0,0.0,0.0,0.0,0.0,0.0,0.0,0.0,0.0,0.0,0.0,0.0,0.1034,0.3392,0.49,0.7076,1.0038,1.0929,1.1173,1.0766,1.208,1.2476,1.2032,1.4027,1.5248,1.5784,1.5784,1.5784,1.5784,1.5784,1.5784,1.5784,1.5784,1.5784,1.5784,1.5784,1.5784,1.5784,1.5784,1.5784,1.5784,0.5172,0.6569,0.763,0.7459,0.8647,0.9071,0.7613,0.853,0.9252,0.8919,0.8689,0.8452,0.834,0.8167,0.8029,0.7995,0.8008,0.8119,0.8235,0.8113,0.8099,0.8235,0.8113,0.7385,0.6032,0.4857,0.354,0.2012,0.0849,0.0161,0.0,0.0,0.0,0.0,0.0,0.0,0.0726,0.304,0.5663,0.8306,0.8099,0.7988,0.7988,0.7988,0.7988,0.7988,0.7988,0.7988,0.7988,0.7988,0.7988,0.7988,0.7988,0.7988,0.7988,0.7988,0.7988,0.7988,0.7988,0.7988,0.7988,0.7988,0.7988,0.7988,0.7988,0.7988,0.8035,0.8241,0.8167,0.7775,0.6914,0.6349,0.517,0.2424,0.1039,0.021,0.0053,0.0,0.0,0.0,0.0,0.0,0.0,0.0,0.0,0.0,0.0,0.0625,0.2118,0.3659,0.5787,0.8517,0.8796,0.9446,1.0576,1.0471,1.0997,1.2173,1.3348,1.4459,1.5581,1.5737,1.5724,1.5581,1.5737,1.5784,1.5784,1.5784,1.5784,1.5784,1.5784,1.5784,1.5784,1.5784,1.5784,1.5784,0.6691,0.8282,0.9344,0.9208,0.9427,0.9458,0.8889,0.9077,0.913,0.8905,0.8784,0.8567,0.8354,0.835,0.8309,0.8008,0.816,0.8187,0.8085,0.8002,0.8002,0.8029,0.8002,0.7385,0.6032,0.5783,0.445,0.1975,0.1769,0.1103,0.0,0.0,0.0,0.0,0.0,0.0,0.3509,0.3859,0.5648,0.8306,0.8099,0.7988,0.7988,0.7988,0.7988,0.7988,0.7988,0.7988,0.7988,0.7988,0.7988,0.7988,0.7988,0.7988,0.7988,0.7988,0.7988,0.7988,0.7988,0.7988,0.7988,0.7988,0.7988,0.7988,0.7988,0.7988,0.8035,0.8241,0.8248,0.8204,0.802,0.7032,0.5295,0.248,0.1886,0.1386,0.0163,0.0,0.0,0.0,0.0,0.0,0.0,0.0,0.0,0.0,0.0,0.0664,0.2131,0.3645,0.5313,0.704,0.8255,0.8913,0.8941,0.9891,1.0935,1.1952,1.327,1.4016,1.4268,1.5343,1.5248,1.4268,1.5343,1.5784,1.5784,1.5784,1.5784,1.5784,1.5784,1.5784,1.5784,1.5784,1.5784,1.5784,0.8465,0.9211,0.9693,0.9618,0.9476,0.93,0.9076,0.8974,0.8872,0.8723,0.8574,0.8397,0.8174,0.8214,0.8194,0.8002,0.8106,0.8119,0.7995,0.7988,0.7988,0.7988,0.7988,0.769,0.7036,0.6335,0.5014,0.3047,0.2355,0.1289,0.0,0.0,0.0,0.0,0.0,0.2174,0.4119,0.4788,0.6258,0.8147,0.8022,0.7988,0.7988,0.7988,0.7988,0.7988,0.7988,0.7988,0.7988,0.7988,0.7988,0.7988,0.7988,0.7988,0.7988,0.7988,0.7988,0.7988,0.7988,0.7988,0.7988,0.7988,0.7988,0.7988,0.7988,0.7988,0.8008,0.8133,0.8153,0.8153,0.8153,0.7127,0.5588,0.3398,0.2482,0.1616,0.0223,0.0,0.0,0.0,0.0,0.0,0.0,0.0,0.0,0.0,0.0,0.0617,0.2017,0.3523,0.5026,0.6526,0.7942,0.8669,0.8601,0.9064,0.9865,1.1024,1.16,1.2571,1.392,1.4507,1.4854,1.4902,1.5534,1.5784,1.5784,1.5784,1.5784,1.5784,1.5784,1.5784,1.5784,1.5784,1.5784,1.5784,1.0268,1.0108,0.9898,0.9576,0.9286,0.9055,0.8913,0.8737,0.8574,0.8452,0.8388,0.8214,0.8008,0.7988,0.7988,0.7988,0.7988,0.7988,0.7988,0.7988,0.7988,0.7988,0.7988,0.7988,0.7988,0.698,0.5766,0.4413,0.3088,0.1725,0.0412,0.0153,0.0151,0.0504,0.1813,0.3165,0.4518,0.5577,0.6781,0.7988,0.7988,0.7988,0.7988,0.7988,0.7988,0.7988,0.7988,0.7988,0.7988,0.7988,0.7988,0.7988,0.7988,0.7988,0.7988,0.7988,0.7988,0.7988,0.7988,0.7988,0.7988,0.7988,0.7988,0.7988,0.7988,0.7988,0.7988,0.7988,0.7988,0.7988,0.7988,0.7313,0.6147,0.4285,0.315,0.1963,0.0227,0.0,0.0,0.0,0.0,0.0,0.0,0.0,0.0,0.0,0.0,0.0567,0.1904,0.3462,0.4953,0.6401,0.7837,0.8587,0.8615,0.8418,0.8933,1.0155,1.0308,1.1502,1.3488,1.4076,1.4711,1.5391,1.5676,1.5784,1.5784,1.5784,1.5784,1.5784,1.5784,1.5784,1.5784,1.5784,1.5784,1.5784,1.1677,1.1347,1.0888,0.9503,0.9062,0.8906,0.8757,0.8492,0.8354,0.834,0.8333,0.8214,0.8008,0.7988,0.7988,0.7988,0.7988,0.7988,0.7988,0.7988,0.7988,0.7988,0.7988,0.7988,0.7988,0.7889,0.7141,0.5792,0.4472,0.3118,0.1767,0.0555,0.0656,0.1861,0.3215,0.4568,0.5827,0.5927,0.6781,0.7988,0.7988,0.7988,0.7988,0.7988,0.7988,0.7988,0.7988,0.7988,0.7988,0.7988,0.7988,0.7988,0.7988,0.7988,0.7988,0.7988,0.7988,0.7988,0.7988,0.7988,0.7988,0.7988,0.7988,0.7988,0.7988,0.7988,0.7988,0.7988,0.7988,0.7988,0.7988,0.8166,0.7352,0.4454,0.414,0.3289,0.0393,0.0,0.0,0.0,0.0,0.0,0.0,0.0,0.0,0.0,0.0,0.0607,0.1918,0.3595,0.5055,0.6277,0.7977,0.871,0.8316,0.8411,0.8984,1.0027,1.1179,1.1853,1.2193,1.4567,1.5045,1.4124,1.5296,1.5784,1.5784,1.5784,1.5784,1.5784,1.5784,1.5784,1.5784,1.5784,1.5784,1.5784,1.184,1.1452,1.09,0.944,0.9035,0.8804,0.8608,0.8472,0.8336,0.8153,0.8133,0.8106,0.7995,0.7988,0.7988,0.7988,0.7988,0.7988,0.7988,0.7988,0.7988,0.7988,0.7988,0.7988,0.7988,0.7988,0.7335,0.5977,0.5477,0.4518,0.3165,0.2663,0.2663,0.3265,0.4618,0.5477,0.6027,0.688,0.7484,0.7988,0.7988,0.7988,0.7988,0.7988,0.7988,0.7988,0.7988,0.7988,0.7988,0.7988,0.7988,0.7988,0.7988,0.7988,0.7988,0.7988,0.7988,0.7988,0.7988,0.7988,0.7988,0.7988,0.7988,0.7988,0.7988,0.7988,0.7988,0.7988,0.7988,0.7988,0.7988,0.8214,0.7696,0.5712,0.4762,0.3603,0.1585,0.0564,0.0,0.0,0.0704,0.0899,0.0104,0.0714,0.0861,0.0051,0.0,0.0958,0.3065,0.3914,0.5305,0.7437,0.8177,0.8452,0.8327,0.8235,0.8405,0.8825,0.9312,0.9993,1.0828,1.2619,1.4028,1.5045,1.5581,1.5784,1.5784,1.5784,1.5784,1.5784,1.5784,1.5784,1.5784,1.5784,1.5784,1.5784,1.2402,1.1939,1.1295,0.942,0.8967,0.8798,0.8581,0.8472,0.8343,0.8133,0.8015,0.7988,0.7988,0.7988,0.7988,0.7988,0.7988,0.7988,0.7988,0.7988,0.7988,0.7988,0.7988,0.7988,0.7988,0.7988,0.7534,0.6581,0.6182,0.5522,0.4568,0.4568,0.4568,0.4668,0.5977,0.6581,0.6631,0.7584,0.7988,0.7988,0.7988,0.7988,0.7988,0.7988,0.7988,0.7988,0.7988,0.7988,0.7988,0.7988,0.7988,0.7988,0.7988,0.7988,0.7988,0.7988,0.7988,0.7988,0.7988,0.7988,0.7988,0.7988,0.7988,0.7988,0.7988,0.7988,0.7988,0.7988,0.7988,0.7988,0.7988,0.8167,0.7846,0.65,0.5112,0.374,0.2379,0.0955,0.0167,0.0552,0.1397,0.1782,0.1235,0.1674,0.162,0.0668,0.061,0.1565,0.3897,0.4174,0.5503,0.8217,0.8357,0.8357,0.832,0.816,0.8085,0.7988,0.8379,0.9072,1.0043,1.1745,1.3692,1.5784,1.5784,1.5784,1.5784,1.5784,1.5784,1.5784,1.5784,1.5784,1.5784,1.5784,1.5784,1.5784,1.391,1.3275,1.2354,0.943,0.8811,0.871,0.871,0.8459,0.8327,0.832,0.8133,0.7988,0.7988,0.7988,0.7988,0.7988,0.7988,0.7988,0.7988,0.7988,0.7988,0.7988,0.7988,0.7988,0.7988,0.7988,0.7988,0.7988,0.6631,0.5977,0.5977,0.5977,0.5977,0.6032,0.7385,0.7988,0.7988,0.7988,0.7988,0.7988,0.7988,0.7988,0.7988,0.7988,0.7988,0.7988,0.7988,0.7988,0.7988,0.7988,0.7988,0.7988,0.7988,0.7988,0.7988,0.7988,0.7988,0.7988,0.7988,0.7988,0.7988,0.7988,0.7988,0.7988,0.7988,0.7988,0.7988,0.7988,0.7988,0.7988,0.7988,0.8167,0.7846,0.65,0.5112,0.3726,0.2398,0.0939,0.0489,0.1812,0.1989,0.2515,0.3823,0.2764,0.2014,0.1964,0.1962,0.2585,0.3917,0.4306,0.5679,0.8224,0.8554,0.8567,0.8327,0.832,0.8187,0.8038,0.9361,1.0002,1.01,1.2716,1.4555,1.5784,1.5784,1.5784,1.5784,1.5784,1.5784,1.5784,1.5784,1.5784,1.5784,1.5784,1.5784,1.5784,1.3717,1.2507,1.1219,0.9265,0.8844,0.8798,0.8587,0.8472,0.8343,0.814,0.8022,0.7988,0.7988,0.7988,0.7988,0.7988,0.7988,0.7988,0.7988,0.7988,0.7988,0.7988,0.7988,0.7988,0.7988,0.7988,0.7988,0.7988,0.7584,0.7385,0.7385,0.7385,0.7385,0.7385,0.7789,0.7988,0.7988,0.7988,0.7988,0.7988,0.7988,0.7988,0.7988,0.7988,0.7988,0.7988,0.7988,0.7988,0.7988,0.7988,0.7988,0.7988,0.7988,0.7988,0.7988,0.7988,0.7988,0.7988,0.7988,0.7988,0.7988,0.7988,0.7988,0.7988,0.7988,0.7988,0.7988,0.7988,0.7988,0.7988,0.7988,0.8167,0.7866,0.6499,0.5124,0.3752,0.2375,0.1722,0.1546,0.1936,0.3629,0.4511,0.4024,0.4422,0.4343,0.3426,0.3431,0.3624,0.4001,0.5162,0.6626,0.8224,0.856,0.8567,0.8327,0.832,0.8194,0.7988,0.8428,0.9558,1.1365,1.3102,1.4603,1.5784,1.5784,1.5784,1.5784,1.5784,1.5784,1.5784,1.5784,1.5784,1.5784,1.5784,1.5784,1.5784,1.2778,1.1755,1.0617,0.9154,0.8885,0.8817,0.8682,0.8554,0.8418,0.8228,0.8056,0.7988,0.7988,0.7988,0.7988,0.7988,0.7988,0.7988,0.7988,0.7988,0.7988,0.7988,0.7988,0.7988,0.7988,0.7988,0.7988,0.7988,0.7988,0.7988,0.7988,0.7988,0.7988,0.7988,0.7988,0.7988,0.7988,0.7988,0.7988,0.7988,0.7988,0.7988,0.7988,0.7988,0.7988,0.7988,0.7988,0.7988,0.7988,0.7988,0.7988,0.7988,0.7988,0.7988,0.7988,0.7988,0.7988,0.7988,0.7988,0.7988,0.7988,0.7988,0.7988,0.7988,0.7988,0.8379,0.8627,0.8088,0.7988,0.7988,0.7988,0.8119,0.7788,0.6492,0.5054,0.3844,0.3077,0.2377,0.2358,0.3365,0.4979,0.585,0.5527,0.5827,0.5651,0.4798,0.4853,0.4896,0.4871,0.5931,0.714,0.8386,0.8615,0.8594,0.835,0.8347,0.8194,0.7988,0.8528,0.9854,1.195,1.3295,1.4603,1.5784,1.5784,1.5784,1.5784,1.5784,1.5784,1.5784,1.5784,1.5784,1.5784,1.5784,1.5784,1.5784,1.1374,1.1,1.0507,0.9154,0.8885,0.8878,0.8871,0.8682,0.8492,0.8486,0.8235,0.8008,0.8008,0.7995,0.7988,0.7988,0.7988,0.7988,0.7988,0.7988,0.7988,0.7988,0.7988,0.7988,0.7988,0.7988,0.7988,0.7988,0.7988,0.7988,0.7988,0.7988,0.7988,0.7988,0.7988,0.7988,0.7988,0.7988,0.7988,0.7988,0.7988,0.7988,0.7988,0.7988,0.7988,0.7988,0.7988,0.7988,0.7988,0.7988,0.7988,0.7988,0.7988,0.7988,0.7988,0.7988,0.7988,0.7988,0.7988,0.7988,0.7988,0.7988,0.7988,0.7988,0.7988,0.8973,0.9509,0.8237,0.7988,0.7988,0.7988,0.7988,0.7578,0.6369,0.4996,0.4095,0.406,0.3023,0.3199,0.5723,0.6093,0.6637,0.7902,0.6898,0.6147,0.6152,0.6163,0.626,0.6467,0.668,0.7396,0.8642,0.8703,0.8628,0.8472,0.8388,0.8245,0.8137,0.9509,1.0779,1.2086,1.344,1.4663,1.5784,1.5784,1.5784,1.5784,1.5784,1.5784,1.5784,1.5784,1.5784,1.5784,1.5784,1.5784,1.5784,1.1164,1.0186,0.932,0.894,0.8885,0.8844,0.8784,0.8703,0.8615,0.8499,0.833,0.8214,0.8214,0.8113,0.7988,0.7988,0.7988,0.7988,0.7988,0.7988,0.7988,0.7988,0.7988,0.7988,0.7988,0.7988,0.7988,0.7988,0.7988,0.7988,0.7988,0.7988,0.7988,0.7988,0.7988,0.7988,0.7988,0.7988,0.7988,0.7988,0.7988,0.7988,0.7988,0.7988,0.7988,0.7988,0.7988,0.7988,0.7988,0.7988,0.7988,0.7988,0.7988,0.7988,0.7988,0.7988,0.7988,0.7988,0.7988,0.7988,0.7988,0.7988,0.7988,0.7988,0.7988,0.8237,0.8379,0.8088,0.7988,0.7988,0.7988,0.7988,0.7241,0.4897,0.5102,0.4813,0.2801,0.3957,0.5308,0.5917,0.6904,0.7735,0.8201,0.796,0.7795,0.7898,0.8006,0.8083,0.8115,0.8179,0.8334,0.854,0.8648,0.8587,0.8374,0.834,0.8693,0.9558,1.0828,1.2134,1.3488,1.4758,1.5486,1.5784,1.5784,1.5784,1.5784,1.5784,1.5784,1.5784,1.5784,1.5784,1.5784,1.5784,1.5784,1.5784,1.0076,0.9423,0.8885,0.8885,0.8885,0.8858,0.8825,0.8757,0.8682,0.8601,0.8404,0.832,0.832,0.8133,0.7988,0.7988,0.7988,0.7988,0.7988,0.7988,0.7988,0.7988,0.7988,0.7988,0.7988,0.7988,0.7988,0.7988,0.7988,0.7988,0.7988,0.7988,0.7988,0.7988,0.7988,0.7988,0.7988,0.7988,0.7988,0.7988,0.7988,0.7988,0.7988,0.7988,0.7988,0.7988,0.7988,0.7988,0.7988,0.7988,0.7988,0.7988,0.7988,0.7988,0.7988,0.7988,0.7988,0.7988,0.7988,0.7988,0.7988,0.7988,0.8478,0.8775,0.8137,0.8478,0.8726,0.8137,0.7988,0.7988,0.7988,0.7988,0.7335,0.5272,0.5522,0.5477,0.4021,0.5072,0.6232,0.683,0.7534,0.8099,0.8255,0.832,0.8381,0.8472,0.856,0.8635,0.871,0.871,0.8669,0.8587,0.8601,0.8499,0.8327,0.8201,0.8764,1.0002,1.1317,1.2619,1.392,1.5235,1.5784,1.5784,1.5784,1.5784,1.5784,1.5784,1.5784,1.5798,1.5979,1.5952,1.5798,1.5979,1.5952,1.5784,0.8885,0.8885,0.8885,0.8885,0.8885,0.8885,0.8885,0.8825,0.8743,0.8743,0.8506,0.833,0.8354,0.8167,0.8015,0.7988,0.7988,0.7988,0.7988,0.7988,0.7988,0.7988,0.7988,0.7988,0.7988,0.7988,0.7988,0.7988,0.7988,0.7988,0.7988,0.7988,0.7988,0.7988,0.7988,0.7988,0.7988,0.7988,0.7988,0.7988,0.7988,0.7988,0.7988,0.7988,0.7988,0.7988,0.7988,0.7988,0.7988,0.7988,0.7988,0.7988,0.7988,0.7988,0.7988,0.7988,0.7988,0.7988,0.7988,0.7988,0.7988,0.7988,0.8874,0.941,0.8237,0.8874,0.9361,0.8237,0.7988,0.7988,0.7988,0.7988,0.7584,0.6232,0.6182,0.6232,0.6032,0.6182,0.6742,0.7922,0.8022,0.8147,0.8323,0.8336,0.8397,0.854,0.8554,0.8608,0.8737,0.8703,0.8676,0.8676,0.8554,0.8404,0.8235,0.8106,0.8775,1.0288,1.1365,1.2716,1.422,1.5296,1.5689,1.5534,1.5737,1.5689,1.5534,1.5737,1.5784,1.5811,1.6152,1.6112,1.5925,1.6179,1.6112,1.5885,0.8885,0.8885,0.8885,0.8885,0.8885,0.8885,0.8885,0.8865,0.8851,0.8851,0.875,0.8594,0.8465,0.8323,0.818,0.8002,0.7988,0.7988,0.7988,0.7988,0.7988,0.7988,0.7988,0.7988,0.7988,0.7988,0.7988,0.7988,0.7988,0.7988,0.7988,0.7988,0.7988,0.7988,0.7988,0.7988,0.7988,0.7988,0.7988,0.7988,0.7988,0.7988,0.7988,0.7988,0.7988,0.7988,0.7988,0.7988,0.7988,0.7988,0.7988,0.7988,0.7988,0.7988,0.7988,0.7988,0.7988,0.7988,0.7988,0.7988,0.7988,0.7988,0.8137,0.8237,0.8038,0.8137,0.8237,0.8038,0.7988,0.7988,0.7988,0.7988,0.7584,0.6232,0.693,0.7285,0.6182,0.698,0.7835,0.8221,0.8235,0.8343,0.8615,0.8642,0.8703,0.8804,0.8811,0.8824,0.8844,0.8655,0.852,0.852,0.8492,0.835,0.8029,0.8002,0.9213,1.1609,1.1804,1.3162,1.5486,1.5724,1.5188,1.4268,1.5343,1.5188,1.4268,1.5343,1.5784,1.5811,1.6152,1.6295,1.6206,1.6308,1.6295,1.6166,0.8885,0.8885,0.8885,0.8885,0.8885,0.8885,0.8885,0.8885,0.8885,0.8885,0.8804,0.8655,0.8499,0.8357,0.8208,0.8002,0.7988,0.7988,0.7988,0.7988,0.7988,0.7988,0.7988,0.7988,0.7988,0.7988,0.7988,0.7988,0.7988,0.7988,0.7988,0.7988,0.7988,0.7988,0.7988,0.7988,0.7988,0.7988,0.7988,0.7988,0.7988,0.7988,0.7988,0.7988,0.7988,0.7988,0.7988,0.7988,0.7988,0.7988,0.7988,0.7988,0.7988,0.7988,0.7988,0.7988,0.7988,0.7988,0.7988,0.7988,0.7988,0.7988,0.7988,0.7988,0.7988,0.7988,0.7988,0.7988,0.7988,0.8015,0.8147,0.8099,0.7816,0.7333,0.7691,0.7789,0.7185,0.759,0.8015,0.814,0.8221,0.835,0.8567,0.8662,0.8743,0.8811,0.8818,0.8777,0.8696,0.856,0.8445,0.837,0.8289,0.8221,0.8167,0.877,1.0043,1.1901,1.2619,1.398,1.5784,1.5092,1.4459,1.392,1.4507,1.4459,1.3968,1.4507,1.4846,1.4911,1.5332,1.5432,1.5432,1.6203,1.6406,1.6233,0.8885,0.8885,0.8885,0.8885,0.8885,0.8885,0.8885,0.8885,0.8885,0.8885,0.8838,0.8703,0.8554,0.8404,0.8255,0.8106,0.8008,0.7988,0.7988,0.7988,0.7988,0.7988,0.7988,0.7988,0.7988,0.7988,0.7988,0.7988,0.7988,0.7988,0.7988,0.7988,0.7988,0.7988,0.7988,0.7988,0.7988,0.7988,0.7988,0.7988,0.7988,0.7988,0.7988,0.7988,0.7988,0.7988,0.7988,0.7988,0.7988,0.7988,0.7988,0.7988,0.7988,0.7988,0.7988,0.7988,0.7988,0.7988,0.7988,0.7988,0.7988,0.7988,0.7988,0.7988,0.7988,0.7988,0.7988,0.7988,0.7988,0.8022,0.8194,0.8119,0.8029,0.8201,0.8119,0.7988,0.7988,0.7988,0.8015,0.8083,0.8248,0.8391,0.8574,0.8662,0.871,0.871,0.8676,0.8608,0.8486,0.8452,0.8384,0.8327,0.8119,0.8099,0.8214,0.9383,1.0632,1.1901,1.3247,1.4555,1.5784,1.4459,1.3728,1.344,1.3776,1.3536,1.3054,1.3632,1.3796,1.366,1.4468,1.4663,1.4616,1.616,1.6526,1.6246,0.8885,0.8885,0.8885,0.8885,0.8885,0.8885,0.8885,0.8885,0.8885,0.8885,0.8871,0.8811,0.871,0.856,0.8411,0.8262,0.8126,0.7988,0.7988,0.7988,0.7988,0.7988,0.7988,0.7988,0.7988,0.7988,0.7988,0.7988,0.7988,0.7988,0.7988,0.7988,0.7988,0.7988,0.7988,0.7988,0.7988,0.7988,0.7988,0.7988,0.7988,0.7988,0.7988,0.7988,0.7988,0.7988,0.7988,0.7988,0.7988,0.7988,0.7988,0.7988,0.7988,0.7988,0.7988,0.7988,0.7988,0.7988,0.7988,0.7988,0.7988,0.7988,0.7988,0.7988,0.7988,0.7988,0.7988,0.7988,0.7988,0.7995,0.8002,0.7995,0.7995,0.8008,0.7995,0.7988,0.7988,0.7988,0.8089,0.8418,0.8459,0.8581,0.8824,0.8784,0.871,0.871,0.8581,0.8492,0.8479,0.8357,0.8333,0.832,0.8119,0.7995,0.8008,0.932,1.0632,1.1901,1.3247,1.4555,1.5784,1.4459,1.3199,1.2145,1.3343,1.2522,1.0485,1.2909,1.3162,1.2255,1.4098,1.4595,1.4517,1.6095,1.6526,1.6321,0.8885,0.8885,0.8885,0.8885,0.8885,0.8885,0.8885,0.8885,0.8885,0.8885,0.8885,0.8824,0.873,0.8574,0.8425,0.8333,0.8126,0.7988,0.7988,0.7988,0.7988,0.7988,0.7988,0.7988,0.7988,0.7988,0.7988,0.7988,0.7988,0.7988,0.7988,0.7988,0.7988,0.7988,0.7988,0.7988,0.7988,0.7988,0.7988,0.7988,0.7988,0.7988,0.7988,0.7988,0.7988,0.7988,0.7988,0.7988,0.7988,0.7988,0.7988,0.7988,0.7988,0.7988,0.7988,0.7988,0.7988,0.7988,0.7988,0.7988,0.7988,0.7988,0.7988,0.7988,0.7988,0.7988,0.7988,0.7988,0.7988,0.8022,0.8167,0.8106,0.8022,0.8167,0.8099,0.7988,0.7988,0.8126,0.8187,0.8208,0.8452,0.8601,0.8533,0.8635,0.8635,0.8452,0.8384,0.8309,0.8214,0.8153,0.8126,0.8126,0.8022,0.8428,0.9361,1.0596,1.1843,1.3151,1.4459,1.4902,1.4555,1.3247,1.194,1.073,1.1258,1.0916,1.01,1.1063,1.1727,1.2162,1.2986,1.3797,1.4595,1.5952,1.6366,1.6246,0.8885,0.8885,0.8885,0.8885,0.8885,0.8885,0.8885,0.8885,0.8885,0.8885,0.8885,0.8844,0.8791,0.8648,0.8513,0.8418,0.8228,0.8113,0.8113,0.8015,0.7988,0.7988,0.7988,0.7988,0.7988,0.7988,0.7988,0.7988,0.7988,0.7988,0.7988,0.7988,0.7988,0.7988,0.7988,0.7988,0.7988,0.7988,0.7988,0.7988,0.7988,0.7988,0.7988,0.7988,0.7988,0.7988,0.7988,0.7988,0.7988,0.7988,0.7988,0.7988,0.7988,0.7988,0.7988,0.7988,0.7988,0.7988,0.7988,0.7988,0.7988,0.7988,0.7988,0.7988,0.7988,0.7988,0.7988,0.7988,0.7988,0.8022,0.818,0.8113,0.8022,0.818,0.8106,0.7988,0.7988,0.8133,0.8174,0.8119,0.8384,0.8513,0.835,0.8479,0.8486,0.834,0.8228,0.8153,0.7995,0.8035,0.8113,0.8113,0.8153,0.8802,1.0213,1.1314,1.2571,1.392,1.5188,1.514,1.3872,1.2522,1.1219,1.0002,1.0002,0.9756,0.946,1.0239,1.095,1.1627,1.2592,1.3568,1.4607,1.5836,1.6321,1.6295,0.8885,0.8885,0.8885,0.8885,0.8885,0.8885,0.8885,0.8885,0.8885,0.8885,0.8885,0.8885,0.8885,0.8804,0.871,0.871,0.8438,0.8327,0.832,0.8126,0.7988,0.7988,0.7988,0.7988,0.7988,0.7988,0.7988,0.7988,0.7988,0.7988,0.7988,0.7988,0.7988,0.7988,0.7988,0.7988,0.7988,0.7988,0.7988,0.7988,0.7988,0.7988,0.7988,0.7988,0.7988,0.7988,0.7988,0.7988,0.7988,0.7988,0.7988,0.7988,0.7988,0.7988,0.7988,0.7988,0.7988,0.7988,0.7988,0.7988,0.7988,0.7988,0.7988,0.7988,0.7988,0.7988,0.7988,0.7988,0.7988,0.7988,0.7988,0.7988,0.7988,0.7988,0.7988,0.7988,0.7988,0.7988,0.8099,0.8248,0.832,0.8381,0.8465,0.835,0.832,0.832,0.8126,0.7988,0.7988,0.8187,0.8327,0.8327,0.8411,0.902,1.0213,1.1314,1.2571,1.392,1.514,1.5092,1.3824,1.2474,1.117,1.0002,1.0002,0.9213,0.8187,1.0828,1.117,1.0314,1.3172,1.4309,1.4457,1.582,1.6273,1.6273,0.8885,0.8885,0.8885,0.8885,0.8885,0.8885,0.8885,0.8885,0.8885,0.8885,0.8885,0.8885,0.8885,0.8804,0.871,0.871,0.8533,0.8377,0.8327,0.8126,0.7988,0.7988,0.7988,0.7988,0.7988,0.7988,0.7988,0.7988,0.7988,0.7988,0.7988,0.7988,0.7988,0.7988,0.7988,0.7988,0.7988,0.7988,0.7988,0.7988,0.7988,0.7988,0.7988,0.7988,0.7988,0.7988,0.7988,0.7988,0.7988,0.7988,0.7988,0.7988,0.7988,0.7988,0.7988,0.7988,0.7988,0.7988,0.7988,0.7988,0.7988,0.7988,0.7988,0.7988,0.7988,0.7988,0.7988,0.7988,0.7988,0.7988,0.7988,0.7988,0.7988,0.7988,0.7988,0.7988,0.7988,0.8133,0.818,0.8113,0.8296,0.835,0.8187,0.8228,0.8228,0.8113,0.8167,0.8201,0.8201,0.8336,0.8418,0.8418,0.8459,0.902,1.0213,1.0556,1.1796,1.3872,1.3343,1.2861,1.2425,1.117,0.9854,0.8577,0.8577,0.8386,0.8144,1.0037,1.1188,1.1835,1.3633,1.4863,1.5745,1.5888,1.5364,1.4726,0.8885,0.8885,0.8885,0.8885,0.8885,0.8885,0.8885,0.8885,0.8885,0.8885,0.8885,0.8885,0.8885,0.8804,0.8798,0.8798,0.8662,0.8513,0.8364,0.8269,0.8214,0.8214,0.8214,0.816,0.7988,0.7988,0.7988,0.7988,0.7988,0.7988,0.7988,0.7988,0.7988,0.7988,0.7988,0.7988,0.7988,0.7988,0.7988,0.7988,0.7988,0.7988,0.7988,0.7988,0.7988,0.7988,0.7988,0.7988,0.7988,0.7988,0.7988,0.7988,0.7988,0.7988,0.7988,0.7988,0.7988,0.8002,0.8113,0.8133,0.8147,0.8201,0.8076,0.8008,0.8119,0.8133,0.8133,0.8133,0.8133,0.8113,0.8002,0.7988,0.7988,0.7988,0.7988,0.7988,0.7988,0.8119,0.8147,0.8002,0.8194,0.8235,0.8008,0.8126,0.814,0.7995,0.8235,0.833,0.8327,0.8465,0.8574,0.8574,0.8574,0.886,0.9512,0.9501,1.097,1.3872,1.2522,1.1901,1.1853,1.0583,0.9262,0.7988,0.7988,0.7988,0.8144,1.017,1.1556,1.2573,1.4252,1.5537,1.6393,1.5979,1.5486,1.5107,0.8925,0.8925,0.8925,0.8925,0.8925,0.8919,0.8905,0.8905,0.8898,0.8885,0.8885,0.8885,0.8885,0.8885,0.8885,0.8885,0.8798,0.8648,0.8513,0.8486,0.8479,0.8479,0.8479,0.8357,0.8035,0.8029,0.8015,0.7988,0.8002,0.8002,0.7988,0.7988,0.7988,0.7988,0.7988,0.7988,0.7988,0.7988,0.7988,0.7988,0.7988,0.7988,0.7988,0.7988,0.7995,0.8008,0.8008,0.8008,0.8008,0.7995,0.7988,0.7988,0.7988,0.7988,0.7988,0.7988,0.8002,0.8092,0.8235,0.8333,0.8374,0.8452,0.8275,0.8113,0.8255,0.834,0.834,0.8327,0.832,0.8221,0.8015,0.7988,0.7988,0.7988,0.7988,0.7995,0.8008,0.8008,0.8008,0.8008,0.8022,0.8022,0.8008,0.8022,0.8022,0.8008,0.8336,0.8445,0.8316,0.8574,0.8723,0.871,0.871,0.8628,0.8465,0.8336,1.0079,1.3536,1.2183,1.1609,1.1707,1.0386,0.9164,0.7988,0.7988,0.8088,0.8386,1.0895,1.219,1.2801,1.4992,1.6192,1.6593,1.5984,1.6082,1.6421,0.9286,0.9286,0.9286,0.9286,0.9286,0.9245,0.9123,0.9166,0.9062,0.8898,0.8885,0.8885,0.8885,0.8885,0.8885,0.8885,0.8798,0.8696,0.8662,0.8547,0.8479,0.8479,0.8479,0.8452,0.8391,0.8384,0.8269,0.7988,0.816,0.816,0.7988,0.7988,0.7988,0.7988,0.7988,0.7988,0.7988,0.7988,0.7988,0.7988,0.7988,0.7988,0.7988,0.7988,0.8113,0.8221,0.8221,0.8221,0.8201,0.8029,0.7988,0.7988,0.7988,0.7988,0.7988,0.7988,0.8126,0.8228,0.8313,0.835,0.8445,0.8472,0.8431,0.8397,0.8431,0.8438,0.8404,0.8347,0.832,0.8221,0.8015,0.7988,0.7988,0.7988,0.7988,0.8029,0.8201,0.8221,0.8221,0.8221,0.8316,0.8343,0.8235,0.8323,0.8343,0.8228,0.8492,0.8648,0.8615,0.8791,0.8832,0.8716,0.871,0.8581,0.8368,0.834,0.914,1.0828,0.9509,0.941,1.0386,0.9023,0.8287,0.7988,0.7988,0.8577,0.9715,1.1538,1.2929,1.4051,1.5596,1.6259,1.6326,1.5965,1.5358,1.4862,0.9381,0.9381,0.9381,0.9381,0.9381,0.9354,0.933,0.9316,0.9211,0.9062,0.9103,0.9096,0.8898,0.9001,0.9015,0.8892,0.8811,0.8818,0.8818,0.8743,0.8703,0.8703,0.8703,0.8669,0.8594,0.8662,0.8554,0.8248,0.833,0.833,0.8248,0.8248,0.8248,0.8248,0.818,0.8187,0.8241,0.8049,0.8029,0.814,0.8022,0.8035,0.8147,0.8147,0.8201,0.8333,0.8343,0.837,0.835,0.8201,0.8147,0.814,0.8015,0.7988,0.7988,0.7988,0.8147,0.8333,0.835,0.8479,0.8608,0.8682,0.8703,0.8682,0.8608,0.8587,0.8567,0.8492,0.8425,0.833,0.8174,0.8092,0.7988,0.7988,0.7988,0.8015,0.8147,0.8221,0.832,0.832,0.8388,0.835,0.8327,0.8465,0.8526,0.8384,0.8648,0.8784,0.8716,0.8804,0.8811,0.8716,0.8642,0.8492,0.8327,0.832,0.8584,0.9195,0.8371,0.8726,0.9953,0.8627,0.7988,0.7988,0.7988,0.8775,1.01,1.1579,1.3024,1.4408,1.5771,1.6353,1.646,1.6299,1.5568,1.4671,0.9456,0.9456,0.9456,0.9456,0.9456,0.9449,0.9422,0.9422,0.9367,0.9268,0.9357,0.9286,0.9042,0.9123,0.9123,0.8898,0.8905,0.8974,0.8974,0.8974,0.8974,0.8974,0.8974,0.8913,0.8791,0.8886,0.8791,0.8479,0.8506,0.8506,0.8479,0.8479,0.8479,0.8479,0.8357,0.837,0.8465,0.8221,0.8187,0.8296,0.8167,0.8194,0.8361,0.8361,0.8323,0.8364,0.8479,0.852,0.8499,0.8381,0.832,0.8248,0.8119,0.8029,0.8035,0.8056,0.8221,0.837,0.8486,0.8635,0.8777,0.8851,0.8885,0.8851,0.8777,0.875,0.8743,0.8716,0.8587,0.8438,0.8347,0.8147,0.7988,0.7988,0.7988,0.8008,0.8056,0.8228,0.8368,0.8343,0.8343,0.8343,0.8343,0.8587,0.8682,0.8533,0.8777,0.8824,0.8757,0.8817,0.8804,0.8676,0.8547,0.8397,0.8235,0.8255,0.832,0.832,0.8167,0.8642,0.9657,0.8571,0.8015,0.7988,0.7988,0.8874,1.0386,1.1463,1.2932,1.4643,1.5843,1.642,1.6597,1.6489,1.5794,1.5018,0.9761,0.9761,0.9761,0.9761,0.9761,0.972,0.9598,0.9578,0.9523,0.9367,0.9367,0.9367,0.9327,0.934,0.9239,0.8905,0.9055,0.918,0.918,0.918,0.918,0.918,0.918,0.9173,0.9146,0.8994,0.8791,0.8479,0.8615,0.8615,0.8479,0.8479,0.8479,0.8479,0.8465,0.8465,0.8479,0.8438,0.8431,0.8452,0.8431,0.8431,0.8452,0.8452,0.8533,0.8655,0.8676,0.8676,0.8635,0.8364,0.832,0.832,0.8248,0.8241,0.8262,0.8384,0.8533,0.8655,0.8676,0.8791,0.8858,0.8878,0.8885,0.8878,0.8858,0.8851,0.8817,0.8737,0.8587,0.8438,0.8347,0.8147,0.7988,0.7988,0.7988,0.8076,0.8384,0.8438,0.8506,0.8635,0.8648,0.8648,0.8648,0.8804,0.8845,0.8689,0.8838,0.8871,0.8851,0.8871,0.8811,0.852,0.8492,0.835,0.8022,0.8201,0.832,0.8327,0.8377,0.846,0.854,0.8337,0.8167,0.7988,0.7988,0.9361,1.1658,1.1853,1.3377,1.5612,1.6117,1.6299,1.6245,1.5501,1.5116,1.5018,0.9822,0.9822,0.9822,0.9822,0.9822,0.9802,0.9734,0.9727,0.9673,0.953,0.9578,0.9564,0.9401,0.9381,0.9327,0.9198,0.9245,0.9337,0.9337,0.9337,0.9337,0.9337,0.9337,0.9337,0.9337,0.9218,0.9076,0.8914,0.8845,0.8804,0.8737,0.8737,0.8737,0.873,0.8648,0.8655,0.8723,0.8554,0.8533,0.8601,0.852,0.8533,0.8608,0.8608,0.8655,0.871,0.871,0.8764,0.8804,0.8587,0.852,0.8499,0.8418,0.8391,0.8397,0.8465,0.8587,0.871,0.871,0.8825,0.8885,0.8885,0.8885,0.8885,0.8885,0.8885,0.8865,0.8797,0.8648,0.8465,0.8397,0.8194,0.7988,0.7988,0.8113,0.8214,0.8343,0.8506,0.8635,0.8703,0.8784,0.8804,0.8716,0.8797,0.8858,0.879,0.8844,0.8885,0.8885,0.8885,0.8838,0.8615,0.8608,0.8506,0.8289,0.8438,0.852,0.852,0.8669,0.8574,0.8327,0.835,0.8309,0.8174,0.8255,0.9799,1.2304,1.2304,1.3861,1.6353,1.6647,1.6911,1.6765,1.4797,1.4029,1.4093]}]]